[[{"header":{"parameterUnit":"m.s-1","parameterCategory":1,"la1":31.0,"la2":29.5877,"lo1":-88.7671,"lo2":-86.6584,"dy":0.0162,"dx":0.0185,"nx":115,"ny":88,"refTime":"2024-07-05T12:00:00:Z","depth":0,"parameterNumber":2,"parameterNumberName":"U-component_of_WINDS"},"data":[0.0,0.0,0.0,0.0,0.0,0.0,0.0,0.0,0.0,0.0,0.0,0.0,0.0,0.0,0.0,0.0,0.0,0.0,0.0,0.0,0.0,0.0,0.0,0.0,0.0,0.0,0.0,0.0,0.0,0.0,0.0,0.0,0.0,0.0,0.0,0.0,0.0,0.0,0.0,0.0,0.0,0.0,0.0,0.0,0.0,0.0,0.0,0.0,0.0,0.0,0.0,0.0,0.0,0.0,0.0,0.0,0.0,0.0,0.0,0.0,0.0,0.0,0.0,0.0,0.0,0.0,0.0,0.0,0.0,0.0,0.0,0.0,0.0,0.0,0.0,0.0,0.0,0.0,0.0,0.0,0.0,0.0,0.0,0.0,0.0,0.0,0.0,0.0,0.0,0.0,0.0,0.0,0.0,0.0,0.0,0.0,0.0,0.0,0.0,0.0,0.0,0.0,0.0,0.0,0.0,0.0,0.0,0.0,0.0,0.0,0.0,0.0,0.0,0.0,0.0,0.0,0.0,0.0,0.0,0.0,0.0,0.0,0.0,0.0,0.0,0.0,0.0,0.0,0.0,0.0,0.0,0.0,0.0,0.0,0.0,0.0,0.0,0.0,0.0,0.0,0.0,0.0,0.0,0.0,0.0,0.0,0.0,0.0,0.0,0.0,0.0,0.0,0.0,0.0,0.0,0.0,0.0,0.0,0.0,0.0,0.0,0.0,0.0,0.0,0.0,0.0,0.0,0.0,0.0,0.0,0.0,0.0,0.0,0.0,0.0,0.0,0.0,0.0,0.0,0.0,0.0,0.0,0.0,0.0,0.0,0.0,0.0,0.0,0.0,0.0,0.0,0.0,0.0,0.0,0.0,0.0,0.0,0.0,0.0,0.0,0.0,0.0,0.0,0.0,0.0,0.0,0.0,0.0,0.0,0.0,0.0,0.0,0.0,0.0,0.0,0.0,0.0,0.0,0.0,0.0,0.0,0.0,0.0,0.0,0.0,0.0,0.0,0.0,0.0,0.0,0.0,0.0,0.0,0.0,0.0,0.0,0.0,0.0,0.0,0.0,0.0,0.0,0.0,0.0,0.0,0.0,0.0,0.0,0.0,0.0,0.0,0.0,0.0,0.0,0.0,0.0,0.0,0.0,0.0,0.0,0.0,0.0,0.0,0.0,0.0,0.0,0.0,0.0,0.0,0.0,0.0,0.0,0.0,0.0,0.0,0.0,0.0,0.0,0.0,0.0,0.0,0.0,0.0,0.0,0.0,0.0,0.0,0.0,0.0,0.0,0.0,0.0,0.0,0.0,0.0,0.0,0.0,0.0,0.0,0.0,0.0,0.0,0.0,0.0,0.0,0.0,0.0,0.0,0.0,0.0,0.0,0.0,0.0,0.0,0.0,0.0,0.0,0.0,0.0,0.0,0.0,0.0,0.0,0.0,0.0,0.0,0.0,0.0,0.0,0.0,0.0,0.0,0.0,0.0,0.0,0.0,0.0,0.0,0.0,0.0,0.0,0.0,0.0,0.0,0.0,0.0,0.0,0.0,0.0,0.0,0.0,0.0,0.0,0.0,0.0,0.0,0.0,0.0,0.0,0.0,0.0,0.0,0.0,0.0,0.0,0.0,0.0,0.0,0.0,0.0,0.0,0.0,0.0,0.0,0.0,0.0,0.0,0.0,0.0,0.0,0.0,0.0,0.0,0.0,0.0,0.0,0.0,0.0,0.0,0.0,0.0,0.0,0.0,0.0,0.0,0.0,0.0,0.0,0.0,0.0,0.0,0.0,0.0,0.0,0.0,0.0,0.0,0.0,0.0,0.0,0.0,0.0,0.0,0.0,0.0,0.0,0.0,0.0,0.0,0.0,0.0,0.0,0.0,0.0,0.0,0.0,0.0,0.0,0.0,0.0,0.0,0.0,0.0,0.0,0.0,0.0,0.0,0.0,0.0,0.0,0.0,0.0,0.0,0.0,0.0,0.0,0.0,0.0,0.0,0.0,0.0,0.0,0.0,0.0,0.0,0.0,0.0,0.0,0.0,0.0,0.0,0.0,0.0,0.0,0.0,0.0,0.0,0.0,0.0,0.0,0.0,0.0,0.0,0.0,0.0,0.0,0.0,0.0,0.0,0.0,0.0,0.0,0.0,0.0,0.0,0.0,0.0,0.0,0.0,0.0,0.0,0.0,0.0,0.0,0.0,0.0,0.0,0.0,0.0,0.0,0.0,0.0,0.0,0.0,0.0,0.0,0.0,0.0,0.0,0.0,0.0,0.0,0.0,0.0,0.0,0.0,0.0,0.0,0.0,0.0,0.0,0.0,0.0,0.0,0.0,0.0,0.0,0.0,0.0,0.0,0.0,0.0,0.0,0.0,0.0,0.0,0.0,0.0,0.0,0.0,0.0,0.0,0.0,0.0,0.0,0.0,0.0,0.0,0.0,0.0,0.0,0.0,0.0,0.0,0.0,0.0,0.0,0.0,0.0,0.0,0.0,0.0,0.0,0.0,0.0,0.0,0.0,0.0,0.0,0.0,0.0,0.0,0.0,0.0,0.0,0.0,0.0,0.0,0.0,0.0,0.0,0.0,0.0,0.0,0.0,0.0,0.0,0.0,0.0,0.0,0.0,0.0,0.0,0.0,0.0,0.0,0.0,0.0,0.0,0.0,0.0,0.0,0.0,0.0,0.0,0.0,0.0,0.0,0.0,0.0,0.0,0.0,0.0,0.0,0.0,0.0,0.0,0.0,0.0,0.0,0.0,0.0,0.0,0.0,0.0,0.0,0.0,0.0,0.0,0.0,0.0,0.0,0.0,0.0,0.0,0.0,0.0,0.0,0.0,0.0,0.0,0.0,0.0,0.0,0.0,0.0,0.0,0.0,0.0,0.0,0.0,0.0,0.0,0.0,0.0,0.0,0.0,0.0,0.0,0.0,0.0,0.0,0.0,0.0,0.0,0.0,0.0,0.0,0.0,0.0,0.0,0.0,0.0,0.0,0.0,0.0,0.0,0.0,0.0,0.0,0.0,0.0,0.0,0.0,0.0,0.0,0.0,0.0,0.0,0.0,0.0,0.0,0.0,0.0,0.0,0.0,0.0,0.0,0.0,0.0,0.0,0.0,0.0,0.0,0.0,0.0,0.0,0.0,0.0,0.0,0.0,0.0,0.0,0.0,0.0,0.0,0.0,0.0,0.0,0.0,0.0,0.0,0.0,0.0,0.0,0.0,0.0,0.0,0.0,0.0,0.0,0.0,0.0,0.0,0.0,0.0,0.0,0.0,0.0,0.0,0.0,0.0,0.0,0.0,0.0,0.0,0.0,0.0,0.0,0.0,0.0,0.0,0.0,0.0,0.0,0.0,0.0,0.0,0.0,0.0,0.0,0.0,0.0,0.0,0.0,0.0,0.0,0.0,0.0,0.0,0.0,0.0,0.0,0.0,0.0,0.0,0.0,0.0,0.0,0.0,0.0,0.0,0.0,0.0,0.0,0.0,0.0,0.0,0.0,0.0,0.0,0.0,0.0,0.0,0.0,0.0,0.0,0.0,0.0,0.0,0.0,0.0,0.0,0.0,0.0,0.0,0.0,0.0,0.0,0.0,0.0,0.0,0.0,0.0,0.0,0.0,0.0,0.0,0.0,0.0,0.0,0.0,0.0,0.0,0.0,0.0,0.0,0.0,0.0,0.0,0.0,0.0,0.0,0.0,0.0,0.0,0.0,0.0,0.0,0.0,0.0,0.0,0.0,0.0,0.0,0.0,0.0,0.0,0.0,0.0,0.0,0.0,0.0,0.0,0.0,0.0,0.0,0.0,0.0,0.0,0.0,0.0,0.0,0.0,0.0,0.0,0.0,0.0,0.0,0.0,0.0,0.0,0.0,0.0,0.0,0.0,0.0,0.0,0.0,0.0,0.0,0.0,0.0,0.0,0.0,0.0,0.0,0.0,0.0,0.0,0.0,0.0,0.0,0.0,0.0,0.0,0.0,0.0,0.0,0.0,0.0,0.0,0.0,0.0,0.0,0.0,0.0,0.0,0.0,0.0,0.0,0.0,0.0,0.0,0.0,0.0,0.0,0.0,0.0,0.0,0.0,0.0,0.0,0.0,0.0,0.0,0.0,0.0,0.0,0.0,0.0,0.0,0.0,0.0,0.0,0.0,0.0,0.0,0.0,0.0,0.0,0.0,0.0,0.0,0.0,0.0,0.0,0.0,0.0,0.0,0.0,0.0,0.0,0.0,0.0,0.0,0.0,0.0,0.0,0.0,0.0,0.0,0.0,0.0,0.0,0.0,-0.2233,0.0,0.0,0.0,0.0,0.0,0.0,0.0,0.0,0.0,0.0,0.0,0.0,0.0,0.0,0.0,0.0,0.0,0.0,0.0,0.0,0.0,0.0,0.0,0.0,0.0,0.0,0.0,0.0,0.0,0.0,0.0,0.0,0.0,0.0,0.0,0.0,0.0,0.0,0.0,0.0,0.0,0.0,0.0,0.0,0.0,0.0,0.0,0.0,0.0,0.0,0.0,0.0,0.0,0.0,0.0,0.0,0.0,0.0,0.0,0.0,0.0,0.0,0.0,0.0,0.0,0.0,0.0,0.0,0.0,0.0,0.0,0.0,0.0,0.0,0.0,0.0,0.0,0.0,0.0,0.0,0.0,0.0,0.0,0.0,0.0,0.0,0.0,0.0,0.0,0.0,0.0,0.0,0.0,0.0,0.0,0.0,0.0,0.0,0.0,0.0,0.0,0.0,0.0,0.0,0.0,0.0,0.0,0.0,0.0,0.0,-0.3105,-0.2735,-0.2607,-0.2371,-0.2048,0.0,0.0,0.0,0.0,0.0,0.0,0.0,0.0,0.0,0.0,0.0,0.0,0.0,0.0,0.0,0.0,0.0,0.0,0.0,0.0,0.0,0.0,0.0,0.0,0.0,0.0,0.0,0.0,0.0,0.0,0.0,0.0,0.0,0.0,0.0,0.0,0.0,0.0,0.0,0.0,0.0,0.0,0.0,0.0,0.0,0.0,0.0,0.0,0.0,0.0,0.0,0.0,0.0,0.0,0.0,0.0,0.0,0.0,0.0,0.0,0.0,0.0,0.0,0.0,0.0,0.0,0.0,0.0,0.0,0.0,0.0,0.0,0.0,0.0,0.0,0.0,0.0,0.0,0.0,0.0,0.0,0.0,0.0,0.0,0.0,0.0,0.0,0.0,0.0,0.0,0.0,0.0,0.0,0.0,0.0,0.0,0.0,0.0,0.0,0.0,0.0,0.0,0.0,0.0,0.0,0.0,0.0,0.0,0.0,0.0,0.0,0.0,-0.211,-0.2054,-0.2082,0.0,0.0,0.0,0.0,0.0,0.0,0.0,0.0,0.0,0.0,0.0,0.0,0.0,0.0,0.0,0.0,0.0,0.0,0.0,0.0,0.0,0.0,0.0,0.0,0.0,0.0,0.0,0.0,0.0,0.0,0.0,0.0,0.0,0.0,0.0,0.0,0.0,0.0,0.0,0.0,0.0,0.0,0.0,0.0,0.0,0.0,0.0,0.0,0.0,0.0,0.0,0.0,0.0,0.0,0.0,0.0,0.0,0.0,0.0,0.0,0.0,0.0,0.0,0.0,0.0,0.0,0.0,0.0,0.0,0.0,0.0,0.0,0.0,0.0,0.0,0.0,0.0,0.0,0.0,0.0,0.0,0.0,0.0,0.0,0.0,0.0,0.0,0.0,0.0,0.0,0.0,0.0,0.0,0.0,0.0,0.0,0.0,0.0,0.0,0.0,0.0,0.0,0.0,0.0,0.0,0.0,0.0,0.0,0.0,0.0,-0.2283,-0.1967,-0.2254,0.0,-0.2261,0.0,0.0,0.0,0.0,0.0,0.0,0.0,0.0,0.0,0.0,0.0,0.0,0.0,0.0,0.0,0.0,0.0,0.0,0.0,0.0,0.0,0.0,0.0,0.0,0.0,0.0,0.0,0.0,0.0,0.0,0.0,0.0,0.0,0.0,0.0,0.0,0.0,0.0,0.0,0.0,0.0,0.0,0.0,0.0,0.0,0.0,0.0,0.0,0.0,0.0,0.0,0.0,0.0,0.0,0.0,0.0,0.0,0.0,0.0,0.0,0.0,0.0,0.0,0.0,0.0,0.0,0.0,0.0,0.0,0.0,0.0,0.0,0.0,0.0,0.0,0.0,0.0,0.0,0.0,0.0,0.0,0.0,0.0,0.0,0.0,0.0,0.0,0.0,0.0,0.0,0.0,0.0,0.0,0.0,0.0,0.0,0.0,0.0,0.0,0.0,0.0,0.0,0.0,0.0,0.0,0.0,0.0,0.0,0.0,0.0,-0.1717,-0.1529,-0.1679,-0.1666,0.0,0.0,0.0,0.0,0.0,0.0,0.0,0.0,0.0,0.0,0.0,0.0,0.0,0.0,0.0,0.0,0.0,0.0,0.0,0.0,0.0,0.0,0.0,0.0,0.0,0.0,0.0,0.0,0.0,0.0,0.0,0.0,0.0,0.0,0.0,0.0,0.0,0.0,0.0,0.0,0.0,0.0,0.0,0.0,0.0,0.0,0.0,0.0,0.0,0.0,0.0,0.0,0.0,0.0,0.0,0.0,0.0,0.0,0.0,0.0,0.0,0.0,0.0,0.0,0.0,0.0,0.0,0.0,0.0,0.0,0.0,0.0,0.0,0.0,0.0,0.0,0.0,0.0,0.0,0.0,0.0,0.0,0.0,0.0,0.0,0.0,0.0,0.0,0.0,0.0,0.0,0.0,0.0,0.0,0.0,0.0,0.0,0.0,0.0,0.0,0.0,0.0,0.0,0.0,0.0,0.0,0.0,0.0,0.0,0.0,-0.1426,0.0,-0.1339,-0.1264,-0.1198,-0.1141,0.0,0.0,0.0,0.0,0.0,0.0,0.0,0.0,0.0,0.0,0.0,0.0,0.0,0.0,0.0,0.0,0.0,0.0,0.0,0.0,0.0,0.0,0.0,0.0,0.0,0.0,0.0,0.0,0.0,0.0,0.0,0.0,0.0,0.0,0.0,0.0,0.0,0.0,0.0,0.0,0.0,0.0,0.0,0.0,0.0,0.0,0.0,0.0,0.0,0.0,0.0,0.0,0.0,0.0,0.0,0.0,0.0,0.0,0.0,0.0,0.0,0.0,0.0,0.0,0.0,0.0,0.0,0.0,0.0,0.0,0.0,0.0,0.0,0.0,0.0,0.0,0.0,0.0,0.0,0.0,0.0,0.0,0.0,0.0,0.0,0.0,0.0,0.0,0.0,0.0,0.0,0.0,0.0,0.0,0.0,0.0,0.0,0.0,0.0,0.0,0.0,0.0,0.0,0.0,0.0,0.0,0.0,0.0,0.0,-0.1369,-0.1291,-0.1418,-0.1421,-0.1341,0.0,0.0,0.0,0.0,0.0,0.0,0.0,0.0,0.0,0.0,0.0,0.0,0.0,0.0,0.0,0.0,0.0,0.0,0.0,0.0,0.0,0.0,0.0,0.0,0.0,0.0,0.0,0.0,0.0,0.0,0.0,0.0,0.0,0.0,0.0,0.0,0.0,0.0,0.0,0.0,0.0,0.0,0.0,0.0,0.0,0.0,0.0,0.0,0.0,0.0,0.0,0.0,0.0,0.0,0.0,0.0,0.0,0.0,0.0,0.0,0.0,0.0,0.0,0.0,0.0,0.0,0.0,0.0,0.0,0.0,0.0,0.0,0.0,0.0,0.0,0.0,0.0,0.0,0.0,0.0,0.0,0.0,0.0,0.0,0.0,0.0,0.0,0.0,0.0,0.0,0.0,0.0,0.0,0.0,0.0,0.0,0.0,0.0,0.0,0.0,0.0,0.0,0.0,0.0,0.0,0.0,0.0,0.0,0.0,-0.1426,-0.1532,-0.1742,-0.2102,-0.1739,-0.1585,0.0,0.0,0.0,0.0,0.0,0.0,0.0,0.0,0.0,0.0,0.0,0.0,0.0,0.0,0.0,0.0,0.0,0.0,0.0,0.0,0.0,0.0,0.0,0.0,0.0,0.0,0.0,0.0,0.0,0.0,0.0,0.0,0.0,0.0,0.0,0.0,0.0,0.0,0.0,0.0,0.0,0.0,0.0,0.0,0.0,0.0,0.0,0.0,0.0,0.0,0.0,0.0,0.0,0.0,0.0,0.0,0.0,0.0,0.0,0.0,0.0,0.0,0.0,0.0,0.0,0.0,0.0,0.0,0.0,0.0,0.0,0.0,0.0,0.0,0.0,0.0,0.0,0.0,0.0,0.0,0.0,0.0,0.0,0.0,0.0,0.0,0.0,0.0,0.0,0.0,0.0,0.0,0.0,0.0,0.0,0.0,0.0,0.0,0.0,0.0,0.0,0.0,0.0,0.0,0.0,0.0,0.0,0.0,0.0,-0.1686,0.0,-0.2453,0.0,-0.2099,-0.1831,0.0,0.0,0.0,0.0,0.0,0.0,0.0,0.0,0.0,0.0,0.0,0.0,0.0,0.0,0.0,0.0,0.0,0.0,0.0,0.0,0.0,0.0,0.0,0.0,0.0,0.0,0.0,0.0,0.0,0.0,0.0,0.0,0.0,0.0,0.0,0.0,0.0,0.0,0.0,0.0,0.0,0.0,0.0,0.0,0.0,0.0,0.0,0.0,0.0,0.0,0.0,0.0,0.0,0.0,0.0,0.0,0.0,0.0,0.0,0.0,0.0,0.0,0.0,0.0,0.0,0.0,0.0,0.0,0.0,0.0,0.0,0.0,0.0,0.0,0.0,0.0,0.0,0.0,0.0,0.0,0.0,0.0,0.0,0.0,0.0,0.0,0.0,0.0,0.0,0.0,0.0,0.0,0.0,0.0,0.0,0.0,0.0,0.0,0.0,0.0,0.0,0.0,0.0,0.0,0.0,0.0,0.0,0.0,-0.1516,-0.2449,-0.3321,-0.336,-0.2565,-0.2487,-0.2004,0.0,0.0,0.0,0.0,0.0,0.0,0.0,0.0,0.0,0.0,0.0,0.0,0.0,0.0,0.0,0.0,0.0,0.0,0.0,0.0,0.0,0.0,0.0,0.0,0.0,0.0,0.0,0.0,0.0,0.0,0.0,0.0,0.0,0.0,0.0,0.0,0.0,0.0,0.0,0.0,0.0,0.0,0.0,0.0,0.0,0.0,0.0,0.0,0.0,0.0,0.0,0.0,0.0,0.0,0.0,0.0,0.0,0.0,0.0,0.0,0.0,0.0,0.0,0.0,0.0,0.0,0.0,0.0,0.0,0.0,0.0,0.0,0.0,0.0,0.0,0.0,0.0,0.0,0.0,0.0,0.0,0.0,0.0,0.0,0.0,0.0,0.0,0.0,0.0,0.0,0.0,0.0,0.0,0.0,0.0,0.0,0.0,0.0,0.0,0.0,0.0,0.0,0.0,0.0,0.0,0.0,0.0,0.0,0.0,-0.2064,-0.3384,-0.3896,-0.3491,-0.2995,-0.2728,0.0,0.0,0.0,0.0,0.0,0.0,0.0,0.0,0.0,0.0,0.0,0.0,0.0,0.0,0.0,0.0,0.0,0.0,0.0,0.0,0.0,0.0,0.0,0.0,0.0,0.0,0.0,0.0,0.0,0.0,0.0,0.0,0.0,0.0,0.0,0.0,0.0,0.0,0.0,0.0,0.0,0.0,0.0,0.0,0.0,0.0,0.0,0.0,0.0,0.0,0.0,0.0,0.0,0.0,0.0,0.0,0.0,0.0,0.0,0.0,0.0,0.0,0.0,0.0,0.0,0.0,0.0,0.0,0.0,0.0,0.0,0.0,0.0,0.0,0.0,0.0,0.0,0.0,0.0,0.0,0.0,0.0,0.0,0.0,0.0,0.0,0.0,0.0,0.0,0.0,0.0,0.0,0.0,0.0,0.0,0.0,0.0,0.0,0.0,0.0,0.0,0.0,0.0,0.0,0.0,0.0,0.0,0.0,0.0,-0.3104,-0.4369,-0.4857,-0.4376,-0.376,-0.3307,-0.3177,0.0,0.0,0.0,0.0,0.0,0.0,0.0,0.0,0.0,0.0,0.0,0.0,0.0,0.0,0.0,0.0,0.0,0.0,0.0,0.0,0.0,0.0,0.0,0.0,0.0,0.0,0.0,0.0,0.0,0.0,0.0,0.0,0.0,0.0,0.0,0.0,0.0,0.0,0.0,0.0,0.0,0.0,0.0,0.0,0.0,0.0,0.0,0.0,0.0,0.0,0.0,0.0,0.0,0.0,0.0,0.0,0.0,0.0,0.0,0.0,0.0,0.0,0.0,0.0,0.0,0.0,0.0,0.0,0.0,0.0,0.0,0.0,0.0,0.0,0.0,0.0,0.0,0.0,0.0,0.0,0.0,0.0,0.0,0.0,0.0,0.0,0.0,0.0,0.0,0.0,0.0,0.0,0.0,0.0,0.0,0.0,0.0,0.0,0.0,0.0,0.0,0.0,0.0,0.0,0.0,0.0,0.0,0.0,-0.5183,-0.6063,-0.616,-0.5251,-0.4723,-0.3823,0.0,0.0,0.0,0.0,0.0,0.0,0.0,0.0,0.0,0.0,0.0,0.0,0.0,0.0,0.0,0.0,0.0,0.0,0.0,0.0,0.0,0.0,0.0,0.0,0.0,0.0,0.0,0.0,0.0,0.0,0.0,0.0,0.0,0.0,0.0,0.0,0.0,0.0,0.0,0.0,0.0,0.0,0.0,0.0,0.0,0.0,0.0,0.0,0.0,0.0,0.0,0.0,0.0,0.0,0.0,0.0,0.0,0.0,0.0,0.0,0.0,0.0,0.0,0.0,0.0,0.0,0.0,0.0,0.0,0.0,0.0,0.0,0.0,0.0,0.0,0.0,0.0,0.0,0.0,0.0,0.0,0.0,0.0,0.0,0.0,0.0,0.0,0.0,0.0,0.0,0.0,0.0,0.0,0.0,0.0,0.0,0.0,0.0,0.0,0.0,0.0,0.0,0.0,0.0,0.0,0.0,0.0,0.0,0.0,-0.5952,-0.678,-0.6777,-0.5852,-0.5299,-0.4779,0.0,0.0,0.0,0.0,0.0,0.0,0.0,0.0,0.0,0.0,0.0,0.0,0.0,0.0,0.0,0.0,0.0,0.0,0.0,0.0,0.0,0.0,0.0,0.0,0.0,0.0,0.0,0.0,0.0,0.0,0.0,0.0,0.0,0.0,0.0,0.0,0.0,0.0,0.0,0.0,0.0,0.0,0.0,0.0,0.0,0.0,0.0,0.0,0.0,0.0,0.0,0.0,0.0,0.0,0.0,0.0,0.0,0.0,0.0,0.0,0.0,0.0,0.0,0.0,0.0,0.0,0.0,0.0,0.0,0.0,0.0,0.0,0.0,0.0,0.0,0.0,0.0,0.0,0.0,0.0,0.0,0.0,0.0,0.0,0.0,0.0,0.0,0.0,0.0,0.0,0.0,0.0,0.0,0.0,0.0,0.0,0.0,0.0,0.0,0.0,0.0,0.0,0.0,0.0,0.0,0.0,0.0,0.0,-0.5677,-0.6908,-0.7485,-0.7458,-0.6875,-0.6237,-0.5593,0.0,0.0,0.0,0.0,0.0,0.0,0.0,0.0,0.0,0.0,0.0,0.0,0.0,0.0,0.0,0.0,0.0,0.0,0.0,0.0,0.0,0.0,0.0,0.0,0.0,0.0,0.0,0.0,0.0,0.0,0.0,0.0,0.0,0.0,0.0,0.0,0.0,0.0,0.0,0.0,0.0,0.0,0.0,0.0,0.0,0.0,0.0,0.0,0.0,0.0,0.0,0.0,0.0,0.0,0.0,0.0,0.0,0.0,0.0,0.0,0.0,0.0,0.0,0.0,0.0,0.0,0.0,0.0,0.0,0.0,0.0,0.0,0.0,0.0,0.0,0.0,0.0,0.0,0.0,0.0,0.0,0.0,0.0,0.0,0.0,0.0,0.0,0.0,0.0,0.0,0.0,0.0,0.0,0.0,0.0,0.0,0.0,0.0,0.0,0.0,0.0,0.0,0.0,0.0,0.0,0.0,0.0,0.0,-0.6396,-0.7768,-0.7999,-0.8118,-0.8099,-0.7337,-0.635,0.0,0.0,0.0,0.0,0.0,0.0,0.0,0.0,0.0,0.0,0.0,0.0,0.0,0.0,0.0,0.0,0.0,0.0,0.0,0.0,0.0,0.0,0.0,0.0,0.0,0.0,0.0,0.0,0.0,0.0,0.0,0.0,0.0,0.0,0.0,0.0,0.0,0.0,0.0,0.0,0.0,0.0,0.0,0.0,0.0,0.0,0.0,0.0,0.0,0.0,0.0,0.0,0.0,0.0,0.0,0.0,0.0,0.0,0.0,0.0,0.0,0.0,0.0,0.0,0.0,0.0,0.0,0.0,0.0,0.0,0.0,0.0,0.0,0.0,0.0,0.0,0.0,0.0,0.0,0.0,0.0,0.0,0.0,0.0,0.0,0.0,0.0,0.0,0.0,0.0,0.0,0.0,0.0,0.0,0.0,0.0,0.0,0.0,0.0,0.0,0.0,0.0,0.0,0.0,0.0,0.0,0.0,0.0,-0.6706,-0.7768,-0.8141,-0.8335,-0.833,-0.7545,-0.682,0.0,0.0,0.0,0.0,0.0,0.0,0.0,0.0,0.0,0.0,0.0,0.0,0.0,0.0,0.0,0.0,0.0,0.0,0.0,0.0,0.0,0.0,0.0,0.0,0.0,0.0,0.0,0.0,0.0,0.0,0.0,0.0,0.0,0.0,0.0,0.0,0.0,0.0,0.0,0.0,0.0,0.0,0.0,0.0,0.0,0.0,0.0,0.0,0.5446,0.0,0.0,0.0,0.0,0.0,0.0,0.0,0.0,0.0,0.0,0.0,0.0,0.0,0.0,0.0,0.0,0.0,0.0,0.0,0.0,0.0,0.0,0.0,0.0,0.0,0.0,0.0,0.0,0.0,0.0,0.0,0.0,0.0,0.0,0.0,0.0,0.0,0.0,0.0,0.0,0.0,0.0,0.0,0.0,0.0,0.0,0.0,0.0,0.0,0.0,0.0,0.0,0.0,0.0,0.0,0.0,0.0,0.0,0.0,-0.7051,-0.8056,-0.8382,-0.8543,-0.8519,-0.7834,-0.721,0.0,0.0,0.0,0.0,0.0,0.0,0.0,0.0,0.0,0.0,0.0,0.0,0.0,0.0,0.0,0.0,0.0,0.0,0.0,0.0,0.0,0.0,0.0,0.0,0.0,0.0,0.0,0.0,0.0,0.0,0.0,0.0,0.0,0.0,0.0,0.0,0.0,0.0,0.0,0.0,0.0,0.0,0.0,0.0,0.0,0.0,0.0,0.0,0.0,0.0,0.0,0.0,0.0,0.0,0.0,0.0,0.0,0.0,0.0,0.0,0.0,0.0,0.0,0.0,0.0,0.0,0.0,0.0,0.0,0.0,0.0,0.0,0.0,0.0,0.0,0.0,0.0,0.0,0.0,0.0,0.0,0.0,0.0,0.0,0.0,0.0,0.0,0.0,0.0,0.0,0.0,0.0,0.0,0.0,0.0,0.0,0.0,0.0,0.0,0.0,0.0,0.0,0.0,0.0,0.0,0.0,0.0,-0.6423,-0.7333,-0.8373,-0.86,-0.8703,-0.8694,-0.8203,-0.7602,-0.6857,0.0,0.0,0.0,0.0,0.0,0.0,0.0,0.0,0.0,0.0,0.0,0.0,0.0,0.0,0.0,0.0,0.0,0.0,0.0,0.0,0.0,0.0,0.0,0.0,0.0,0.0,0.0,0.0,0.0,0.0,0.0,0.0,0.0,0.0,0.0,0.0,0.0,0.0,0.4464,0.4796,0.0,0.0,0.0,0.0,0.0,0.0,0.0,0.0,0.5645,0.0,0.0,0.0,0.0,0.0,0.0,0.0,0.0,0.0,0.0,0.0,0.0,0.0,0.0,0.0,0.0,0.0,0.0,0.0,0.0,0.0,0.0,0.0,0.0,0.0,0.0,0.0,0.0,0.0,0.0,0.0,0.0,0.0,0.0,0.0,0.0,0.0,0.0,0.0,0.0,0.0,0.0,0.0,0.0,0.0,0.0,0.0,0.0,0.0,0.0,0.0,0.0,0.0,0.0,0.0,0.0,-0.6552,-0.6931,-0.7531,-0.8377,-0.8595,-0.8703,-0.8689,-0.8558,-0.8015,-0.7169,0.0,0.0,0.0,0.0,0.0,0.0,0.0,0.0,0.0,0.0,0.0,0.0,0.0,0.0,0.0,0.0,0.0,0.0,0.0,0.0,0.0,0.0,0.0,0.0,0.0,0.0,0.0,0.0,0.0,0.0,0.0,0.0,0.0,0.0,0.0,0.0,0.0,0.0,0.0,0.4417,0.455,0.0,0.0,0.0,0.0,0.0,0.0,0.0,0.0,0.5237,0.0,0.0,0.0,0.0,0.0,0.0,0.0,0.0,0.0,0.0,0.0,0.0,0.0,0.0,0.0,0.0,0.0,0.0,0.0,0.0,0.0,0.0,0.0,0.0,0.0,0.0,0.0,0.0,0.0,0.0,0.0,0.0,0.0,0.0,0.0,0.0,0.0,0.0,0.0,0.0,0.0,0.0,0.0,0.0,0.0,0.0,0.0,0.0,0.0,0.0,0.0,0.0,0.0,0.0,0.0,-0.6501,-0.7203,-0.7829,-0.8529,-0.8883,-0.9013,-0.8998,-0.8659,-0.8118,0.0,0.0,0.0,0.0,0.0,0.0,0.0,0.0,0.0,0.0,0.0,0.0,0.0,0.0,0.0,0.0,0.0,0.0,0.0,0.0,0.0,0.0,0.0,0.0,0.0,0.0,0.0,0.0,0.0,0.0,0.0,0.0,0.0,0.0,0.0,0.0,0.0,0.0,0.0,0.0,0.4505,0.4576,0.4476,0.0,0.0,0.0,0.0,0.0,0.0,0.5698,0.5447,0.0,0.0,0.0,0.0,0.0,0.0,0.0,0.0,0.0,0.0,0.0,0.0,0.0,0.0,0.0,0.0,0.0,0.0,0.0,0.0,0.0,0.0,0.0,0.0,0.0,0.0,0.0,0.0,0.0,0.0,0.0,0.0,0.0,0.0,0.0,0.0,0.0,0.0,0.0,0.0,0.0,0.0,0.0,0.0,0.0,0.0,0.0,0.0,0.0,0.0,0.0,0.0,0.0,0.0,0.0,-0.652,-0.7483,-0.8243,-0.8893,-0.9246,-0.9397,-0.9382,-0.896,-0.8255,0.0,0.0,0.0,0.0,0.0,0.0,0.0,0.0,0.0,0.0,0.0,0.0,0.0,0.0,0.0,0.0,0.0,0.0,0.0,0.0,0.0,0.0,0.0,0.0,0.0,0.0,0.0,0.0,0.0,0.0,0.0,0.0,0.0,0.0,0.0,0.0,0.0,0.0,0.0,0.0,0.0,0.4706,0.4271,0.4771,0.0,0.0,0.0,0.0,0.5774,0.5747,0.0,0.0,0.0,0.0,0.0,0.0,0.0,0.0,0.0,0.0,0.0,0.0,0.0,0.0,0.0,0.0,0.0,0.0,0.0,0.0,0.0,0.0,0.0,0.0,0.0,0.0,0.0,0.0,0.0,0.0,0.0,0.0,0.0,0.0,0.0,0.0,0.0,0.0,0.0,0.0,0.0,0.0,0.0,0.0,0.0,0.0,0.0,0.0,0.0,0.0,0.0,0.0,0.0,0.0,0.0,0.0,-0.722,-0.8096,-0.8917,-0.9712,-0.9846,-0.9841,-0.9841,-0.9625,-0.8848,0.0,0.0,0.0,0.0,0.0,0.0,0.0,0.0,0.0,0.0,0.0,0.0,0.0,0.0,0.0,0.0,0.0,0.0,0.0,0.0,0.0,0.0,0.0,0.0,0.0,0.0,0.0,0.0,0.0,0.0,0.0,0.0,0.0,0.0,0.0,0.0,0.0,0.0,0.0,0.0,0.0,0.4747,0.5023,0.5179,0.5349,0.0,0.0,0.5278,0.5137,0.5339,0.0,0.0,0.0,0.0,0.0,0.0,0.0,0.0,0.0,0.0,0.0,0.0,0.0,0.0,0.0,0.0,0.0,0.0,0.0,0.0,0.0,0.0,0.0,0.0,0.0,0.0,0.0,0.0,0.0,0.0,0.0,0.0,0.0,0.0,0.0,0.0,0.0,0.0,0.0,0.0,0.0,0.0,0.0,0.0,0.0,0.0,0.0,0.0,0.0,0.0,0.0,0.0,0.0,0.0,0.0,-0.6334,-0.7418,-0.8392,-0.9227,-0.989,-1.0438,-1.0738,-1.0738,-1.043,-0.9675,0.0,0.0,0.0,0.0,0.0,0.0,0.0,0.0,0.0,0.0,0.0,0.0,0.0,0.0,0.0,0.0,0.0,0.0,0.0,0.0,0.0,0.0,0.0,0.0,0.0,0.0,0.0,0.0,0.0,0.0,0.0,0.0,0.0,0.0,0.0,0.0,0.0,0.0,0.0,0.0,0.0,0.0,0.4433,0.51,0.0,0.0,0.0,0.5699,0.5631,0.0,0.0,0.0,0.0,0.0,0.0,0.0,0.0,0.0,0.0,0.0,0.0,0.0,0.0,0.0,0.0,0.0,0.0,0.0,0.0,0.0,0.0,0.0,0.0,0.0,0.0,0.0,0.0,0.0,0.0,0.0,0.0,0.0,0.0,0.0,0.0,0.0,0.0,0.0,0.0,0.0,0.0,0.0,0.0,0.0,0.0,0.0,0.0,0.0,0.0,0.0,0.0,0.0,0.0,0.0,0.0,0.0,-0.7751,-0.8887,-0.9796,-1.0421,-1.118,-1.1632,-1.1755,-1.1015,0.0,0.0,0.0,0.0,0.0,0.0,0.0,0.0,0.0,0.0,0.0,0.0,0.0,0.0,0.0,0.0,0.0,0.0,0.0,0.0,0.0,0.0,0.0,0.0,0.0,0.0,0.0,0.1143,0.0,0.0,0.0,0.0,0.0,0.0,0.0,0.0,0.0,0.0,0.0,0.0,0.0,0.0,0.4963,0.4004,0.4856,0.5367,0.0,0.0,0.5734,0.5656,0.5281,0.5278,0.0,0.0,0.0,0.0,0.0,0.0,0.0,0.0,0.0,0.0,0.0,0.0,0.0,0.0,0.0,0.0,0.0,0.0,0.0,0.0,0.0,0.0,0.0,0.0,0.0,0.0,0.0,0.0,0.0,0.0,0.0,0.0,0.0,0.0,0.0,0.0,0.0,0.0,0.0,0.0,0.0,0.0,0.0,0.0,0.0,0.0,0.0,0.0,0.0,0.0,0.0,0.0,0.0,0.0,0.0,-0.8711,-0.971,-1.0728,-1.1829,-1.1929,-1.2231,-1.2732,-1.1464,-1.0325,0.0,0.0,0.0,0.0,0.0,0.0,0.0,0.0,0.0,0.0,0.0,0.0,0.0,0.0,0.0,0.0,0.0,0.0,0.0,0.0,0.0,0.0,0.0,0.0,0.0,0.0,0.0,0.0,0.0,0.0,0.0,0.0,0.0,0.0,0.0,0.0,0.0,0.0,0.0,0.0,0.0,0.4635,0.4312,0.4557,0.4535,0.0,0.0,0.493,0.4394,0.4996,0.5516,0.5701,0.0,0.0,0.0,0.0,0.0,0.0,0.0,0.0,0.0,0.0,0.0,0.0,0.0,0.0,0.0,0.0,0.0,0.0,0.0,0.0,0.0,0.0,0.0,0.0,0.0,0.0,0.0,0.0,0.0,0.0,0.0,0.0,0.0,0.0,0.0,0.0,0.0,0.0,0.0,0.0,0.0,0.0,0.0,0.0,0.0,0.0,0.0,0.0,0.0,0.0,0.0,0.0,0.0,-0.8001,-0.9358,-1.0875,-1.2036,-1.2832,-1.3241,-1.3539,-1.377,-1.2772,-1.1733,0.0,0.0,0.0,0.0,0.0,0.0,0.0,0.0,0.0,0.0,0.0,0.0,0.0,0.0,0.0,0.0,0.0,0.0,0.0,0.0,0.0,0.0,0.0,0.0,0.0,0.0,0.0,0.0,0.1093,0.1449,0.1848,0.0,0.0,0.0,0.0,0.0,0.0,0.0,0.0,0.0,0.0,0.4572,0.4147,0.4607,0.0,0.0,0.4707,0.5092,0.4582,0.5038,0.5613,0.6075,0.6458,0.0,0.0,0.0,0.0,0.0,0.0,0.0,0.0,0.0,0.0,0.0,0.0,0.0,0.0,0.0,0.0,0.0,0.0,0.0,0.0,0.0,0.0,0.0,0.0,0.0,0.0,0.0,0.0,0.0,0.0,0.0,0.0,0.0,0.0,0.0,0.0,0.0,0.0,0.0,0.0,0.0,0.0,0.0,0.0,0.0,0.0,0.0,0.0,0.0,0.0,0.0,0.0,-0.8618,-1.0043,-1.1771,-1.2997,-1.3841,-1.4148,-1.4411,-1.453,-1.3568,-1.2656,0.0,0.0,0.0,0.0,0.0,0.0,0.0,0.0,0.0,0.0,0.0,0.0,0.0,0.0,0.0,0.0,0.0,0.0,0.0,0.0,0.0,0.0,0.0,0.0,0.0,0.0,0.0,0.0,0.0838,0.139,0.1923,0.0,0.0,0.0,0.0,0.0,0.0,0.0,0.0,0.0,0.0,0.4331,0.4006,0.4429,0.4675,0.4295,0.4794,0.5045,0.4781,0.5017,0.5412,0.588,0.0,0.0,0.0,0.0,0.0,0.0,0.0,0.0,0.0,0.0,0.0,0.0,0.0,0.0,0.0,0.0,0.0,0.0,0.0,0.0,0.0,0.0,0.0,0.0,0.0,0.0,0.0,-0.7066,0.0,0.0,-0.5944,0.0,0.0,0.0,0.0,0.0,0.0,0.0,0.0,0.0,0.0,0.0,0.0,0.0,0.0,0.0,0.0,0.0,0.0,0.0,0.0,0.0,0.0,-0.9472,-1.087,-1.2318,-1.3621,-1.4709,-1.4509,-1.4584,-1.5099,-1.3801,-1.2737,-1.2042,0.0,0.0,0.0,0.0,0.0,0.0,0.0,0.0,0.0,0.0,0.0,0.0,0.0,0.0,0.0,0.0,0.0,0.0,0.0,0.0,0.0,0.0,0.0,0.0,0.0,0.0,0.0116,0.0692,0.1319,0.0,0.0,0.0,0.0,0.0,0.0,0.0,0.0,0.0,0.0,0.3681,0.3884,0.3824,0.391,0.4182,0.4349,0.4437,0.4586,0.4646,0.4696,0.4806,0.0,0.0,0.0,0.0,0.0,0.0,0.0,0.0,0.0,0.0,0.0,0.0,0.0,0.0,0.0,0.0,0.0,0.0,0.0,0.0,0.0,0.0,0.0,0.0,0.0,0.0,0.0,-1.0348,-0.9683,0.0,0.0,0.0,0.0,0.0,0.0,0.0,0.0,0.0,0.0,0.0,-1.3025,-1.3953,0.0,0.0,0.0,0.0,0.0,0.0,0.0,0.0,0.0,0.0,0.0,0.0,-1.0179,-1.1862,-1.3555,-1.4872,-1.5685,-1.5599,-1.5591,-1.5507,-1.4576,-1.3255,-1.1491,0.0,0.0,0.0,0.0,0.0,0.0,0.0,0.0,0.0,0.0,0.0,0.0,0.0,0.0,0.0,0.0,0.0,0.0,0.0,0.0,0.0,0.0,0.0,0.0,0.0,-0.0483,0.0,0.0,0.0,0.0,0.0,0.0,0.0,0.0,0.0,0.0,0.0,0.3201,0.284,0.3509,0.3993,0.394,0.4048,0.4104,0.0,0.0,0.0,0.0,0.0,0.0,0.0,0.0,0.0,0.0,0.0,0.0,0.0,0.0,0.5608,0.583,0.5811,0.602,0.7011,0.0,0.0,0.0,0.0,0.0,0.0,0.0,0.0,0.0,0.0,0.0,0.0,0.0,0.0,-1.2702,0.0,-1.1545,0.0,0.0,0.0,0.0,0.0,0.0,0.0,0.0,-1.4943,-1.5762,-1.5844,-1.6661,-1.6785,0.0,-1.5742,-1.4122,0.0,0.0,0.0,0.0,0.0,0.0,0.0,0.0,-1.1264,-1.2975,-1.466,-1.5817,-1.6357,-1.6269,-1.6103,-1.5856,-1.507,-1.381,-1.2033,-1.0826,-0.9672,0.0,0.0,0.0,0.0,0.0,0.0,0.0,0.0,0.0,0.0,0.0,0.0,0.0,0.0,0.0,0.0,0.0,0.0,0.0,0.0,0.0,0.0,0.0,-0.0979,0.0,0.0,0.0,0.0,0.0,0.0,0.0,0.0,0.0,0.1529,0.2107,0.2347,0.1986,0.2573,0.3077,0.3035,0.0,0.0,0.0,0.0,0.0,0.0,0.0,0.5104,0.5312,0.5594,0.5898,0.6232,0.6122,0.5855,0.5869,0.0,0.0,0.5759,0.5684,0.6017,0.7486,0.7948,0.8543,0.9802,1.0121,1.0019,0.0,0.0,0.0,0.0,0.0,0.0,0.0,0.0,-1.5615,-1.5172,0.0,-1.3612,0.0,0.0,0.0,0.0,0.0,-1.3879,0.0,0.0,-1.7797,-1.8742,-1.8788,-1.9136,-1.9136,-1.8806,-1.8716,-1.7943,-1.6428,-1.3058,0.0,0.0,0.0,0.0,0.0,0.0,-1.281,-1.4091,-1.5496,-1.6373,-1.6698,-1.6397,-1.6214,-1.615,-1.5189,-1.4323,-1.3541,-1.2067,-1.0752,-0.9549,-0.7965,0.0,0.0,0.0,0.0,0.0,0.0,0.0,0.0,0.0,0.0,0.0,0.0,0.0,0.0,0.0,0.0,0.0,0.0,0.0,0.0,-0.141,0.0,0.0,0.0,0.0,0.0,0.0,0.0,0.0,0.0,0.0,0.1101,0.1039,0.0801,0.0671,0.0,0.0,0.0,0.0,0.186,0.303,0.3179,0.3506,0.48,0.4802,0.468,0.4598,0.0,0.0,0.5422,0.5196,0.5174,0.5869,0.5489,0.5245,0.5586,0.5672,0.6234,0.7743,0.8461,0.9285,1.0564,1.0874,1.1031,-2.1943,0.0,0.0,0.0,0.0,-1.9002,-1.9489,-2.0535,-1.993,-1.9163,-1.8408,-1.7863,0.0,0.0,0.0,0.0,0.0,0.0,-1.7177,-1.7971,-1.8788,-1.9439,-1.9998,-2.0118,-2.0108,-1.9998,-1.967,-1.9352,-1.8852,-1.7325,-1.4725,-1.1358,0.0,0.0,0.0,0.0,-1.4379,-1.5769,-1.6418,-1.6861,-1.7229,-1.6798,-1.6341,-1.584,-1.5308,-1.4472,-1.3362,-1.3055,-1.2037,-1.0134,-0.9085,0.0,0.0,0.0,0.0,0.0,0.0,0.0,0.0,0.0,0.0,0.0,0.0,0.0,0.0,0.0,0.0,0.0,0.0,0.0,-0.1522,-0.153,-0.1495,0.0,0.0,0.0,0.0,0.0,0.0,0.0,0.0,0.0,-0.0663,-0.0,0.0614,0.0,0.0,0.1397,0.2353,0.1792,0.1417,0.1807,0.2555,0.0,0.3581,0.4102,0.4564,0.467,0.4685,0.4839,0.4979,0.5118,0.5136,0.5366,0.5289,0.5298,0.5543,0.5507,0.5906,0.717,0.768,0.8128,0.9234,1.0162,1.095,-2.6431,-2.4411,-2.2536,-2.2076,-2.2529,-2.204,-2.2475,-2.3474,-2.2839,-2.2227,-2.1769,-2.0798,-1.9464,-1.7898,-1.6764,0.0,0.0,0.0,-1.8733,-1.9668,-1.9907,-2.0374,-2.097,-2.1007,-2.0998,-2.0979,-2.0594,-2.0393,-2.0383,-1.9742,-1.785,-1.4784,0.0,0.0,-1.3848,-1.4866,-1.6088,-1.7346,-1.7522,-1.7619,-1.7845,-1.7294,-1.671,-1.6215,-1.5631,-1.4969,-1.4053,-1.3431,-1.246,-1.1104,-0.994,-0.8597,0.0,0.0,0.0,0.0,0.0,0.0,0.0,0.0,0.0,0.0,0.0,-0.2528,-0.1763,0.0,0.0,0.0,-0.2546,-0.2419,-0.2069,-0.2259,0.0,0.0,0.0,0.0,0.0,0.0,0.0,-0.0575,-0.1388,-0.1989,-0.213,-0.1496,-0.0945,-0.048,-0.0287,0.0096,0.0874,0.0,0.029,0.0681,0.1363,0.1946,0.2336,0.3278,0.4151,0.464,0.48,0.4832,0.4834,0.4935,0.5037,0.5037,0.5037,0.5138,0.5336,0.5331,0.5746,0.713,0.7473,0.7858,0.8958,0.9759,1.0446,-3.0086,-2.9738,-2.6042,-2.4516,-2.4565,-2.4576,-2.4747,-2.5027,-2.458,-2.4525,-2.448,-2.2654,-2.15,-2.0924,-1.8769,0.0,-1.8926,-1.932,-2.009,-2.1154,-2.1154,-2.1365,-2.1731,-2.1731,-2.1731,-2.1722,-2.1346,-2.1154,-2.1135,-2.0787,-2.0035,-1.8907,-1.7569,-1.6776,-1.6732,-1.7133,-1.7813,-1.8797,-1.8797,-1.8697,-1.8588,-1.7853,-1.7235,-1.6806,-1.6081,-1.5507,-1.5059,-1.3475,-1.243,-1.203,-1.0477,-0.9071,-0.7835,0.0,0.0,0.0,0.0,0.0,0.0,0.0,0.0,0.0,0.0,0.0,0.0,0.0,0.0,0.0,-0.4362,0.0,-0.2913,-0.3398,0.0,0.0,0.0,-0.1428,-0.1506,-0.1684,-0.1849,-0.1709,0.0,0.0,-0.3147,-0.3195,-0.3108,-0.2759,-0.2324,-0.1942,-0.1912,-0.1692,-0.1287,-0.0301,-0.0101,0.0302,0.1305,0.2509,0.351,0.4422,0.4732,0.4832,0.4832,0.4834,0.4834,0.4834,0.4832,0.4834,0.5138,0.5222,0.5639,0.7012,0.7511,0.7949,0.8856,0.9284,0.9579,-3.0086,-3.0013,-2.9104,-2.8452,-2.8042,-2.7708,-2.7406,-2.7082,-2.63,-2.5992,-2.5926,-2.4221,-2.2747,-2.138,-2.0568,-2.0356,-2.0558,-2.097,-2.1319,-2.1575,-2.1585,-2.164,-2.1731,-2.1731,-2.1731,-2.1731,-2.163,-2.1585,-2.1585,-2.1493,-2.1145,-2.0549,-2.0172,-1.9379,-1.8257,-1.89,-1.9534,-2.0039,-1.9778,-1.93,-1.8588,-1.8087,-1.7359,-1.6442,-1.5952,-1.5229,-1.4202,-1.3846,-1.2979,-1.1498,-1.1057,-1.0085,-0.8519,-0.7425,0.0,0.0,0.0,0.0,0.0,0.0,0.0,0.0,0.0,-0.4947,-0.3558,0.0,-0.5183,0.0,-0.4934,-0.4696,-0.4126,-0.392,0.0,0.0,-0.3655,-0.3606,-0.3888,-0.3557,-0.3327,-0.3345,-0.321,-0.3158,-0.3203,-0.3222,-0.3225,-0.311,-0.2796,-0.2198,-0.131,-0.171,-0.2008,-0.1513,-0.0807,-0.0101,0.0403,0.2015,0.3222,0.3525,0.423,0.4832,0.4832,0.4832,0.4832,0.4832,0.4832,0.4834,0.4935,0.5037,0.534,0.5739,0.6116,0.6501,0.683,0.7627,0.8421,-3.0795,-3.0783,-3.0795,-3.0482,-2.9989,-2.9487,-2.9142,-2.8822,-2.8374,-2.8128,-2.8023,-2.6196,-2.4409,-2.2864,-2.2475,-2.2149,-2.1839,-2.2073,-2.2008,-2.1731,-2.1731,-2.1731,-2.1731,-2.1731,-2.1731,-2.1731,-2.1731,-2.1731,-2.1731,-2.1731,-2.1621,-2.1392,-2.1383,-2.0943,-2.0108,-2.0328,-2.0649,-2.1053,-2.0612,-2.0153,-1.9441,-1.8674,-1.7876,-1.7103,-1.6219,-1.5276,-1.4448,-1.3962,-1.3115,-1.1888,-1.1247,-1.0461,-0.9277,-0.8387,-0.7692,0.0,0.0,0.0,0.0,0.0,0.0,0.0,0.0,0.0,0.0,0.0,-0.6216,-0.5863,-0.6409,-0.6522,-0.5921,-0.589,-0.5741,-0.5292,-0.5102,-0.4952,-0.4703,-0.4428,-0.417,-0.3959,-0.3674,-0.3391,-0.3226,-0.3253,-0.326,-0.3236,-0.3174,-0.2776,-0.1923,-0.2118,-0.2322,-0.212,-0.1715,-0.1008,-0.0302,0.0907,0.1914,0.2418,0.3324,0.413,0.413,0.4531,0.4832,0.4832,0.4832,0.4832,0.4834,0.4935,0.5037,0.5037,0.534,0.5741,0.5942,0.6637,0.7129,-3.1829,-3.1769,-3.1769,-3.1468,-3.0939,-3.0494,-3.0206,-3.0086,-3.0001,-2.9917,-2.9701,-2.7793,-2.6066,-2.4588,-2.4058,-2.3427,-2.2792,-2.2792,-2.241,-2.1741,-2.1731,-2.1731,-2.1731,-2.1731,-2.1731,-2.1731,-2.1731,-2.1731,-2.1731,-2.1731,-2.1731,-2.1731,-2.1731,-2.1731,-2.1713,-2.1365,-2.1374,-2.1731,-2.1374,-2.0989,-2.0519,-1.9274,-1.8451,-1.8023,-1.6509,-1.5523,-1.5181,-1.4037,-1.3123,-1.2671,-1.1526,-1.0702,-1.0159,-0.9524,-0.8813,0.0,-0.7752,0.0,0.0,0.0,0.0,0.0,0.0,0.0,0.0,-0.7297,-0.7155,-0.6937,-0.8229,-0.8613,-0.7632,-0.8042,-0.7926,-0.6744,-0.62,-0.5689,-0.5012,-0.4885,-0.474,-0.4248,-0.4149,-0.3848,-0.3461,-0.3301,-0.3312,-0.3278,-0.3342,-0.326,-0.2869,-0.2641,-0.2533,-0.2424,-0.2422,-0.1816,-0.0908,-0.0202,0.0405,0.1312,0.2325,0.3029,0.3225,0.3939,0.4647,0.4742,0.4861,0.4873,0.4855,0.4855,0.4853,0.4859,0.505,0.534,0.5741,0.5939,0.6042,-3.2743,-3.2346,-3.2346,-3.2022,-3.1517,-3.1408,-3.0879,-3.0086,-2.9737,-2.9032,-2.8124,-2.7327,-2.6271,-2.5037,-2.415,-2.3347,-2.2762,-2.2762,-2.2314,-2.1731,-2.1731,-2.1731,-2.1731,-2.1731,-2.1731,-2.1731,-2.1731,-2.1731,-2.1731,-2.1731,-2.1731,-2.1731,-2.1731,-2.1731,-2.1731,0.0,0.0,0.0,-2.1658,-2.1253,-2.041,-1.9565,-1.8549,-1.7571,-1.6361,0.0,-1.5189,-1.4623,-1.4109,-1.3663,-1.2678,0.0,0.0,0.0,0.0,0.0,0.0,0.0,0.0,0.0,0.0,0.0,-0.8506,-0.8342,-0.8192,-0.8913,-0.9275,-0.9046,-0.9296,-0.8972,-0.7998,-0.7729,-0.7347,-0.652,-0.6333,-0.6203,-0.6106,-0.5724,-0.5466,-0.5449,-0.4639,-0.4045,-0.41,-0.3705,-0.339,-0.3376,-0.3398,-0.3403,-0.3273,-0.3229,-0.2979,-0.2734,-0.2431,-0.2023,-0.1718,-0.0818,-0.0103,0.0406,0.1225,0.2148,0.2939,0.3373,0.3992,0.4558,0.4957,0.5026,0.4961,0.4947,0.4947,0.4945,0.489,0.4935,0.5238,0.5539,0.5737,-3.314,0.0,-3.2887,-3.2719,0.0,-3.2466,-3.2022,-3.1264,-3.0715,-3.0095,-2.9219,-2.8254,-2.7579,-2.7239,-2.6024,-2.5007,-2.4244,-2.3981,-2.3338,-2.2346,-2.2337,-2.2226,-2.2025,-2.2025,-2.1924,-2.1741,-2.1731,-2.1731,-2.1731,-2.1731,-2.1731,-2.1731,-2.1731,-2.1731,-2.1731,-2.1731,-2.1731,-2.1731,-2.1731,-2.1364,-2.0704,-1.9887,-1.8897,-1.7763,-1.6718,0.0,0.0,0.0,0.0,0.0,0.0,0.0,0.0,0.0,0.0,-1.0292,-1.0036,-0.9654,-0.9229,-0.9289,-0.9431,-0.9606,-0.9833,-0.9729,-0.9209,-0.9838,-1.0263,-1.0272,-1.0181,-1.0068,-0.9596,-0.9083,-0.8409,-0.7632,-0.7253,-0.6931,-0.6532,-0.6274,-0.6125,-0.586,-0.5143,-0.4534,-0.4362,-0.3759,-0.344,-0.3422,-0.3463,-0.3476,-0.3422,-0.3386,-0.3248,-0.3117,-0.2802,-0.2491,-0.2286,-0.1671,-0.0943,-0.0728,-0.0,0.0836,0.1451,0.2609,0.3556,0.4048,0.4628,0.5088,0.5053,0.5039,0.5041,0.5037,0.5002,0.4969,0.5171,0.5306,0.5438,-3.3501,-3.3416,-3.3428,-3.338,-3.3284,-3.3284,-3.3044,-3.2599,0.0,0.0,0.0,-2.9329,-2.8835,-2.8866,-2.7455,-2.6414,-2.5513,-2.5045,-2.4195,-2.2866,-2.2866,-2.2767,-2.2437,-2.2437,-2.2272,-2.187,-2.1878,-2.1832,-2.1841,-2.1768,-2.1731,-2.1731,-2.1731,-2.1731,-2.1731,-2.1731,-2.1731,-2.1731,-2.1651,-2.1365,-2.0898,-2.0093,-1.9166,-1.8041,-1.7207,-1.6555,-1.5983,-1.5697,-1.5318,-1.4766,-1.4358,-1.3791,-1.3033,-1.2694,-1.2293,-1.1804,-1.1815,-1.1444,-1.0778,-1.0763,-1.0741,-1.0515,-1.0754,-1.0716,-1.0248,-1.0461,-1.0754,-1.0934,-1.0948,-1.0922,-1.0984,-1.0448,-0.9768,-0.8969,-0.8407,-0.7779,-0.717,-0.7046,-0.6901,-0.6401,-0.5769,-0.5141,-0.4732,-0.4137,-0.3605,-0.3576,-0.3633,-0.3556,-0.3466,-0.3425,-0.3406,-0.3295,-0.3077,-0.2873,-0.2664,-0.2458,-0.2138,-0.1807,-0.1066,-0.0534,-0.0,0.1386,0.2561,0.2971,0.395,0.4612,0.4815,0.4917,0.513,0.5132,0.5118,0.5106,0.5094,0.5097,0.5304,-3.4354,-3.3933,-3.3933,-3.3681,-3.3284,-3.3284,-3.3248,-3.3092,-3.2106,-3.1158,-3.0247,-2.8962,-2.791,-2.7108,-2.5796,-2.4842,-2.4231,-2.4126,-2.3653,-2.2866,-2.2866,-2.2829,-2.2765,-2.2774,-2.2747,-2.2665,-2.2419,-2.2245,-2.2208,-2.1906,-2.1731,-2.1731,-2.1731,-2.1731,-2.1731,-2.1731,-2.1731,-2.1731,-2.1275,-2.0907,-2.0374,-1.9558,-1.8879,-1.8314,-1.7618,-1.7167,-1.7056,-1.6992,-1.6643,-1.5859,-1.5394,-1.505,-1.4909,-1.3484,-1.289,-1.3355,-1.2757,-1.2218,-1.2136,-1.1736,-1.1417,-1.1139,-1.1123,-1.1038,-1.0801,-1.0972,-1.1118,-1.1151,-1.1151,-1.0867,-1.0323,-1.0258,-0.9944,-0.9244,-0.9179,-0.9071,-0.8863,-0.8262,-0.7905,-0.7794,-0.6737,-0.6016,-0.5859,-0.5004,-0.4342,-0.4229,-0.3904,-0.3578,-0.3546,-0.3474,-0.3418,-0.3305,-0.3199,-0.2984,-0.2892,-0.2701,-0.2491,-0.2457,-0.2269,-0.1735,-0.075,-0.0,0.0757,0.16,0.2829,0.374,0.3816,0.4568,0.5005,0.5112,0.5177,0.5126,0.5128,0.5094,0.5174,-3.4691,-3.4475,-3.4475,-3.433,-3.4114,-3.3813,-3.3693,-3.3527,-3.2194,-3.1607,-3.1246,-2.9678,-2.8702,-2.8319,-2.701,-2.5856,-2.4987,-2.4822,-2.4244,-2.3611,-2.3611,-2.3483,-2.3195,-2.3272,-2.3162,-2.2951,-2.2767,-2.2547,-2.2327,-2.2135,-2.1951,-2.175,-2.1731,-2.1731,-2.1731,-2.1731,-2.1731,-2.1731,-2.1266,-2.0826,-2.0292,-1.9669,-1.9036,-1.8303,-1.7977,-1.7731,-1.7556,-1.754,-1.7368,-1.7008,-1.6827,-1.6307,-1.5521,-1.4697,-1.4099,-1.368,-1.3393,-1.3088,-1.2808,-1.2215,-1.1778,-1.1678,-1.1389,-1.1156,-1.1066,-1.1146,-1.1194,-1.1198,-1.1298,-1.1269,-1.078,-1.0641,-1.0343,-0.9923,-0.9665,-0.9338,-0.8817,-0.8568,-0.8202,-0.7716,-0.6853,-0.6212,-0.6258,-0.5483,-0.4815,-0.4592,-0.3923,-0.3587,-0.3587,-0.3544,-0.3507,-0.3508,-0.3397,-0.3287,-0.3068,-0.2976,-0.2871,-0.2633,-0.2647,-0.2431,-0.1646,-0.1103,-0.022,0.0329,0.1663,0.2785,0.3319,0.3981,0.4538,0.5204,0.5292,0.5259,0.5255,0.5257,0.522,-3.4931,-3.4823,-3.4823,-3.4823,-3.4787,-3.4402,-3.4222,-3.4066,-3.2769,-3.2242,-3.2123,-3.0097,-2.897,-2.8844,-2.7536,-2.6436,-2.5654,-2.5187,-2.4726,-2.4251,-2.4161,-2.3978,-2.3703,-2.3675,-2.3519,-2.3244,-2.3134,-2.2914,-2.2612,-2.2419,-2.2116,-2.1777,-2.1731,-2.1731,-2.1731,-2.1731,-2.1731,-2.1642,-2.1096,-2.0637,-2.0292,-1.9737,-1.905,-1.8446,-1.8422,-1.8287,-1.8025,-1.8009,-1.7913,-1.7825,-1.7736,-1.7285,-1.6131,-1.577,-1.5137,-1.4251,-1.4068,-1.3708,-1.3242,-1.2555,-1.2175,-1.198,-1.1487,-1.1194,-1.1198,-1.1241,-1.1269,-1.1283,-1.1416,-1.1524,-1.1494,-1.1259,-1.0954,-1.0858,-1.0482,-0.9935,-0.9085,-0.8852,-0.8481,-0.7598,-0.693,-0.6482,-0.6374,-0.5929,-0.5371,-0.4592,-0.4035,-0.3587,-0.3587,-0.3587,-0.3587,-0.3587,-0.3587,-0.3469,-0.325,-0.3248,-0.3135,-0.2918,-0.2914,-0.2911,-0.2573,-0.1678,-0.0895,-0.0447,0.0782,0.1902,0.3021,0.3802,0.425,0.4808,0.5137,0.5371,0.5365,0.5367,0.5339,-3.5268,-3.4859,-3.4835,-3.4823,-3.4811,-3.4751,-3.4727,-3.4582,-3.3995,-3.3254,-3.2202,-2.9084,-2.7276,-2.624,-2.5398,-2.4843,-2.4735,-2.444,-2.4251,-2.4251,-2.4161,-2.4134,-2.4079,-2.4088,-2.4079,-2.3969,-2.3657,-2.3446,-2.3318,-2.2676,-2.2135,-2.1777,-2.1731,-2.175,-2.1741,-2.1741,-2.1731,-2.1651,-2.0835,-2.0382,-2.0292,-1.9379,-1.8804,-1.878,-1.8772,-1.8772,-1.8684,-1.8732,-1.8441,-1.7787,-1.7772,-1.768,-1.7394,-1.6188,-1.5732,-1.6101,-1.4994,-1.4076,-1.3499,-1.3044,-1.2565,-1.1975,-1.1497,-1.1208,-1.1212,-1.1378,-1.1491,-1.151,-1.152,-1.1624,-1.1775,-1.1882,-1.1894,-1.1903,-1.1953,-1.1755,-1.0874,-1.012,-0.9361,-0.8484,-0.7595,-0.7154,-0.7043,-0.6485,-0.5706,-0.4702,-0.4145,-0.3699,-0.3589,-0.3595,-0.3597,-0.3593,-0.359,-0.3591,-0.3478,-0.3587,-0.3475,-0.3477,-0.3477,-0.3363,-0.3026,-0.2801,-0.2464,-0.1119,0.0336,0.1343,0.2351,0.3473,0.4706,0.448,0.4819,0.5382,0.5382,0.5382,0.5359,-3.5773,-3.5304,-3.5292,-3.5112,-3.4847,-3.4823,-3.4823,-3.4702,-3.3903,-3.3296,-3.2503,-2.9874,-2.8055,-2.7192,-2.6061,-2.5381,-2.4883,-2.4452,-2.4161,-2.4161,-2.4161,-2.4161,-2.4161,-2.4161,-2.4161,-2.4152,-2.3987,-2.3776,-2.3483,-2.2969,-2.2612,-2.2354,-2.2217,-2.2089,-2.2071,-2.186,-2.1731,-2.1651,-2.0744,-2.0292,-2.0201,-1.9279,-1.8827,-1.8827,-1.8827,-1.8827,-1.8827,-1.8827,-1.8635,-1.8357,-1.8357,-1.8164,-1.7692,-1.7124,-1.6473,-1.5913,-1.4867,-1.4202,-1.4016,-1.3534,-1.2958,-1.2467,-1.2107,-1.1781,-1.1392,-1.1576,-1.1742,-1.1865,-1.1883,-1.1926,-1.2011,-1.2195,-1.2318,-1.2328,-1.2394,-1.2001,-1.1236,-1.0798,-1.0021,-0.8706,-0.8152,-0.7709,-0.7265,-0.6707,-0.5929,-0.5148,-0.4482,-0.4041,-0.3702,-0.3616,-0.3639,-0.3646,-0.3669,-0.3658,-0.3609,-0.3587,-0.3587,-0.3587,-0.3587,-0.3475,-0.3475,-0.3138,-0.2801,-0.2016,-0.0672,0.056,0.1455,0.2911,0.4255,0.4367,0.4819,0.5382,0.5382,0.5382,0.5382,-3.6314,-3.5845,-3.5689,-3.5316,-3.4835,-3.4823,-3.4823,-3.4726,-3.3918,-3.3499,-3.2955,-3.09,-2.9463,-2.8482,-2.695,-2.5963,-2.5226,-2.4646,-2.4253,-2.417,-2.4161,-2.4161,-2.4161,-2.4161,-2.4161,-2.4161,-2.4152,-2.3941,-2.3556,-2.3185,-2.307,-2.2829,-2.2648,-2.2437,-2.23,-2.2025,-2.1752,-2.1472,-2.0645,-2.0201,-2.0019,-1.9279,-1.8827,-1.8827,-1.8827,-1.8827,-1.8827,-1.8827,-1.8827,-1.8827,-1.8643,-1.8357,-1.7978,-1.7598,-1.685,-1.5527,-1.4675,-1.4298,-1.4298,-1.3823,-1.3277,-1.2861,-1.2532,-1.2143,-1.1725,-1.1789,-1.1968,-1.2101,-1.2186,-1.2214,-1.2238,-1.2351,-1.2432,-1.2436,-1.2436,-1.2001,-1.124,-1.1131,-1.0464,-0.9144,-0.8592,-0.8152,-0.7379,-0.6738,-0.6088,-0.5416,-0.4872,-0.4315,-0.3868,-0.3676,-0.3702,-0.3704,-0.3741,-0.3721,-0.3635,-0.3617,-0.3609,-0.3589,-0.3587,-0.3587,-0.3587,-0.3362,-0.2801,-0.2016,-0.1231,-0.0112,0.1119,0.2573,0.403,0.4931,0.5382,0.5382,0.5382,0.5382,0.5382,-3.6843,-3.6338,-3.5821,-3.5328,-3.4835,-3.4823,-3.4823,-3.4823,-3.4714,-3.4115,-3.3212,-3.205,-3.0906,-2.9652,-2.7418,-2.6047,-2.5522,-2.508,-2.4556,-2.4225,-2.418,-2.4161,-2.4161,-2.4161,-2.4161,-2.4161,-2.4152,-2.396,-2.3584,-2.3529,-2.3231,-2.2893,-2.2857,-2.2731,-2.2437,-2.2337,-2.1835,-2.1203,-2.0607,-2.0127,-1.9654,-1.9112,-1.8827,-1.8827,-1.8827,-1.8827,-1.8827,-1.8827,-1.8827,-1.8827,-1.8164,-1.8071,-1.8542,-1.7419,-1.6292,-1.5432,-1.4675,-1.4304,-1.422,-1.3846,-1.3453,-1.305,-1.273,-1.2203,-1.1798,-1.2002,-1.2129,-1.2148,-1.2313,-1.2403,-1.2403,-1.2417,-1.2436,-1.2436,-1.2436,-1.2001,-1.1236,-1.1236,-1.0688,-0.9801,-0.9044,-0.8285,-0.739,-0.6694,-0.6289,-0.5631,-0.5111,-0.4566,-0.4094,-0.3873,-0.3764,-0.3767,-0.377,-0.3751,-0.3691,-0.3674,-0.365,-0.3634,-0.3628,-0.3602,-0.3591,-0.3475,-0.2691,-0.2017,-0.1344,-0.0336,0.1007,0.2462,0.3918,0.4819,0.527,0.5382,0.5382,0.5382,0.5382,-3.7397,-3.6831,-3.5978,-3.5509,-3.5316,-3.498,-3.4823,-3.4823,-3.4823,-3.4628,-3.4115,-3.3101,-3.1982,-3.0938,-2.9166,-2.7549,-2.6361,-2.5694,-2.5154,-2.4592,-2.4556,-2.4418,-2.417,-2.4161,-2.4161,-2.4161,-2.4161,-2.4079,-2.396,-2.3932,-2.3859,-2.3703,-2.3455,-2.3244,-2.3088,-2.285,-2.236,-2.1724,-2.1049,-2.0458,-1.9876,-1.9217,-1.8827,-1.8827,-1.8827,-1.8827,-1.8827,-1.8827,-1.8827,-1.8827,-1.8542,-1.8265,-1.7978,-1.6669,-1.5724,-1.5343,-1.4675,-1.4377,-1.4539,-1.4374,-1.3987,-1.3409,-1.327,-1.2858,-1.2245,-1.2205,-1.2332,-1.2346,-1.2384,-1.2436,-1.2436,-1.2436,-1.2436,-1.2436,-1.2436,-1.2219,-1.2005,-1.1891,-1.1564,-1.07,-0.9557,-0.8511,-0.8085,-0.7603,-0.6869,-0.6297,-0.5627,-0.5061,-0.4483,-0.4154,-0.3827,-0.3834,-0.3858,-0.3865,-0.3805,-0.3758,-0.3728,-0.3718,-0.3709,-0.3706,-0.3699,-0.3658,-0.308,-0.2846,-0.204,-0.1127,0.0113,0.1916,0.3379,0.4729,0.5182,0.5308,0.5382,0.5406,0.54,-3.7673,-3.7108,-3.6423,-3.6014,-3.5821,-3.5304,-3.5088,-3.5052,-3.4907,-3.4823,-3.4617,-3.3709,-3.2789,-3.1869,-3.0317,-2.8941,-2.7497,-2.6475,-2.5665,-2.5098,-2.508,-2.4821,-2.4565,-2.4418,-2.4354,-2.4335,-2.4306,-2.4161,-2.4161,-2.4161,-2.4161,-2.4125,-2.3868,-2.3657,-2.3519,-2.3176,-2.2804,-2.2141,-2.1431,-2.084,-2.0248,-1.9571,-1.9169,-1.9145,-1.9066,-1.8947,-1.8835,-1.8827,-1.8827,-1.8735,-1.855,-1.8071,-1.7326,-1.6379,-1.5668,-1.546,-1.4818,-1.4552,-1.4793,-1.4841,-1.4548,-1.3962,-1.3822,-1.3425,-1.2554,-1.2469,-1.2427,-1.2436,-1.2436,-1.2436,-1.2455,-1.2502,-1.2517,-1.246,-1.2436,-1.2436,-1.2441,-1.2502,-1.2137,-1.1329,-1.0408,-0.9557,-0.8899,-0.832,-0.7679,-0.6749,-0.6061,-0.5491,-0.4906,-0.4338,-0.3888,-0.3892,-0.3918,-0.3921,-0.389,-0.3852,-0.379,-0.3771,-0.3763,-0.3774,-0.3774,-0.3734,-0.3709,-0.3468,-0.2875,-0.2055,-0.0568,0.1249,0.284,0.4318,0.5032,0.506,0.5254,0.5447,0.5447,-3.7685,-3.7252,-3.718,-3.6819,-3.6362,-3.5785,-3.5593,-3.5473,-3.5028,-3.4823,-3.4628,-3.3709,-3.33,-3.2689,-3.0938,-2.9597,-2.875,-2.717,-2.6178,-2.5711,-2.5476,-2.5344,-2.5243,-2.4922,-2.4748,-2.4711,-2.4363,-2.4279,-2.4161,-2.4161,-2.4161,-2.4251,-2.4134,-2.3923,-2.3574,-2.345,-2.3066,-2.2336,-2.1735,-2.123,-2.066,-2.0103,-1.9765,-1.9757,-1.9519,-1.9225,-1.8899,-1.8851,-1.8827,-1.8727,-1.8164,-1.7419,-1.6892,-1.6529,-1.6348,-1.5823,-1.5097,-1.4847,-1.5065,-1.5113,-1.4915,-1.4514,-1.4146,-1.362,-1.3239,-1.2644,-1.2436,-1.2436,-1.246,-1.2465,-1.2498,-1.2649,-1.2687,-1.2498,-1.2498,-1.2517,-1.2531,-1.2649,-1.2501,-1.1955,-1.1434,-1.087,-0.9634,-0.9036,-0.8402,-0.735,-0.6436,-0.575,-0.5134,-0.4537,-0.4066,-0.3944,-0.3946,-0.3939,-0.3944,-0.394,-0.3871,-0.3815,-0.3805,-0.3805,-0.3812,-0.3788,-0.3774,-0.3646,-0.3506,-0.2669,-0.1273,0.0463,0.1739,0.3136,0.3854,0.4671,0.5111,0.5309,0.5406,-3.7878,-3.7685,-3.7336,-3.7108,-3.6831,-3.6002,-3.5617,-3.5569,-3.5064,-3.4823,-3.4726,-3.4421,-3.3906,-3.3001,-3.1677,-3.0432,-2.9272,-2.7796,-2.6695,-2.6042,-2.5881,-2.5637,-2.5399,-2.5252,-2.5041,-2.4803,-2.4656,-2.4427,-2.4207,-2.4161,-2.4161,-2.4161,-2.4161,-2.4097,-2.395,-2.395,-2.3573,-2.2957,-2.2203,-2.1595,-2.0991,-2.0289,-1.9868,-1.9852,-1.9757,-1.9646,-1.9526,-1.909,-1.8843,-1.8843,-1.8542,-1.8178,-1.7604,-1.6697,-1.6162,-1.6117,-1.5482,-1.5101,-1.533,-1.5384,-1.5279,-1.4858,-1.4377,-1.3879,-1.33,-1.2767,-1.2436,-1.2455,-1.2569,-1.2663,-1.2701,-1.2847,-1.2876,-1.2691,-1.2786,-1.2852,-1.2862,-1.2923,-1.2875,-1.2717,-1.2138,-1.162,-1.0954,-1.0245,-0.9131,-0.8412,-0.7355,-0.6274,-0.5661,-0.4926,-0.4438,-0.4073,-0.395,-0.395,-0.395,-0.395,-0.3916,-0.3876,-0.3865,-0.3856,-0.3857,-0.385,-0.3838,-0.3824,-0.3683,-0.3076,-0.177,-0.0707,0.0591,0.1768,0.2708,0.3647,0.4586,0.4927,0.4909,-3.7974,-3.7938,-3.7625,-3.7493,-3.7397,-3.6543,-3.6086,-3.5845,-3.5352,-3.5016,-3.4762,-3.4323,-3.3808,-3.3001,-3.1677,-3.0432,-2.9282,-2.7941,-2.6967,-2.6332,-2.6197,-2.605,-2.5803,-2.5647,-2.5381,-2.5032,-2.4858,-2.4647,-2.44,-2.4334,-2.4161,-2.4161,-2.4161,-2.4152,-2.4161,-2.4152,-2.3945,-2.3294,-2.2585,-2.1968,-2.1337,-2.0668,-2.0249,-2.0241,-2.013,-2.0067,-2.0019,-1.9503,-1.9217,-1.9217,-1.9217,-1.8941,-1.8349,-1.7497,-1.6943,-1.6787,-1.6278,-1.5875,-1.6118,-1.5854,-1.5593,-1.5215,-1.46,-1.4062,-1.3527,-1.298,-1.2436,-1.2465,-1.263,-1.2767,-1.28,-1.3032,-1.3102,-1.3017,-1.3022,-1.3107,-1.3154,-1.3188,-1.324,-1.3194,-1.2822,-1.2399,-1.1733,-1.082,-0.9697,-0.9214,-0.7989,-0.6641,-0.6029,-0.5295,-0.4684,-0.4195,-0.395,-0.395,-0.395,-0.395,-0.395,-0.394,-0.3932,-0.3922,-0.3918,-0.3906,-0.3894,-0.3891,-0.3753,-0.3751,-0.2655,-0.2047,-0.1083,0.012,0.1431,0.2519,0.349,0.4173,0.4392,-3.7974,-3.7974,-3.7974,-3.7938,-3.7866,-3.7324,-3.6783,-3.6338,-3.5809,-3.5182,-3.4504,-3.3709,-3.3201,-3.2588,-3.0949,-2.9713,-2.8986,-2.795,-2.7098,-2.6645,-2.6536,-2.6481,-2.6408,-2.6133,-2.5793,-2.5399,-2.5078,-2.4858,-2.4702,-2.4409,-2.417,-2.4161,-2.4161,-2.4161,-2.4161,-2.4161,-2.3945,-2.3329,-2.2802,-2.219,-2.1684,-2.1175,-2.0869,-2.0845,-2.0575,-2.0424,-2.0369,-2.0098,-1.9892,-1.986,-1.9773,-1.9497,-1.8988,-1.8716,-1.8353,-1.8034,-1.736,-1.6977,-1.6864,-1.6262,-1.5861,-1.5773,-1.4922,-1.4277,-1.4169,-1.3197,-1.2569,-1.2607,-1.2793,-1.2814,-1.2904,-1.3169,-1.3367,-1.3377,-1.3268,-1.3254,-1.3377,-1.3405,-1.3462,-1.3599,-1.3679,-1.3315,-1.2449,-1.1503,-1.0543,-0.9579,-0.8233,-0.7253,-0.6151,-0.554,-0.4805,-0.4316,-0.4071,-0.395,-0.395,-0.395,-0.395,-0.395,-0.395,-0.395,-0.395,-0.394,-0.3935,-0.3933,-0.3932,-0.3815,-0.3689,-0.2936,-0.232,-0.134,-0.0,0.1353,0.2328,0.315,0.3979,-3.7974,-3.7974,-3.7974,-3.7974,-3.7902,-3.7421,-3.6892,-3.6374,-3.5857,-3.4944,-3.3802,-3.33,-3.27,-3.188,-3.0535,-2.9608,-2.887,-2.795,-2.7107,-2.6691,-2.6591,-2.6591,-2.6582,-2.6472,-2.6197,-2.5821,-2.5628,-2.5344,-2.4821,-2.4684,-2.4464,-2.4161,-2.4189,-2.417,-2.4161,-2.4161,-2.3845,-2.3329,-2.2828,-2.2224,-2.1717,-2.1224,-2.0917,-2.0909,-2.0821,-2.0774,-2.0774,-2.0694,-2.0369,-1.99,-1.986,-1.9987,-1.9821,-1.9353,-1.9078,-1.903,-1.7963,-1.7154,-1.7015,-1.6411,-1.5992,-1.5885,-1.5143,-1.4821,-1.4713,-1.3743,-1.3173,-1.3202,-1.3199,-1.3051,-1.3216,-1.3443,-1.3584,-1.3603,-1.3523,-1.3514,-1.3575,-1.3613,-1.3636,-1.3684,-1.3688,-1.3569,-1.3204,-1.2359,-1.139,-1.0425,-0.9332,-0.7989,-0.6764,-0.6031,-0.5418,-0.4682,-0.4316,-0.4071,-0.395,-0.395,-0.395,-0.395,-0.395,-0.395,-0.395,-0.3947,-0.3946,-0.3946,-0.3943,-0.3821,-0.3822,-0.3568,-0.2958,-0.2342,-0.1109,0.0246,0.1479,0.2449,0.3303,-3.7974,-3.7974,-3.7974,-3.7974,-3.795,-3.7649,-3.7216,-3.6699,-3.617,-3.5029,-3.3657,-3.2768,-3.188,-3.0856,-2.9723,-2.889,-2.8359,-2.7736,-2.7107,-2.6691,-2.6591,-2.6591,-2.6582,-2.6582,-2.6463,-2.6224,-2.6041,-2.5711,-2.5326,-2.5115,-2.4803,-2.451,-2.4418,-2.4335,-2.4161,-2.4152,-2.3945,-2.3329,-2.292,-2.2518,-2.1717,-2.142,-2.1121,-2.1019,-2.0925,-2.0925,-2.0917,-2.0917,-2.071,-2.0392,-2.0321,-2.0408,-2.0583,-2.0202,-1.9982,-2.0086,-1.8938,-1.8094,-1.7575,-1.6942,-1.6305,-1.5885,-1.5357,-1.5035,-1.4843,-1.4033,-1.3527,-1.3517,-1.3359,-1.3355,-1.3386,-1.357,-1.3674,-1.3679,-1.3688,-1.3688,-1.3688,-1.3679,-1.3688,-1.3688,-1.3688,-1.3688,-1.3688,-1.284,-1.1877,-1.091,-0.9819,-0.8477,-0.7131,-0.6644,-0.5908,-0.5172,-0.4559,-0.4316,-0.395,-0.395,-0.395,-0.395,-0.395,-0.395,-0.395,-0.395,-0.395,-0.395,-0.395,-0.395,-0.395,-0.395,-0.3579,-0.2837,-0.1849,-0.0863,0.037,0.1726,0.259,-3.7974,-3.7974,-3.7974,-3.7974,-3.7974,-3.7962,-3.7565,-3.7048,-3.6555,-3.527,-3.3594,-3.2148,-3.097,-2.9723,-2.891,-2.8077,-2.753,-2.7431,-2.7116,-2.68,-2.6591,-2.6591,-2.6591,-2.6591,-2.6564,-2.6481,-2.6178,-2.6004,-2.5793,-2.5546,-2.5234,-2.4931,-2.484,-2.4611,-2.4372,-2.4262,-2.39,-2.3438,-2.3229,-2.2728,-2.2021,-2.1717,-2.142,-2.1121,-2.0917,-2.0917,-2.0925,-2.0925,-2.0877,-2.0909,-2.0925,-2.0869,-2.0901,-2.0909,-2.0806,-2.0704,-1.9983,-1.9153,-1.8527,-1.7674,-1.6829,-1.6205,-1.5601,-1.5183,-1.5138,-1.4538,-1.4039,-1.4004,-1.3629,-1.3591,-1.3462,-1.3599,-1.367,-1.3688,-1.3688,-1.3688,-1.3688,-1.3688,-1.3688,-1.3688,-1.3688,-1.3688,-1.3449,-1.296,-1.2113,-1.139,-1.0422,-0.9211,-0.7989,-0.7133,-0.6274,-0.5293,-0.4926,-0.4561,-0.4193,-0.395,-0.395,-0.395,-0.395,-0.395,-0.395,-0.395,-0.395,-0.395,-0.395,-0.395,-0.395,-0.3826,-0.3826,-0.3455,-0.2466,-0.1602,-0.074,0.074,0.185,-3.7974,-3.7974,-3.7974,-3.7974,-3.7974,-3.7962,-3.7457,-3.6525,-3.6483,-3.4871,-3.2587,-3.1721,-3.0453,-2.8708,-2.8398,-2.797,-2.7422,-2.7431,-2.7116,-2.6691,-2.6591,-2.6591,-2.6591,-2.6591,-2.6591,-2.6554,-2.6509,-2.6279,-2.6013,-2.5885,-2.5628,-2.5298,-2.5225,-2.5051,-2.4702,-2.4629,-2.4153,-2.35,-2.3347,-2.3046,-2.2426,-2.192,-2.1615,-2.142,-2.1121,-2.0917,-2.0925,-2.0925,-2.0925,-2.0925,-2.0925,-2.0925,-2.0925,-2.0925,-2.0925,-2.0712,-2.0197,-1.9672,-1.9257,-1.8094,-1.7153,-1.6874,-1.639,-1.5982,-1.5999,-1.5555,-1.5101,-1.4911,-1.4371,-1.3932,-1.3703,-1.3655,-1.3688,-1.3688,-1.3688,-1.3688,-1.3688,-1.3688,-1.3688,-1.3688,-1.3688,-1.3688,-1.3688,-1.3569,-1.284,-1.1993,-1.1027,-1.0061,-0.8964,-0.7867,-0.6886,-0.6149,-0.5295,-0.4928,-0.4438,-0.4071,-0.395,-0.395,-0.395,-0.395,-0.395,-0.395,-0.395,-0.395,-0.395,-0.395,-0.395,-0.395,-0.3826,-0.3455,-0.296,-0.2096,-0.1109,0.0123,0.1234,-3.7974,-3.7974,-3.7974,-3.7974,-3.7974,-3.7962,-3.7345,-3.6459,-3.6374,-3.4521,-3.201,-3.1609,-3.0349,-2.8398,-2.8291,-2.8077,-2.7638,-2.7323,-2.6999,-2.6691,-2.6591,-2.6591,-2.6591,-2.6591,-2.6591,-2.6591,-2.6582,-2.6435,-2.6298,-2.6206,-2.6041,-2.5674,-2.5656,-2.5427,-2.5115,-2.5051,-2.4729,-2.4226,-2.4025,-2.3643,-2.2963,-2.2325,-2.1725,-2.1428,-2.1027,-2.0925,-2.0925,-2.0925,-2.0925,-2.0925,-2.0925,-2.0925,-2.0925,-2.0925,-2.0925,-2.0822,-2.0609,-1.9983,-1.9569,-1.8945,-1.8051,-1.7449,-1.708,-1.6782,-1.6495,-1.6156,-1.5761,-1.5219,-1.4743,-1.4282,-1.3794,-1.3688,-1.3688,-1.3688,-1.3688,-1.3688,-1.3688,-1.3688,-1.3688,-1.3688,-1.3688,-1.3688,-1.3688,-1.3688,-1.3204,-1.2238,-1.1993,-1.1027,-1.0061,-0.8964,-0.8111,-0.7131,-0.6029,-0.5295,-0.4561,-0.4193,-0.395,-0.395,-0.395,-0.395,-0.395,-0.395,-0.395,-0.395,-0.395,-0.395,-0.395,-0.395,-0.3826,-0.3579,-0.3085,-0.2466,-0.148,-0.037,0.0863,-3.7974,-3.7986,-3.7761,-3.7761,-3.7655,-3.7429,-3.668,-3.5802,-3.5864,-3.3952,-3.1666,-3.1323,-3.0047,-2.8601,-2.8301,-2.8184,-2.7755,-2.7215,-2.6791,-2.6582,-2.6591,-2.6591,-2.6591,-2.6591,-2.6591,-2.6591,-2.6591,-2.6554,-2.6554,-2.6564,-2.6353,-2.6096,-2.6059,-2.5839,-2.5546,-2.5445,-2.5262,-2.482,-2.4756,-2.4472,-2.3643,-2.3068,-2.224,-2.1326,-2.1121,-2.1019,-2.0925,-2.0925,-2.0925,-2.0925,-2.0925,-2.0925,-2.0925,-2.0925,-2.0925,-2.0925,-2.0814,-2.0506,-2.0117,-1.9747,-1.9153,-1.7915,-1.7727,-1.741,-1.6867,-1.6521,-1.62,-1.546,-1.4969,-1.4366,-1.3923,-1.3688,-1.3688,-1.3688,-1.3688,-1.3688,-1.3688,-1.3688,-1.3688,-1.3688,-1.3688,-1.3688,-1.3688,-1.3688,-1.3084,-1.2599,-1.2359,-1.1997,-1.1031,-0.994,-0.8964,-0.7989,-0.6764,-0.554,-0.4805,-0.4193,-0.395,-0.395,-0.395,-0.395,-0.395,-0.395,-0.395,-0.395,-0.395,-0.395,-0.395,-0.395,-0.3826,-0.3703,-0.3455,-0.2837,-0.1973,-0.0863,0.0247,-3.7974,-3.7868,-3.6893,-3.6449,-3.634,-3.5443,-3.478,-3.3988,-3.3804,-3.2553,-3.0912,-3.0381,-2.9628,-2.8495,-2.8301,-2.797,-2.7539,-2.7008,-2.6691,-2.6591,-2.6591,-2.6591,-2.6591,-2.6591,-2.6591,-2.6591,-2.6591,-2.6591,-2.6591,-2.6573,-2.6518,-2.6472,-2.6444,-2.6233,-2.5958,-2.5839,-2.5665,-2.5335,-2.5271,-2.4957,-2.4452,-2.3781,-2.2835,-2.1697,-2.1452,-2.1318,-2.1019,-2.0925,-2.0925,-2.0925,-2.0925,-2.0925,-2.0956,-2.0956,-2.0948,-2.0933,-2.0964,-2.0782,-2.0592,-2.0384,-1.9652,-1.8874,-1.8424,-1.7924,-1.7412,-1.7122,-1.6757,-1.6093,-1.529,-1.451,-1.4515,-1.4043,-1.3688,-1.3688,-1.3688,-1.3688,-1.3688,-1.3688,-1.3688,-1.3688,-1.3688,-1.3688,-1.3688,-1.3688,-1.3449,-1.3084,-1.2844,-1.2599,-1.2118,-1.0664,-0.9211,-0.8355,-0.7378,-0.6151,-0.5049,-0.4439,-0.395,-0.395,-0.395,-0.395,-0.395,-0.395,-0.395,-0.395,-0.395,-0.395,-0.395,-0.395,-0.3826,-0.3826,-0.3579,-0.3331,-0.259,-0.1602,-0.0246,-3.7974,-3.7868,-3.6677,-3.6231,-3.6013,-3.4891,-3.3871,-3.3226,-3.2998,-3.1901,-3.0488,-2.985,-2.9313,-2.8495,-2.8301,-2.797,-2.7431,-2.7225,-2.6909,-2.6691,-2.6591,-2.6591,-2.6591,-2.6591,-2.6591,-2.6591,-2.6591,-2.6591,-2.6591,-2.6591,-2.6591,-2.6582,-2.6591,-2.6472,-2.6325,-2.6279,-2.6041,-2.5766,-2.5656,-2.5482,-2.5096,-2.4401,-2.3194,-2.2339,-2.1824,-2.1428,-2.1019,-2.0925,-2.0925,-2.0925,-2.0925,-2.1028,-2.1139,-2.1179,-2.1115,-2.1012,-2.1099,-2.1195,-2.125,-2.109,-2.081,-2.004,-1.9438,-1.8851,-1.8192,-1.775,-1.7238,-1.6414,-1.5343,-1.4624,-1.451,-1.4043,-1.3808,-1.3688,-1.3688,-1.3688,-1.3688,-1.3688,-1.3688,-1.3688,-1.3688,-1.3688,-1.3688,-1.3688,-1.3688,-1.3449,-1.3204,-1.2964,-1.284,-1.1511,-0.9819,-0.8842,-0.7986,-0.6519,-0.5416,-0.4805,-0.4195,-0.4071,-0.395,-0.395,-0.395,-0.395,-0.395,-0.395,-0.395,-0.395,-0.395,-0.395,-0.395,-0.395,-0.3703,-0.3579,-0.3208,-0.2343,-0.0986,-3.7974,-3.788,-3.6665,-3.6025,-3.5674,-3.4558,-3.3346,-3.2499,-3.2222,-3.1278,-2.9767,-2.9544,-2.9112,-2.8388,-2.8077,-2.7755,-2.7323,-2.7215,-2.6899,-2.6691,-2.6591,-2.6591,-2.6591,-2.6591,-2.6591,-2.6591,-2.6591,-2.6591,-2.6591,-2.6591,-2.6591,-2.6591,-2.6591,-2.6591,-2.6554,-2.6518,-2.6334,-2.6206,-2.6068,-2.5876,-2.5386,-2.4693,-2.3738,-2.2882,-2.2295,-2.1878,-2.1522,-2.1322,-2.1219,-2.1211,-2.1211,-2.1274,-2.1497,-2.1552,-2.1425,-2.1234,-2.1409,-2.1513,-2.1632,-2.187,-2.1612,-2.0914,-2.0286,-1.9569,-1.8777,-1.7923,-1.7244,-1.6655,-1.5585,-1.4873,-1.4753,-1.4162,-1.3808,-1.3688,-1.3688,-1.3688,-1.3688,-1.3688,-1.3688,-1.3688,-1.3688,-1.3688,-1.3688,-1.3688,-1.3688,-1.3688,-1.3449,-1.3449,-1.3204,-1.2118,-1.0785,-0.9694,-0.8474,-0.6884,-0.5784,-0.517,-0.4682,-0.4439,-0.4071,-0.395,-0.395,-0.395,-0.395,-0.395,-0.395,-0.395,-0.395,-0.395,-0.395,-0.395,-0.395,-0.3826,-0.3455,-0.296,-0.1849,-3.7974,-3.788,-3.6665,-3.5564,-3.4558,-3.3459,-3.2238,-3.1225,-3.0495,-2.9895,-2.9521,-2.8809,-2.8495,-2.8174,-2.7755,-2.7422,-2.7098,-2.689,-2.68,-2.6591,-2.6591,-2.6591,-2.6591,-2.6591,-2.6591,-2.6591,-2.6591,-2.6591,-2.6591,-2.6591,-2.6591,-2.6591,-2.6591,-2.6591,-2.6591,-2.6591,-2.6564,-2.6509,-2.649,-2.6289,-2.5894,-2.5395,-2.4805,-2.4228,-2.3721,-2.3014,-2.2453,-2.2022,-2.1833,-2.1751,-2.1791,-2.1838,-2.1902,-2.1902,-2.1894,-2.1854,-2.1878,-2.1902,-2.1965,-2.2227,-2.2104,-2.1369,-2.0607,-1.9855,-1.8868,-1.8064,-1.7479,-1.7367,-1.6183,-1.5472,-1.5235,-1.4406,-1.3928,-1.3688,-1.3808,-1.3688,-1.3688,-1.3688,-1.3688,-1.3688,-1.3688,-1.3688,-1.3688,-1.3688,-1.3688,-1.3688,-1.3688,-1.3688,-1.3324,-1.2238,-1.1027,-0.9815,-0.872,-0.7131,-0.6274,-0.5538,-0.5049,-0.4682,-0.4316,-0.395,-0.395,-0.395,-0.395,-0.395,-0.395,-0.395,-0.395,-0.395,-0.395,-0.395,-0.395,-0.395,-0.3826,-0.3208,-0.259,-3.7974,-3.788,-3.6677,-3.5443,-3.4336,-3.3243,-3.2008,-3.0925,-2.9971,-2.958,-2.9404,-2.8563,-2.8067,-2.796,-2.7745,-2.7539,-2.7215,-2.689,-2.6691,-2.6591,-2.6591,-2.6591,-2.6591,-2.6591,-2.6591,-2.6591,-2.6591,-2.6591,-2.6591,-2.6591,-2.6591,-2.6591,-2.6591,-2.6591,-2.6591,-2.6591,-2.6582,-2.6573,-2.6564,-2.6499,-2.6261,-2.594,-2.5491,-2.4952,-2.4439,-2.3831,-2.307,-2.2708,-2.228,-2.2172,-2.1957,-2.2069,-2.2204,-2.2275,-2.2315,-2.2553,-2.2553,-2.2466,-2.2339,-2.2601,-2.2497,-2.1999,-2.0987,-1.9679,-1.8415,-1.783,-1.7485,-1.7485,-1.6655,-1.6183,-1.5828,-1.4873,-1.4401,-1.4162,-1.3923,-1.3808,-1.3688,-1.3688,-1.3688,-1.3688,-1.3688,-1.3688,-1.3688,-1.3688,-1.3688,-1.3688,-1.3688,-1.3688,-1.3084,-1.1997,-1.0785,-0.9579,-0.848,-0.7378,-0.6764,-0.6029,-0.5416,-0.4926,-0.4316,-0.395,-0.395,-0.395,-0.395,-0.395,-0.395,-0.395,-0.395,-0.395,-0.395,-0.395,-0.395,-0.395,-0.395,-0.3826,-0.3085,-3.7974,-3.788,-3.7,-3.5783,-3.4336,-3.3448,-3.2238,-3.0897,-2.9951,-2.958,-2.9346,-2.8474,-2.7853,-2.7745,-2.7638,-2.7422,-2.7225,-2.6999,-2.6791,-2.6691,-2.6591,-2.6591,-2.6591,-2.6591,-2.6591,-2.6591,-2.6591,-2.6591,-2.6591,-2.6591,-2.6591,-2.6591,-2.6591,-2.6591,-2.6591,-2.6591,-2.6591,-2.6591,-2.6591,-2.6573,-2.6499,-2.6279,-2.5936,-2.5604,-2.5103,-2.4491,-2.3733,-2.3228,-2.2912,-2.2703,-2.24,-2.2434,-2.2585,-2.2633,-2.2704,-2.2871,-2.2903,-2.2831,-2.2736,-2.2831,-2.299,-2.2441,-2.1296,-1.9577,-1.7948,-1.7485,-1.7485,-1.7485,-1.6891,-1.6537,-1.6301,-1.5461,-1.4873,-1.4515,-1.4282,-1.3923,-1.3684,-1.3688,-1.3688,-1.3688,-1.3688,-1.3688,-1.3688,-1.3688,-1.3688,-1.3688,-1.3688,-1.3688,-1.2964,-1.2118,-1.139,-1.0304,-0.9089,-0.8233,-0.7744,-0.7008,-0.6151,-0.5295,-0.4561,-0.4193,-0.4193,-0.4071,-0.395,-0.395,-0.395,-0.395,-0.395,-0.395,-0.395,-0.395,-0.395,-0.395,-0.395,-0.395,-0.3579,-3.7974,-3.7986,-3.7868,-3.6545,-3.4447,-3.4325,-3.2995,-3.0984,-3.0054,-2.9541,-2.9225,-2.8494,-2.7628,-2.7206,-2.7098,-2.6999,-2.6691,-2.67,-2.6591,-2.6582,-2.6591,-2.6591,-2.6591,-2.6591,-2.6591,-2.6591,-2.6591,-2.6591,-2.6591,-2.6591,-2.6591,-2.6591,-2.6591,-2.6591,-2.6591,-2.6591,-2.6591,-2.6591,-2.6591,-2.6591,-2.6591,-2.6509,-2.6499,-2.6282,-2.5927,-2.559,-2.5371,-2.4395,-2.3698,-2.3476,-2.3007,-2.2791,-2.2863,-2.2895,-2.2958,-2.299,-2.3014,-2.2966,-2.295,-2.295,-2.2885,-2.2441,-2.1296,-1.9577,-1.7948,-1.7602,-1.7485,-1.7485,-1.7009,-1.6655,-1.6419,-1.5946,-1.5348,-1.4992,-1.4634,-1.4277,-1.3923,-1.3688,-1.3688,-1.3688,-1.3688,-1.3688,-1.3688,-1.3688,-1.3688,-1.3688,-1.3688,-1.3688,-1.3324,-1.2599,-1.2238,-1.139,-0.994,-0.9211,-0.8967,-0.7989,-0.6641,-0.5906,-0.5295,-0.4928,-0.4682,-0.4438,-0.395,-0.395,-0.395,-0.395,-0.395,-0.395,-0.395,-0.395,-0.395,-0.395,-0.395,-0.395,-0.3579,-3.7974,-3.7974,-3.7974,-3.6989,-3.5454,-3.467,-3.3279,-3.1491,-3.0152,-2.9017,-2.8243,-2.8007,-2.753,-2.7098,-2.6999,-2.6989,-2.6781,-2.67,-2.6591,-2.6591,-2.6591,-2.6591,-2.6591,-2.6591,-2.6591,-2.6591,-2.6591,-2.6591,-2.6591,-2.6591,-2.6591,-2.6591,-2.6591,-2.6591,-2.6591,-2.6591,-2.6591,-2.6591,-2.6591,-2.6591,-2.6591,-2.6591,-2.6591,-2.6582,-2.6473,-2.6026,-2.567,-2.4898,-2.4359,-2.3921,-2.3352,-2.3127,-2.3014,-2.3014,-2.3014,-2.3014,-2.3014,-2.3014,-2.3014,-2.2901,-2.2788,-2.1972,-2.0945,-1.9686,-1.8415,-1.7948,-1.7602,-1.7367,-1.725,-1.7009,-1.7009,-1.6537,-1.6065,-1.5585,-1.5224,-1.4634,-1.4277,-1.4047,-1.3808,-1.3928,-1.3808,-1.3688,-1.3688,-1.3688,-1.3688,-1.3688,-1.3688,-1.3688,-1.3324,-1.3084,-1.2719,-1.1997,-1.0664,-0.9697,-0.9454,-0.8233,-0.7011,-0.6396,-0.5906,-0.5416,-0.5049,-0.4316,-0.395,-0.395,-0.395,-0.395,-0.395,-0.395,-0.395,-0.395,-0.395,-0.395,-0.395,-0.395,-0.3579,-3.7974,-3.7974,-3.7974,-3.7322,-3.61,-3.5176,-3.3812,-3.2322,-3.0681,-2.8975,-2.7441,-2.7638,-2.7422,-2.6999,-2.6899,-2.689,-2.6791,-2.6691,-2.6582,-2.6591,-2.6591,-2.6591,-2.6591,-2.6591,-2.6591,-2.6591,-2.6591,-2.6591,-2.6591,-2.6591,-2.6591,-2.6591,-2.6591,-2.6591,-2.6591,-2.6591,-2.6591,-2.6591,-2.6591,-2.6591,-2.6591,-2.6591,-2.6591,-2.6591,-2.6582,-2.6364,-2.6026,-2.5459,-2.4795,-2.4239,-2.368,-2.3231,-2.3127,-2.3014,-2.3014,-2.3014,-2.3014,-2.3014,-2.3014,-2.2901,-2.2554,-2.1737,-2.1288,-2.0148,-1.9107,-1.8298,-1.8064,-1.7485,-1.7485,-1.7485,-1.7485,-1.7009,-1.6537,-1.6177,-1.5822,-1.5348,-1.4873,-1.452,-1.4282,-1.4043,-1.3923,-1.3688,-1.3688,-1.3688,-1.3688,-1.3688,-1.3688,-1.3688,-1.3569,-1.3324,-1.3084,-1.2238,-1.1148,-1.0425,-0.97,-0.8477,-0.7503,-0.7011,-0.6399,-0.5661,-0.5172,-0.4439,-0.395,-0.395,-0.395,-0.395,-0.395,-0.395,-0.395,-0.395,-0.395,-0.395,-0.395,-0.395,-0.395,-3.7926,-3.7974,-3.7926,-3.7263,-3.6179,-3.5669,-3.4668,-3.3215,-3.1291,-2.9309,-2.7558,-2.7431,-2.7215,-2.6791,-2.6691,-2.6691,-2.6691,-2.6582,-2.6591,-2.6591,-2.6591,-2.6591,-2.6591,-2.6591,-2.6591,-2.6591,-2.6591,-2.6591,-2.6591,-2.6591,-2.6591,-2.6591,-2.6591,-2.6591,-2.6591,-2.6591,-2.6591,-2.6591,-2.6591,-2.6591,-2.6591,-2.6591,-2.6591,-2.6591,-2.6591,-2.6473,-2.6364,-2.5789,-2.5229,-2.4676,-2.4024,-2.3464,-2.3014,-2.3014,-2.3014,-2.3014,-2.3014,-2.3014,-2.3014,-2.3014,-2.2554,-2.1851,-2.1517,-2.0716,-1.9455,-1.8765,-1.8298,-1.7596,-1.7485,-1.7485,-1.7479,-1.7361,-1.7009,-1.6773,-1.6414,-1.5941,-1.5467,-1.4997,-1.4759,-1.4396,-1.4043,-1.3693,-1.3688,-1.3688,-1.3688,-1.3688,-1.3688,-1.3688,-1.3688,-1.3569,-1.3324,-1.2719,-1.1752,-1.1027,-1.0183,-0.8845,-0.7872,-0.7503,-0.6888,-0.6031,-0.5295,-0.4561,-0.4195,-0.395,-0.395,-0.395,-0.395,-0.395,-0.395,-0.395,-0.395,-0.395,-0.395,-0.395,-0.395,-3.694,-3.6928,-3.694,-3.6721,-3.6213,-3.5617,-3.4755,-3.3552,-3.1274,-2.9232,-2.7979,-2.753,-2.7215,-2.6899,-2.6691,-2.6591,-2.6591,-2.6591,-2.6591,-2.6591,-2.6591,-2.6591,-2.6591,-2.6591,-2.6591,-2.6591,-2.6591,-2.6591,-2.6591,-2.6591,-2.6591,-2.6591,-2.6591,-2.6591,-2.6591,-2.6591,-2.6591,-2.6591,-2.6591,-2.6591,-2.6591,-2.6591,-2.6591,-2.6591,-2.6591,-2.6591,-2.6582,-2.6017,-2.545,-2.4778,-2.4239,-2.3576,-2.3127,-2.3014,-2.3014,-2.3014,-2.3014,-2.3014,-2.3014,-2.3014,-2.2909,-2.2433,-2.1858,-2.1174,-2.004,-1.9223,-1.8409,-1.783,-1.7602,-1.7485,-1.7485,-1.7479,-1.7244,-1.7126,-1.6891,-1.6537,-1.6065,-1.5591,-1.5235,-1.4753,-1.4277,-1.3923,-1.3808,-1.3688,-1.3688,-1.3688,-1.3688,-1.3688,-1.3688,-1.3688,-1.3569,-1.3204,-1.2599,-1.1631,-1.0664,-0.9332,-0.8238,-0.7747,-0.7011,-0.6031,-0.5297,-0.4684,-0.4195,-0.395,-0.395,-0.395,-0.395,-0.395,-0.395,-0.395,-0.395,-0.395,-0.395,-0.395,-0.395,-3.6411,-3.6411,-3.6411,-3.629,-3.5992,-3.5213,-3.4118,-3.2458,-3.0558,-2.8986,-2.7843,-2.7422,-2.7107,-2.689,-2.6691,-2.6591,-2.6591,-2.6591,-2.6591,-2.6591,-2.6591,-2.6591,-2.6591,-2.6591,-2.6591,-2.6591,-2.6591,-2.6591,-2.6591,-2.6591,-2.6591,-2.6591,-2.6591,-2.6591,-2.6591,-2.6591,-2.6591,-2.6591,-2.6591,-2.6591,-2.6591,-2.6591,-2.6591,-2.6591,-2.6591,-2.6591,-2.6473,-2.6026,-2.5459,-2.4787,-2.4239,-2.3576,-2.3239,-2.3014,-2.3014,-2.3014,-2.3014,-2.3014,-2.3014,-2.3014,-2.3014,-2.2901,-2.232,-2.1744,-2.0838,-2.0033,-1.9107,-1.8298,-1.7713,-1.7485,-1.7485,-1.7485,-1.7485,-1.7361,-1.7244,-1.6891,-1.6655,-1.6183,-1.5709,-1.5229,-1.4629,-1.4277,-1.3808,-1.3808,-1.3688,-1.3688,-1.3688,-1.3688,-1.3688,-1.3688,-1.3688,-1.3449,-1.2844,-1.1877,-1.091,-0.9819,-0.8848,-0.7994,-0.7133,-0.6154,-0.5663,-0.5049,-0.4439,-0.395,-0.395,-0.395,-0.395,-0.395,-0.395,-0.395,-0.395,-0.395,-0.395,-0.395,-0.395,-3.6338,-3.6362,-3.6362,-3.6038,-3.543,-3.4501,-3.2527,-3.0057,-2.9702,-2.8764,-2.7431,-2.7206,-2.6999,-2.67,-2.6591,-2.6591,-2.6591,-2.6591,-2.6591,-2.6591,-2.6591,-2.6591,-2.6591,-2.6591,-2.6591,-2.6591,-2.6591,-2.6591,-2.6591,-2.6591,-2.6591,-2.6591,-2.6591,-2.6591,-2.6591,-2.6591,-2.6591,-2.6591,-2.6591,-2.6591,-2.6591,-2.6591,-2.6591,-2.6591,-2.6591,-2.6591,-2.6364,-2.6026,-2.5459,-2.4787,-2.4239,-2.3568,-2.3239,-2.3014,-2.3014,-2.3014,-2.3014,-2.3014,-2.3014,-2.3014,-2.3014,-2.3014,-2.2901,-2.2433,-2.1509,-2.0493,-1.9577,-1.8648,-1.7948,-1.7713,-1.7485,-1.7485,-1.7485,-1.7485,-1.7485,-1.7361,-1.7244,-1.6891,-1.6301,-1.5704,-1.4986,-1.4396,-1.3928,-1.3688,-1.3688,-1.3688,-1.3688,-1.3688,-1.3688,-1.3688,-1.3688,-1.3569,-1.2964,-1.1997,-1.1031,-1.0183,-0.9089,-0.8238,-0.7378,-0.6519,-0.5906,-0.5416,-0.4805,-0.4316,-0.395,-0.395,-0.395,-0.395,-0.395,-0.395,-0.395,-0.395,-0.395,-0.395,-0.395,-3.5268,-3.5292,-3.528,-3.5184,-3.4868,-3.383,-3.2093,-3.0037,-2.9807,-2.8986,-2.7755,-2.7422,-2.7107,-2.689,-2.6691,-2.6582,-2.6591,-2.6591,-2.6591,-2.6591,-2.6591,-2.6591,-2.6591,-2.6591,-2.6591,-2.6591,-2.6591,-2.6591,-2.6591,-2.6591,-2.6591,-2.6591,-2.6591,-2.6591,-2.6591,-2.6591,-2.6591,-2.6591,-2.6591,-2.6591,-2.6591,-2.6591,-2.6591,-2.6591,-2.6591,-2.6591,-2.6473,-2.5916,-2.5348,-2.4787,-2.4248,-2.3585,-2.3127,-2.3014,-2.3014,-2.3014,-2.3014,-2.3014,-2.3014,-2.3014,-2.3014,-2.3014,-2.3014,-2.2433,-2.1744,-2.0838,-1.9924,-1.9113,-1.8064,-1.7596,-1.7485,-1.7485,-1.7485,-1.7485,-1.7485,-1.7485,-1.7361,-1.7244,-1.6655,-1.6065,-1.5343,-1.4515,-1.3923,-1.3688,-1.3688,-1.3688,-1.3688,-1.3688,-1.3688,-1.3688,-1.3688,-1.3569,-1.3324,-1.2479,-1.1511,-1.0543,-0.9454,-0.8358,-0.7744,-0.7008,-0.6396,-0.5784,-0.5049,-0.4561,-0.4071,-0.395,-0.395,-0.395,-0.395,-0.395,-0.395,-0.395,-0.395,-0.395,-0.395,-3.4823,-3.4823,-3.4823,-3.4531,-3.4115,-3.3511,-3.2185,-3.0639,-3.0016,-2.9092,-2.795,-2.7422,-2.7098,-2.6999,-2.6682,-2.6591,-2.6591,-2.6591,-2.6591,-2.6591,-2.6591,-2.6591,-2.6591,-2.6591,-2.6591,-2.6591,-2.6591,-2.6591,-2.6591,-2.6591,-2.6591,-2.6591,-2.6591,-2.6591,-2.6591,-2.6591,-2.6591,-2.6591,-2.6591,-2.6591,-2.6591,-2.6591,-2.6591,-2.6591,-2.6591,-2.6591,-2.6473,-2.5907,-2.5238,-2.4676,-2.4128,-2.3464,-2.3014,-2.3014,-2.3014,-2.3014,-2.3014,-2.3014,-2.3014,-2.3014,-2.3014,-2.3014,-2.3014,-2.278,-2.1979,-2.1067,-2.0385,-1.9461,-1.8298,-1.7485,-1.7485,-1.7485,-1.7485,-1.7485,-1.7485,-1.7485,-1.7485,-1.7485,-1.7009,-1.6419,-1.5585,-1.4634,-1.4157,-1.3923,-1.3688,-1.3688,-1.3688,-1.3688,-1.3688,-1.3688,-1.3688,-1.3688,-1.3449,-1.308,-1.2113,-1.1027,-1.0058,-0.9211,-0.8601,-0.7867,-0.7131,-0.6154,-0.5295,-0.4684,-0.4071,-0.395,-0.395,-0.395,-0.395,-0.395,-0.395,-0.395,-0.395,-0.395,-0.395,-3.4823,-3.4823,-3.4823,-3.4311,-3.3411,-3.3411,-3.2689,-3.1472,-3.0317,-2.9081,-2.8145,-2.753,-2.7196,-2.6989,-2.6682,-2.6582,-2.6591,-2.6591,-2.6591,-2.6591,-2.6591,-2.6591,-2.6591,-2.6591,-2.6591,-2.6591,-2.6591,-2.6591,-2.6591,-2.6591,-2.6591,-2.6591,-2.6591,-2.6591,-2.6591,-2.6591,-2.6591,-2.6591,-2.6591,-2.6591,-2.6591,-2.6591,-2.6591,-2.6591,-2.6591,-2.6582,-2.6354,-2.5679,-2.4778,-2.4445,-2.3896,-2.3239,-2.3014,-2.3014,-2.3014,-2.3014,-2.3014,-2.3014,-2.3014,-2.3014,-2.3014,-2.3014,-2.3014,-2.2901,-2.2328,-2.1181,-2.027,-1.9693,-1.8648,-1.7713,-1.7485,-1.7485,-1.7485,-1.7485,-1.7485,-1.7485,-1.7485,-1.7479,-1.7126,-1.6537,-1.5709,-1.4873,-1.4396,-1.4043,-1.3688,-1.3688,-1.3688,-1.3688,-1.3688,-1.3688,-1.3688,-1.3688,-1.3569,-1.3324,-1.2479,-1.1511,-1.0906,-1.0058,-0.9454,-0.848,-0.75,-0.6399,-0.5419,-0.4807,-0.4193,-0.4073,-0.395,-0.395,-0.395,-0.395,-0.395,-0.395,-0.395,-0.395,-0.395,-3.4823,-3.4823,-3.4823,-3.4628,-3.4433,-3.4421,-3.3312,-3.1575,-3.1268,-3.0317,-2.9177,-2.8668,-2.7931,-2.6989,-2.6682,-2.6591,-2.6591,-2.6591,-2.6591,-2.6591,-2.6591,-2.6591,-2.6591,-2.6591,-2.6591,-2.6591,-2.6591,-2.6591,-2.6591,-2.6591,-2.6591,-2.6591,-2.6591,-2.6591,-2.6591,-2.6591,-2.6591,-2.6591,-2.6591,-2.6591,-2.6591,-2.6591,-2.6591,-2.6591,-2.6591,-2.6591,-2.6364,-2.5916,-2.5238,-2.4778,-2.4136,-2.3464,-2.3014,-2.3014,-2.3014,-2.3014,-2.3014,-2.3014,-2.3014,-2.3014,-2.3014,-2.3014,-2.3014,-2.3014,-2.2441,-2.1074,-2.0155,-1.9693,-1.8997,-1.8064,-1.7485,-1.7485,-1.7485,-1.7485,-1.7485,-1.7485,-1.7485,-1.7361,-1.7126,-1.6537,-1.5828,-1.5235,-1.4634,-1.4157,-1.3808,-1.3688,-1.3688,-1.3688,-1.3688,-1.3688,-1.3688,-1.3688,-1.3688,-1.3324,-1.2719,-1.2238,-1.1511,-1.0664,-0.9819,-0.8842,-0.7867,-0.6644,-0.554,-0.4928,-0.4438,-0.4071,-0.395,-0.395,-0.395,-0.395,-0.395,-0.395,-0.395,-0.395,-0.395,-3.4823,-3.4823,-3.4823,-3.4823,-3.4823,-3.4823,-3.4103,-3.3101,-3.2376,-3.144,-3.0089,-2.8966,-2.7833,-2.6999,-2.6691,-2.6591,-2.6591,-2.6591,-2.6591,-2.6591,-2.6591,-2.6591,-2.6591,-2.6591,-2.6591,-2.6591,-2.6591,-2.6591,-2.6591,-2.6591,-2.6591,-2.6591,-2.6591,-2.6591,-2.6591,-2.6591,-2.6591,-2.6591,-2.6591,-2.6591,-2.6591,-2.6591,-2.6591,-2.6591,-2.6591,-2.6591,-2.6364,-2.6026,-2.5459,-2.4676,-2.3904,-2.3464,-2.3014,-2.3014,-2.3014,-2.3014,-2.3014,-2.3014,-2.3014,-2.3014,-2.3014,-2.3014,-2.3014,-2.3014,-2.2788,-2.1638,-2.0723,-2.0148,-1.8525,-1.7602,-1.7485,-1.7485,-1.7485,-1.7485,-1.7485,-1.7485,-1.7485,-1.7479,-1.7361,-1.7126,-1.6301,-1.5477,-1.4878,-1.4162,-1.3928,-1.3688,-1.3688,-1.3688,-1.3688,-1.3688,-1.3688,-1.3688,-1.3688,-1.3688,-1.3329,-1.2844,-1.2479,-1.1394,-1.0425,-0.9451,-0.8474,-0.6886,-0.5663,-0.5049,-0.4559,-0.4071,-0.395,-0.395,-0.395,-0.395,-0.395,-0.395,-0.395,-0.395,-0.395,-3.4823,-3.4823,-3.4823,-3.4823,-3.4823,-3.4823,-3.4519,-3.4115,-3.3289,-3.1938,-3.0296,-2.8445,-2.752,-2.6999,-2.6691,-2.6691,-2.6591,-2.6591,-2.6591,-2.6591,-2.6591,-2.6591,-2.6591,-2.6591,-2.6591,-2.6591,-2.6591,-2.6591,-2.6591,-2.6591,-2.6591,-2.6591,-2.6591,-2.6591,-2.6591,-2.6591,-2.6591,-2.6591,-2.6591,-2.6591,-2.6591,-2.6591,-2.6591,-2.6591,-2.6591,-2.6591,-2.6473,-2.6136,-2.5569,-2.4565,-2.3792,-2.3239,-2.3014,-2.3014,-2.3014,-2.3014,-2.3014,-2.3014,-2.3014,-2.3014,-2.3014,-2.3014,-2.3014,-2.2901,-2.278,-2.2093,-2.1174,-2.0026,-1.8525,-1.7602,-1.7602,-1.7485,-1.7485,-1.7485,-1.7485,-1.7485,-1.7485,-1.7485,-1.7485,-1.7367,-1.6661,-1.5715,-1.5121,-1.4406,-1.3928,-1.3808,-1.3688,-1.3688,-1.3688,-1.3688,-1.3688,-1.3688,-1.3688,-1.3688,-1.3569,-1.3329,-1.2964,-1.2238,-1.1148,-1.0297,-0.9204,-0.7739,-0.6396,-0.5293,-0.4682,-0.4316,-0.395,-0.395,-0.395,-0.395,-0.395,-0.395,-0.395,-0.395,-0.395,-3.4823,-3.4823,-3.4823,-3.4823,-3.4823,-3.4823,-3.3808,-3.2488,-3.2889,-3.1348,-2.9081,-2.8764,-2.8252,-2.6999,-2.6691,-2.6591,-2.6591,-2.6591,-2.6591,-2.6591,-2.6591,-2.6591,-2.6591,-2.6591,-2.6591,-2.6591,-2.6591,-2.6591,-2.6591,-2.6591,-2.6591,-2.6591,-2.6591,-2.6591,-2.6591,-2.6591,-2.6591,-2.6591,-2.6591,-2.6591,-2.6591,-2.6591,-2.6591,-2.6591,-2.6591,-2.6591,-2.6582,-2.6473,-2.5798,-2.4787,-2.3784,-2.3239,-2.3014,-2.3014,-2.3014,-2.3014,-2.3014,-2.3014,-2.3014,-2.3014,-2.3014,-2.3014,-2.3014,-2.3014,-2.2667,-2.2085,-2.1174,-2.0378,-1.8991,-1.8064,-1.783,-1.7602,-1.7485,-1.7485,-1.7485,-1.7485,-1.7485,-1.7485,-1.7485,-1.7132,-1.6425,-1.5833,-1.5477,-1.4644,-1.3808,-1.3688,-1.3688,-1.3688,-1.3688,-1.3688,-1.3688,-1.3688,-1.3688,-1.3688,-1.3688,-1.3688,-1.3324,-1.2719,-1.1997,-1.0906,-0.9812,-0.8717,-0.7373,-0.5906,-0.5049,-0.4559,-0.4316,-0.395,-0.395,-0.395,-0.395,-0.395,-0.395,-0.395,-0.395]},{"header":{"parameterUnit":"m.s-1","parameterCategory":1,"la1":31.0,"la2":29.5877,"lo1":-88.7671,"lo2":-86.6584,"dy":0.0162,"dx":0.0185,"nx":115,"ny":88,"refTime":"2024-07-05T12:00:00:Z","depth":0,"parameterNumber":3,"parameterNumberName":"V-component_of_WINDS"},"data":[0.0,0.0,0.0,0.0,0.0,0.0,0.0,0.0,0.0,0.0,0.0,0.0,0.0,0.0,0.0,0.0,0.0,0.0,0.0,0.0,0.0,0.0,0.0,0.0,0.0,0.0,0.0,0.0,0.0,0.0,0.0,0.0,0.0,0.0,0.0,0.0,0.0,0.0,0.0,0.0,0.0,0.0,0.0,0.0,0.0,0.0,0.0,0.0,0.0,0.0,0.0,0.0,0.0,0.0,0.0,0.0,0.0,0.0,0.0,0.0,0.0,0.0,0.0,0.0,0.0,0.0,0.0,0.0,0.0,0.0,0.0,0.0,0.0,0.0,0.0,0.0,0.0,0.0,0.0,0.0,0.0,0.0,0.0,0.0,0.0,0.0,0.0,0.0,0.0,0.0,0.0,0.0,0.0,0.0,0.0,0.0,0.0,0.0,0.0,0.0,0.0,0.0,0.0,0.0,0.0,0.0,0.0,0.0,0.0,0.0,0.0,0.0,0.0,0.0,0.0,0.0,0.0,0.0,0.0,0.0,0.0,0.0,0.0,0.0,0.0,0.0,0.0,0.0,0.0,0.0,0.0,0.0,0.0,0.0,0.0,0.0,0.0,0.0,0.0,0.0,0.0,0.0,0.0,0.0,0.0,0.0,0.0,0.0,0.0,0.0,0.0,0.0,0.0,0.0,0.0,0.0,0.0,0.0,0.0,0.0,0.0,0.0,0.0,0.0,0.0,0.0,0.0,0.0,0.0,0.0,0.0,0.0,0.0,0.0,0.0,0.0,0.0,0.0,0.0,0.0,0.0,0.0,0.0,0.0,0.0,0.0,0.0,0.0,0.0,0.0,0.0,0.0,0.0,0.0,0.0,0.0,0.0,0.0,0.0,0.0,0.0,0.0,0.0,0.0,0.0,0.0,0.0,0.0,0.0,0.0,0.0,0.0,0.0,0.0,0.0,0.0,0.0,0.0,0.0,0.0,0.0,0.0,0.0,0.0,0.0,0.0,0.0,0.0,0.0,0.0,0.0,0.0,0.0,0.0,0.0,0.0,0.0,0.0,0.0,0.0,0.0,0.0,0.0,0.0,0.0,0.0,0.0,0.0,0.0,0.0,0.0,0.0,0.0,0.0,0.0,0.0,0.0,0.0,0.0,0.0,0.0,0.0,0.0,0.0,0.0,0.0,0.0,0.0,0.0,0.0,0.0,0.0,0.0,0.0,0.0,0.0,0.0,0.0,0.0,0.0,0.0,0.0,0.0,0.0,0.0,0.0,0.0,0.0,0.0,0.0,0.0,0.0,0.0,0.0,0.0,0.0,0.0,0.0,0.0,0.0,0.0,0.0,0.0,0.0,0.0,0.0,0.0,0.0,0.0,0.0,0.0,0.0,0.0,0.0,0.0,0.0,0.0,0.0,0.0,0.0,0.0,0.0,0.0,0.0,0.0,0.0,0.0,0.0,0.0,0.0,0.0,0.0,0.0,0.0,0.0,0.0,0.0,0.0,0.0,0.0,0.0,0.0,0.0,0.0,0.0,0.0,0.0,0.0,0.0,0.0,0.0,0.0,0.0,0.0,0.0,0.0,0.0,0.0,0.0,0.0,0.0,0.0,0.0,0.0,0.0,0.0,0.0,0.0,0.0,0.0,0.0,0.0,0.0,0.0,0.0,0.0,0.0,0.0,0.0,0.0,0.0,0.0,0.0,0.0,0.0,0.0,0.0,0.0,0.0,0.0,0.0,0.0,0.0,0.0,0.0,0.0,0.0,0.0,0.0,0.0,0.0,0.0,0.0,0.0,0.0,0.0,0.0,0.0,0.0,0.0,0.0,0.0,0.0,0.0,0.0,0.0,0.0,0.0,0.0,0.0,0.0,0.0,0.0,0.0,0.0,0.0,0.0,0.0,0.0,0.0,0.0,0.0,0.0,0.0,0.0,0.0,0.0,0.0,0.0,0.0,0.0,0.0,0.0,0.0,0.0,0.0,0.0,0.0,0.0,0.0,0.0,0.0,0.0,0.0,0.0,0.0,0.0,0.0,0.0,0.0,0.0,0.0,0.0,0.0,0.0,0.0,0.0,0.0,0.0,0.0,0.0,0.0,0.0,0.0,0.0,0.0,0.0,0.0,0.0,0.0,0.0,0.0,0.0,0.0,0.0,0.0,0.0,0.0,0.0,0.0,0.0,0.0,0.0,0.0,0.0,0.0,0.0,0.0,0.0,0.0,0.0,0.0,0.0,0.0,0.0,0.0,0.0,0.0,0.0,0.0,0.0,0.0,0.0,0.0,0.0,0.0,0.0,0.0,0.0,0.0,0.0,0.0,0.0,0.0,0.0,0.0,0.0,0.0,0.0,0.0,0.0,0.0,0.0,0.0,0.0,0.0,0.0,0.0,0.0,0.0,0.0,0.0,0.0,0.0,0.0,0.0,0.0,0.0,0.0,0.0,0.0,0.0,0.0,0.0,0.0,0.0,0.0,0.0,0.0,0.0,0.0,0.0,0.0,0.0,0.0,0.0,0.0,0.0,0.0,0.0,0.0,0.0,0.0,0.0,0.0,0.0,0.0,0.0,0.0,0.0,0.0,0.0,0.0,0.0,0.0,0.0,0.0,0.0,0.0,0.0,0.0,0.0,0.0,0.0,0.0,0.0,0.0,0.0,0.0,0.0,0.0,0.0,0.0,0.0,0.0,0.0,0.0,0.0,0.0,0.0,0.0,0.0,0.0,0.0,0.0,0.0,0.0,0.0,0.0,0.0,0.0,0.0,0.0,0.0,0.0,0.0,0.0,0.0,0.0,0.0,0.0,0.0,0.0,0.0,0.0,0.0,0.0,0.0,0.0,0.0,0.0,0.0,0.0,0.0,0.0,0.0,0.0,0.0,0.0,0.0,0.0,0.0,0.0,0.0,0.0,0.0,0.0,0.0,0.0,0.0,0.0,0.0,0.0,0.0,0.0,0.0,0.0,0.0,0.0,0.0,0.0,0.0,0.0,0.0,0.0,0.0,0.0,0.0,0.0,0.0,0.0,0.0,0.0,0.0,0.0,0.0,0.0,0.0,0.0,0.0,0.0,0.0,0.0,0.0,0.0,0.0,0.0,0.0,0.0,0.0,0.0,0.0,0.0,0.0,0.0,0.0,0.0,0.0,0.0,0.0,0.0,0.0,0.0,0.0,0.0,0.0,0.0,0.0,0.0,0.0,0.0,0.0,0.0,0.0,0.0,0.0,0.0,0.0,0.0,0.0,0.0,0.0,0.0,0.0,0.0,0.0,0.0,0.0,0.0,0.0,0.0,0.0,0.0,0.0,0.0,0.0,0.0,0.0,0.0,0.0,0.0,0.0,0.0,0.0,0.0,0.0,0.0,0.0,0.0,0.0,0.0,0.0,0.0,0.0,0.0,0.0,0.0,0.0,0.0,0.0,0.0,0.0,0.0,0.0,0.0,0.0,0.0,0.0,0.0,0.0,0.0,0.0,0.0,0.0,0.0,0.0,0.0,0.0,0.0,0.0,0.0,0.0,0.0,0.0,0.0,0.0,0.0,0.0,0.0,0.0,0.0,0.0,0.0,0.0,0.0,0.0,0.0,0.0,0.0,0.0,0.0,0.0,0.0,0.0,0.0,0.0,0.0,0.0,0.0,0.0,0.0,0.0,0.0,0.0,0.0,0.0,0.0,0.0,0.0,0.0,0.0,0.0,0.0,0.0,0.0,0.0,0.0,0.0,0.0,0.0,0.0,0.0,0.0,0.0,0.0,0.0,0.0,0.0,0.0,0.0,0.0,0.0,0.0,0.0,0.0,0.0,0.0,0.0,0.0,0.0,0.0,0.0,0.0,0.0,0.0,0.0,0.0,0.0,0.0,0.0,0.0,0.0,0.0,0.0,0.0,0.0,0.0,0.0,0.0,0.0,0.0,0.0,0.0,0.0,0.0,0.0,0.0,0.0,0.0,0.0,0.0,0.0,0.0,0.0,0.0,0.0,0.0,0.0,0.0,0.0,0.0,0.0,0.0,0.0,0.0,0.0,0.0,0.0,0.0,0.0,0.0,0.0,0.0,0.0,0.0,0.0,0.0,0.0,0.0,0.0,0.0,0.0,0.0,0.0,0.0,0.0,0.0,0.0,0.0,0.0,0.0,0.0,0.0,0.0,0.0,0.0,0.0,0.0,0.0,0.0,0.0,0.0,0.0,0.0,0.0,0.0,0.0,0.0,0.0,0.0,0.0,0.0,0.0,0.0,0.0,0.0,0.0,0.0,0.0,0.0,0.0,0.0,0.0,0.0,0.0,0.0,-1.3528,0.0,0.0,0.0,0.0,0.0,0.0,0.0,0.0,0.0,0.0,0.0,0.0,0.0,0.0,0.0,0.0,0.0,0.0,0.0,0.0,0.0,0.0,0.0,0.0,0.0,0.0,0.0,0.0,0.0,0.0,0.0,0.0,0.0,0.0,0.0,0.0,0.0,0.0,0.0,0.0,0.0,0.0,0.0,0.0,0.0,0.0,0.0,0.0,0.0,0.0,0.0,0.0,0.0,0.0,0.0,0.0,0.0,0.0,0.0,0.0,0.0,0.0,0.0,0.0,0.0,0.0,0.0,0.0,0.0,0.0,0.0,0.0,0.0,0.0,0.0,0.0,0.0,0.0,0.0,0.0,0.0,0.0,0.0,0.0,0.0,0.0,0.0,0.0,0.0,0.0,0.0,0.0,0.0,0.0,0.0,0.0,0.0,0.0,0.0,0.0,0.0,0.0,0.0,0.0,0.0,0.0,0.0,0.0,0.0,0.0,-1.5094,-1.5126,-1.3898,-1.3445,-1.3913,0.0,0.0,0.0,0.0,0.0,0.0,0.0,0.0,0.0,0.0,0.0,0.0,0.0,0.0,0.0,0.0,0.0,0.0,0.0,0.0,0.0,0.0,0.0,0.0,0.0,0.0,0.0,0.0,0.0,0.0,0.0,0.0,0.0,0.0,0.0,0.0,0.0,0.0,0.0,0.0,0.0,0.0,0.0,0.0,0.0,0.0,0.0,0.0,0.0,0.0,0.0,0.0,0.0,0.0,0.0,0.0,0.0,0.0,0.0,0.0,0.0,0.0,0.0,0.0,0.0,0.0,0.0,0.0,0.0,0.0,0.0,0.0,0.0,0.0,0.0,0.0,0.0,0.0,0.0,0.0,0.0,0.0,0.0,0.0,0.0,0.0,0.0,0.0,0.0,0.0,0.0,0.0,0.0,0.0,0.0,0.0,0.0,0.0,0.0,0.0,0.0,0.0,0.0,0.0,0.0,0.0,0.0,0.0,0.0,0.0,0.0,0.0,-1.4555,-1.4168,-1.4815,0.0,0.0,0.0,0.0,0.0,0.0,0.0,0.0,0.0,0.0,0.0,0.0,0.0,0.0,0.0,0.0,0.0,0.0,0.0,0.0,0.0,0.0,0.0,0.0,0.0,0.0,0.0,0.0,0.0,0.0,0.0,0.0,0.0,0.0,0.0,0.0,0.0,0.0,0.0,0.0,0.0,0.0,0.0,0.0,0.0,0.0,0.0,0.0,0.0,0.0,0.0,0.0,0.0,0.0,0.0,0.0,0.0,0.0,0.0,0.0,0.0,0.0,0.0,0.0,0.0,0.0,0.0,0.0,0.0,0.0,0.0,0.0,0.0,0.0,0.0,0.0,0.0,0.0,0.0,0.0,0.0,0.0,0.0,0.0,0.0,0.0,0.0,0.0,0.0,0.0,0.0,0.0,0.0,0.0,0.0,0.0,0.0,0.0,0.0,0.0,0.0,0.0,0.0,0.0,0.0,0.0,0.0,0.0,0.0,0.0,-1.599,-1.7605,-1.7413,0.0,-1.7471,0.0,0.0,0.0,0.0,0.0,0.0,0.0,0.0,0.0,0.0,0.0,0.0,0.0,0.0,0.0,0.0,0.0,0.0,0.0,0.0,0.0,0.0,0.0,0.0,0.0,0.0,0.0,0.0,0.0,0.0,0.0,0.0,0.0,0.0,0.0,0.0,0.0,0.0,0.0,0.0,0.0,0.0,0.0,0.0,0.0,0.0,0.0,0.0,0.0,0.0,0.0,0.0,0.0,0.0,0.0,0.0,0.0,0.0,0.0,0.0,0.0,0.0,0.0,0.0,0.0,0.0,0.0,0.0,0.0,0.0,0.0,0.0,0.0,0.0,0.0,0.0,0.0,0.0,0.0,0.0,0.0,0.0,0.0,0.0,0.0,0.0,0.0,0.0,0.0,0.0,0.0,0.0,0.0,0.0,0.0,0.0,0.0,0.0,0.0,0.0,0.0,0.0,0.0,0.0,0.0,0.0,0.0,0.0,0.0,0.0,-1.6689,-1.7923,-1.7439,-1.691,0.0,0.0,0.0,0.0,0.0,0.0,0.0,0.0,0.0,0.0,0.0,0.0,0.0,0.0,0.0,0.0,0.0,0.0,0.0,0.0,0.0,0.0,0.0,0.0,0.0,0.0,0.0,0.0,0.0,0.0,0.0,0.0,0.0,0.0,0.0,0.0,0.0,0.0,0.0,0.0,0.0,0.0,0.0,0.0,0.0,0.0,0.0,0.0,0.0,0.0,0.0,0.0,0.0,0.0,0.0,0.0,0.0,0.0,0.0,0.0,0.0,0.0,0.0,0.0,0.0,0.0,0.0,0.0,0.0,0.0,0.0,0.0,0.0,0.0,0.0,0.0,0.0,0.0,0.0,0.0,0.0,0.0,0.0,0.0,0.0,0.0,0.0,0.0,0.0,0.0,0.0,0.0,0.0,0.0,0.0,0.0,0.0,0.0,0.0,0.0,0.0,0.0,0.0,0.0,0.0,0.0,0.0,0.0,0.0,0.0,-1.6717,0.0,-1.8565,-1.8081,-1.7126,-1.5818,0.0,0.0,0.0,0.0,0.0,0.0,0.0,0.0,0.0,0.0,0.0,0.0,0.0,0.0,0.0,0.0,0.0,0.0,0.0,0.0,0.0,0.0,0.0,0.0,0.0,0.0,0.0,0.0,0.0,0.0,0.0,0.0,0.0,0.0,0.0,0.0,0.0,0.0,0.0,0.0,0.0,0.0,0.0,0.0,0.0,0.0,0.0,0.0,0.0,0.0,0.0,0.0,0.0,0.0,0.0,0.0,0.0,0.0,0.0,0.0,0.0,0.0,0.0,0.0,0.0,0.0,0.0,0.0,0.0,0.0,0.0,0.0,0.0,0.0,0.0,0.0,0.0,0.0,0.0,0.0,0.0,0.0,0.0,0.0,0.0,0.0,0.0,0.0,0.0,0.0,0.0,0.0,0.0,0.0,0.0,0.0,0.0,0.0,0.0,0.0,0.0,0.0,0.0,0.0,0.0,0.0,0.0,0.0,0.0,-1.7897,-1.7903,-2.0282,-2.0321,-1.9172,0.0,0.0,0.0,0.0,0.0,0.0,0.0,0.0,0.0,0.0,0.0,0.0,0.0,0.0,0.0,0.0,0.0,0.0,0.0,0.0,0.0,0.0,0.0,0.0,0.0,0.0,0.0,0.0,0.0,0.0,0.0,0.0,0.0,0.0,0.0,0.0,0.0,0.0,0.0,0.0,0.0,0.0,0.0,0.0,0.0,0.0,0.0,0.0,0.0,0.0,0.0,0.0,0.0,0.0,0.0,0.0,0.0,0.0,0.0,0.0,0.0,0.0,0.0,0.0,0.0,0.0,0.0,0.0,0.0,0.0,0.0,0.0,0.0,0.0,0.0,0.0,0.0,0.0,0.0,0.0,0.0,0.0,0.0,0.0,0.0,0.0,0.0,0.0,0.0,0.0,0.0,0.0,0.0,0.0,0.0,0.0,0.0,0.0,0.0,0.0,0.0,0.0,0.0,0.0,0.0,0.0,0.0,0.0,0.0,-1.6305,-1.708,-1.8963,-2.1833,-1.8924,-1.7252,0.0,0.0,0.0,0.0,0.0,0.0,0.0,0.0,0.0,0.0,0.0,0.0,0.0,0.0,0.0,0.0,0.0,0.0,0.0,0.0,0.0,0.0,0.0,0.0,0.0,0.0,0.0,0.0,0.0,0.0,0.0,0.0,0.0,0.0,0.0,0.0,0.0,0.0,0.0,0.0,0.0,0.0,0.0,0.0,0.0,0.0,0.0,0.0,0.0,0.0,0.0,0.0,0.0,0.0,0.0,0.0,0.0,0.0,0.0,0.0,0.0,0.0,0.0,0.0,0.0,0.0,0.0,0.0,0.0,0.0,0.0,0.0,0.0,0.0,0.0,0.0,0.0,0.0,0.0,0.0,0.0,0.0,0.0,0.0,0.0,0.0,0.0,0.0,0.0,0.0,0.0,0.0,0.0,0.0,0.0,0.0,0.0,0.0,0.0,0.0,0.0,0.0,0.0,0.0,0.0,0.0,0.0,0.0,0.0,-1.5711,0.0,-2.0341,0.0,-1.8789,-1.6716,0.0,0.0,0.0,0.0,0.0,0.0,0.0,0.0,0.0,0.0,0.0,0.0,0.0,0.0,0.0,0.0,0.0,0.0,0.0,0.0,0.0,0.0,0.0,0.0,0.0,0.0,0.0,0.0,0.0,0.0,0.0,0.0,0.0,0.0,0.0,0.0,0.0,0.0,0.0,0.0,0.0,0.0,0.0,0.0,0.0,0.0,0.0,0.0,0.0,0.0,0.0,0.0,0.0,0.0,0.0,0.0,0.0,0.0,0.0,0.0,0.0,0.0,0.0,0.0,0.0,0.0,0.0,0.0,0.0,0.0,0.0,0.0,0.0,0.0,0.0,0.0,0.0,0.0,0.0,0.0,0.0,0.0,0.0,0.0,0.0,0.0,0.0,0.0,0.0,0.0,0.0,0.0,0.0,0.0,0.0,0.0,0.0,0.0,0.0,0.0,0.0,0.0,0.0,0.0,0.0,0.0,0.0,0.0,-1.5747,-1.8924,-2.1266,-2.1833,-2.0524,-2.0258,-1.7935,0.0,0.0,0.0,0.0,0.0,0.0,0.0,0.0,0.0,0.0,0.0,0.0,0.0,0.0,0.0,0.0,0.0,0.0,0.0,0.0,0.0,0.0,0.0,0.0,0.0,0.0,0.0,0.0,0.0,0.0,0.0,0.0,0.0,0.0,0.0,0.0,0.0,0.0,0.0,0.0,0.0,0.0,0.0,0.0,0.0,0.0,0.0,0.0,0.0,0.0,0.0,0.0,0.0,0.0,0.0,0.0,0.0,0.0,0.0,0.0,0.0,0.0,0.0,0.0,0.0,0.0,0.0,0.0,0.0,0.0,0.0,0.0,0.0,0.0,0.0,0.0,0.0,0.0,0.0,0.0,0.0,0.0,0.0,0.0,0.0,0.0,0.0,0.0,0.0,0.0,0.0,0.0,0.0,0.0,0.0,0.0,0.0,0.0,0.0,0.0,0.0,0.0,0.0,0.0,0.0,0.0,0.0,0.0,0.0,-1.7437,-1.9692,-2.1545,-2.2682,-1.9458,-1.7721,0.0,0.0,0.0,0.0,0.0,0.0,0.0,0.0,0.0,0.0,0.0,0.0,0.0,0.0,0.0,0.0,0.0,0.0,0.0,0.0,0.0,0.0,0.0,0.0,0.0,0.0,0.0,0.0,0.0,0.0,0.0,0.0,0.0,0.0,0.0,0.0,0.0,0.0,0.0,0.0,0.0,0.0,0.0,0.0,0.0,0.0,0.0,0.0,0.0,0.0,0.0,0.0,0.0,0.0,0.0,0.0,0.0,0.0,0.0,0.0,0.0,0.0,0.0,0.0,0.0,0.0,0.0,0.0,0.0,0.0,0.0,0.0,0.0,0.0,0.0,0.0,0.0,0.0,0.0,0.0,0.0,0.0,0.0,0.0,0.0,0.0,0.0,0.0,0.0,0.0,0.0,0.0,0.0,0.0,0.0,0.0,0.0,0.0,0.0,0.0,0.0,0.0,0.0,0.0,0.0,0.0,0.0,0.0,0.0,-1.9876,-2.1474,-2.2849,-2.39,-2.0537,-1.8754,-1.8736,0.0,0.0,0.0,0.0,0.0,0.0,0.0,0.0,0.0,0.0,0.0,0.0,0.0,0.0,0.0,0.0,0.0,0.0,0.0,0.0,0.0,0.0,0.0,0.0,0.0,0.0,0.0,0.0,0.0,0.0,0.0,0.0,0.0,0.0,0.0,0.0,0.0,0.0,0.0,0.0,0.0,0.0,0.0,0.0,0.0,0.0,0.0,0.0,0.0,0.0,0.0,0.0,0.0,0.0,0.0,0.0,0.0,0.0,0.0,0.0,0.0,0.0,0.0,0.0,0.0,0.0,0.0,0.0,0.0,0.0,0.0,0.0,0.0,0.0,0.0,0.0,0.0,0.0,0.0,0.0,0.0,0.0,0.0,0.0,0.0,0.0,0.0,0.0,0.0,0.0,0.0,0.0,0.0,0.0,0.0,0.0,0.0,0.0,0.0,0.0,0.0,0.0,0.0,0.0,0.0,0.0,0.0,0.0,-2.5195,-2.6002,-2.5658,-2.4183,-2.3216,-2.0883,0.0,0.0,0.0,0.0,0.0,0.0,0.0,0.0,0.0,0.0,0.0,0.0,0.0,0.0,0.0,0.0,0.0,0.0,0.0,0.0,0.0,0.0,0.0,0.0,0.0,0.0,0.0,0.0,0.0,0.0,0.0,0.0,0.0,0.0,0.0,0.0,0.0,0.0,0.0,0.0,0.0,0.0,0.0,0.0,0.0,0.0,0.0,0.0,0.0,0.0,0.0,0.0,0.0,0.0,0.0,0.0,0.0,0.0,0.0,0.0,0.0,0.0,0.0,0.0,0.0,0.0,0.0,0.0,0.0,0.0,0.0,0.0,0.0,0.0,0.0,0.0,0.0,0.0,0.0,0.0,0.0,0.0,0.0,0.0,0.0,0.0,0.0,0.0,0.0,0.0,0.0,0.0,0.0,0.0,0.0,0.0,0.0,0.0,0.0,0.0,0.0,0.0,0.0,0.0,0.0,0.0,0.0,0.0,0.0,-2.6848,-2.824,-2.8502,-2.7529,-2.4931,-2.2726,0.0,0.0,0.0,0.0,0.0,0.0,0.0,0.0,0.0,0.0,0.0,0.0,0.0,0.0,0.0,0.0,0.0,0.0,0.0,0.0,0.0,0.0,0.0,0.0,0.0,0.0,0.0,0.0,0.0,0.0,0.0,0.0,0.0,0.0,0.0,0.0,0.0,0.0,0.0,0.0,0.0,0.0,0.0,0.0,0.0,0.0,0.0,0.0,0.0,0.0,0.0,0.0,0.0,0.0,0.0,0.0,0.0,0.0,0.0,0.0,0.0,0.0,0.0,0.0,0.0,0.0,0.0,0.0,0.0,0.0,0.0,0.0,0.0,0.0,0.0,0.0,0.0,0.0,0.0,0.0,0.0,0.0,0.0,0.0,0.0,0.0,0.0,0.0,0.0,0.0,0.0,0.0,0.0,0.0,0.0,0.0,0.0,0.0,0.0,0.0,0.0,0.0,0.0,0.0,0.0,0.0,0.0,0.0,-2.6149,-2.9053,-3.03,-3.0769,-3.0384,-2.7845,-2.5227,0.0,0.0,0.0,0.0,0.0,0.0,0.0,0.0,0.0,0.0,0.0,0.0,0.0,0.0,0.0,0.0,0.0,0.0,0.0,0.0,0.0,0.0,0.0,0.0,0.0,0.0,0.0,0.0,0.0,0.0,0.0,0.0,0.0,0.0,0.0,0.0,0.0,0.0,0.0,0.0,0.0,0.0,0.0,0.0,0.0,0.0,0.0,0.0,0.0,0.0,0.0,0.0,0.0,0.0,0.0,0.0,0.0,0.0,0.0,0.0,0.0,0.0,0.0,0.0,0.0,0.0,0.0,0.0,0.0,0.0,0.0,0.0,0.0,0.0,0.0,0.0,0.0,0.0,0.0,0.0,0.0,0.0,0.0,0.0,0.0,0.0,0.0,0.0,0.0,0.0,0.0,0.0,0.0,0.0,0.0,0.0,0.0,0.0,0.0,0.0,0.0,0.0,0.0,0.0,0.0,0.0,0.0,0.0,-2.885,-3.1156,-3.2084,-3.2558,-3.2482,-3.0858,-2.778,0.0,0.0,0.0,0.0,0.0,0.0,0.0,0.0,0.0,0.0,0.0,0.0,0.0,0.0,0.0,0.0,0.0,0.0,0.0,0.0,0.0,0.0,0.0,0.0,0.0,0.0,0.0,0.0,0.0,0.0,0.0,0.0,0.0,0.0,0.0,0.0,0.0,0.0,0.0,0.0,0.0,0.0,0.0,0.0,0.0,0.0,0.0,0.0,0.0,0.0,0.0,0.0,0.0,0.0,0.0,0.0,0.0,0.0,0.0,0.0,0.0,0.0,0.0,0.0,0.0,0.0,0.0,0.0,0.0,0.0,0.0,0.0,0.0,0.0,0.0,0.0,0.0,0.0,0.0,0.0,0.0,0.0,0.0,0.0,0.0,0.0,0.0,0.0,0.0,0.0,0.0,0.0,0.0,0.0,0.0,0.0,0.0,0.0,0.0,0.0,0.0,0.0,0.0,0.0,0.0,0.0,0.0,0.0,-2.876,-3.1156,-3.2653,-3.343,-3.3411,-3.0547,-2.7869,0.0,0.0,0.0,0.0,0.0,0.0,0.0,0.0,0.0,0.0,0.0,0.0,0.0,0.0,0.0,0.0,0.0,0.0,0.0,0.0,0.0,0.0,0.0,0.0,0.0,0.0,0.0,0.0,0.0,0.0,0.0,0.0,0.0,0.0,0.0,0.0,0.0,0.0,0.0,0.0,0.0,0.0,0.0,0.0,0.0,0.0,0.0,0.0,-1.8533,0.0,0.0,0.0,0.0,0.0,0.0,0.0,0.0,0.0,0.0,0.0,0.0,0.0,0.0,0.0,0.0,0.0,0.0,0.0,0.0,0.0,0.0,0.0,0.0,0.0,0.0,0.0,0.0,0.0,0.0,0.0,0.0,0.0,0.0,0.0,0.0,0.0,0.0,0.0,0.0,0.0,0.0,0.0,0.0,0.0,0.0,0.0,0.0,0.0,0.0,0.0,0.0,0.0,0.0,0.0,0.0,0.0,0.0,0.0,-2.9943,-3.2312,-3.3619,-3.4263,-3.4169,-3.1421,-2.8919,0.0,0.0,0.0,0.0,0.0,0.0,0.0,0.0,0.0,0.0,0.0,0.0,0.0,0.0,0.0,0.0,0.0,0.0,0.0,0.0,0.0,0.0,0.0,0.0,0.0,0.0,0.0,0.0,0.0,0.0,0.0,0.0,0.0,0.0,0.0,0.0,0.0,0.0,0.0,0.0,0.0,0.0,0.0,0.0,0.0,0.0,0.0,0.0,0.0,0.0,0.0,0.0,0.0,0.0,0.0,0.0,0.0,0.0,0.0,0.0,0.0,0.0,0.0,0.0,0.0,0.0,0.0,0.0,0.0,0.0,0.0,0.0,0.0,0.0,0.0,0.0,0.0,0.0,0.0,0.0,0.0,0.0,0.0,0.0,0.0,0.0,0.0,0.0,0.0,0.0,0.0,0.0,0.0,0.0,0.0,0.0,0.0,0.0,0.0,0.0,0.0,0.0,0.0,0.0,0.0,0.0,0.0,-2.8384,-3.114,-3.3581,-3.4491,-3.4908,-3.487,-3.2597,-3.021,-2.7759,0.0,0.0,0.0,0.0,0.0,0.0,0.0,0.0,0.0,0.0,0.0,0.0,0.0,0.0,0.0,0.0,0.0,0.0,0.0,0.0,0.0,0.0,0.0,0.0,0.0,0.0,0.0,0.0,0.0,0.0,0.0,0.0,0.0,0.0,0.0,0.0,0.0,0.0,-1.6658,-1.9416,0.0,0.0,0.0,0.0,0.0,0.0,0.0,0.0,-2.0183,0.0,0.0,0.0,0.0,0.0,0.0,0.0,0.0,0.0,0.0,0.0,0.0,0.0,0.0,0.0,0.0,0.0,0.0,0.0,0.0,0.0,0.0,0.0,0.0,0.0,0.0,0.0,0.0,0.0,0.0,0.0,0.0,0.0,0.0,0.0,0.0,0.0,0.0,0.0,0.0,0.0,0.0,0.0,0.0,0.0,0.0,0.0,0.0,0.0,0.0,0.0,0.0,0.0,0.0,0.0,0.0,-2.703,-2.8324,-3.049,-3.36,-3.4472,-3.4908,-3.4851,-3.3091,-3.0992,-2.8487,0.0,0.0,0.0,0.0,0.0,0.0,0.0,0.0,0.0,0.0,0.0,0.0,0.0,0.0,0.0,0.0,0.0,0.0,0.0,0.0,0.0,0.0,0.0,0.0,0.0,0.0,0.0,0.0,0.0,0.0,0.0,0.0,0.0,0.0,0.0,0.0,0.0,0.0,0.0,-2.1005,-2.1875,0.0,0.0,0.0,0.0,0.0,0.0,0.0,0.0,-2.0252,0.0,0.0,0.0,0.0,0.0,0.0,0.0,0.0,0.0,0.0,0.0,0.0,0.0,0.0,0.0,0.0,0.0,0.0,0.0,0.0,0.0,0.0,0.0,0.0,0.0,0.0,0.0,0.0,0.0,0.0,0.0,0.0,0.0,0.0,0.0,0.0,0.0,0.0,0.0,0.0,0.0,0.0,0.0,0.0,0.0,0.0,0.0,0.0,0.0,0.0,0.0,0.0,0.0,0.0,0.0,-2.7343,-2.9162,-3.1402,-3.4207,-3.4661,-3.4849,-3.4793,-3.2317,-3.0035,0.0,0.0,0.0,0.0,0.0,0.0,0.0,0.0,0.0,0.0,0.0,0.0,0.0,0.0,0.0,0.0,0.0,0.0,0.0,0.0,0.0,0.0,0.0,0.0,0.0,0.0,0.0,0.0,0.0,0.0,0.0,0.0,0.0,0.0,0.0,0.0,0.0,0.0,0.0,0.0,-2.2144,-2.3006,-2.3861,0.0,0.0,0.0,0.0,0.0,0.0,-2.2231,-2.1448,0.0,0.0,0.0,0.0,0.0,0.0,0.0,0.0,0.0,0.0,0.0,0.0,0.0,0.0,0.0,0.0,0.0,0.0,0.0,0.0,0.0,0.0,0.0,0.0,0.0,0.0,0.0,0.0,0.0,0.0,0.0,0.0,0.0,0.0,0.0,0.0,0.0,0.0,0.0,0.0,0.0,0.0,0.0,0.0,0.0,0.0,0.0,0.0,0.0,0.0,0.0,0.0,0.0,0.0,0.0,-2.7419,-2.9737,-3.2164,-3.4699,-3.4809,-3.4768,-3.4711,-3.1768,-2.9268,0.0,0.0,0.0,0.0,0.0,0.0,0.0,0.0,0.0,0.0,0.0,0.0,0.0,0.0,0.0,0.0,0.0,0.0,0.0,0.0,0.0,0.0,0.0,0.0,0.0,0.0,0.0,0.0,0.0,0.0,0.0,0.0,0.0,0.0,0.0,0.0,0.0,0.0,0.0,0.0,0.0,-2.4493,-2.4533,-2.4262,0.0,0.0,0.0,0.0,-2.4284,-2.3708,0.0,0.0,0.0,0.0,0.0,0.0,0.0,0.0,0.0,0.0,0.0,0.0,0.0,0.0,0.0,0.0,0.0,0.0,0.0,0.0,0.0,0.0,0.0,0.0,0.0,0.0,0.0,0.0,0.0,0.0,0.0,0.0,0.0,0.0,0.0,0.0,0.0,0.0,0.0,0.0,0.0,0.0,0.0,0.0,0.0,0.0,0.0,0.0,0.0,0.0,0.0,0.0,0.0,0.0,0.0,0.0,-2.7182,-2.8948,-3.1354,-3.4438,-3.4623,-3.4604,-3.4604,-3.2756,-3.0358,0.0,0.0,0.0,0.0,0.0,0.0,0.0,0.0,0.0,0.0,0.0,0.0,0.0,0.0,0.0,0.0,0.0,0.0,0.0,0.0,0.0,0.0,0.0,0.0,0.0,0.0,0.0,0.0,0.0,0.0,0.0,0.0,0.0,0.0,0.0,0.0,0.0,0.0,0.0,0.0,0.0,-2.6254,-2.6143,-2.5455,-2.544,0.0,0.0,-2.5375,-2.7056,-2.6539,0.0,0.0,0.0,0.0,0.0,0.0,0.0,0.0,0.0,0.0,0.0,0.0,0.0,0.0,0.0,0.0,0.0,0.0,0.0,0.0,0.0,0.0,0.0,0.0,0.0,0.0,0.0,0.0,0.0,0.0,0.0,0.0,0.0,0.0,0.0,0.0,0.0,0.0,0.0,0.0,0.0,0.0,0.0,0.0,0.0,0.0,0.0,0.0,0.0,0.0,0.0,0.0,0.0,0.0,0.0,-2.3234,-2.721,-2.9757,-3.218,-3.4489,-3.4409,-3.4316,-3.4316,-3.1172,-2.8706,0.0,0.0,0.0,0.0,0.0,0.0,0.0,0.0,0.0,0.0,0.0,0.0,0.0,0.0,0.0,0.0,0.0,0.0,0.0,0.0,0.0,0.0,0.0,0.0,0.0,0.0,0.0,0.0,0.0,0.0,0.0,0.0,0.0,0.0,0.0,0.0,0.0,0.0,0.0,0.0,0.0,0.0,-2.7219,-2.6864,0.0,0.0,0.0,-2.7701,-2.8969,0.0,0.0,0.0,0.0,0.0,0.0,0.0,0.0,0.0,0.0,0.0,0.0,0.0,0.0,0.0,0.0,0.0,0.0,0.0,0.0,0.0,0.0,0.0,0.0,0.0,0.0,0.0,0.0,0.0,0.0,0.0,0.0,0.0,0.0,0.0,0.0,0.0,0.0,0.0,0.0,0.0,0.0,0.0,0.0,0.0,0.0,0.0,0.0,0.0,0.0,0.0,0.0,0.0,0.0,0.0,0.0,0.0,-2.7483,-3.0489,-3.2807,-3.4353,-3.4154,-3.4023,-3.3899,-3.0265,0.0,0.0,0.0,0.0,0.0,0.0,0.0,0.0,0.0,0.0,0.0,0.0,0.0,0.0,0.0,0.0,0.0,0.0,0.0,0.0,0.0,0.0,0.0,0.0,0.0,0.0,0.0,-1.0878,0.0,0.0,0.0,0.0,0.0,0.0,0.0,0.0,0.0,0.0,0.0,0.0,0.0,0.0,-2.7445,-2.8489,-2.8634,-2.896,0.0,0.0,-2.9845,-3.0515,-2.9571,-2.848,0.0,0.0,0.0,0.0,0.0,0.0,0.0,0.0,0.0,0.0,0.0,0.0,0.0,0.0,0.0,0.0,0.0,0.0,0.0,0.0,0.0,0.0,0.0,0.0,0.0,0.0,0.0,0.0,0.0,0.0,0.0,0.0,0.0,0.0,0.0,0.0,0.0,0.0,0.0,0.0,0.0,0.0,0.0,0.0,0.0,0.0,0.0,0.0,0.0,0.0,0.0,0.0,0.0,0.0,0.0,-2.8054,-3.0565,-3.2535,-3.3873,-3.3921,-3.3834,-3.3606,-3.1286,-2.8956,0.0,0.0,0.0,0.0,0.0,0.0,0.0,0.0,0.0,0.0,0.0,0.0,0.0,0.0,0.0,0.0,0.0,0.0,0.0,0.0,0.0,0.0,0.0,0.0,0.0,0.0,0.0,0.0,0.0,0.0,0.0,0.0,0.0,0.0,0.0,0.0,0.0,0.0,0.0,0.0,0.0,-2.9264,-3.0202,-3.0955,-3.1768,0.0,0.0,-3.157,-3.1768,-3.154,-3.0501,-2.802,0.0,0.0,0.0,0.0,0.0,0.0,0.0,0.0,0.0,0.0,0.0,0.0,0.0,0.0,0.0,0.0,0.0,0.0,0.0,0.0,0.0,0.0,0.0,0.0,0.0,0.0,0.0,0.0,0.0,0.0,0.0,0.0,0.0,0.0,0.0,0.0,0.0,0.0,0.0,0.0,0.0,0.0,0.0,0.0,0.0,0.0,0.0,0.0,0.0,0.0,0.0,0.0,0.0,-2.3912,-2.7968,-3.0709,-3.2845,-3.432,-3.4269,-3.4152,-3.4081,-3.1219,-2.8858,0.0,0.0,0.0,0.0,0.0,0.0,0.0,0.0,0.0,0.0,0.0,0.0,0.0,0.0,0.0,0.0,0.0,0.0,0.0,0.0,0.0,0.0,0.0,0.0,0.0,0.0,0.0,0.0,-1.5626,-1.6558,-1.6872,0.0,0.0,0.0,0.0,0.0,0.0,0.0,0.0,0.0,0.0,-3.1052,-3.2037,-3.2783,0.0,0.0,-3.4031,-3.4075,-3.4226,-3.3214,-3.1833,-3.0196,-2.8256,0.0,0.0,0.0,0.0,0.0,0.0,0.0,0.0,0.0,0.0,0.0,0.0,0.0,0.0,0.0,0.0,0.0,0.0,0.0,0.0,0.0,0.0,0.0,0.0,0.0,0.0,0.0,0.0,0.0,0.0,0.0,0.0,0.0,0.0,0.0,0.0,0.0,0.0,0.0,0.0,0.0,0.0,0.0,0.0,0.0,0.0,0.0,0.0,0.0,0.0,0.0,0.0,-2.4505,-2.8559,-3.1276,-3.3421,-3.4915,-3.4581,-3.4366,-3.4231,-3.1392,-2.9106,0.0,0.0,0.0,0.0,0.0,0.0,0.0,0.0,0.0,0.0,0.0,0.0,0.0,0.0,0.0,0.0,0.0,0.0,0.0,0.0,0.0,0.0,0.0,0.0,0.0,0.0,0.0,0.0,-1.7441,-1.817,-1.7924,0.0,0.0,0.0,0.0,0.0,0.0,0.0,0.0,0.0,0.0,-3.29,-3.3846,-3.4817,-3.5514,-3.5621,-3.5813,-3.5897,-3.5716,-3.4599,-3.3234,-3.1725,0.0,0.0,0.0,0.0,0.0,0.0,0.0,0.0,0.0,0.0,0.0,0.0,0.0,0.0,0.0,0.0,0.0,0.0,0.0,0.0,0.0,0.0,0.0,0.0,0.0,0.0,0.0,-1.5066,0.0,0.0,-1.4175,0.0,0.0,0.0,0.0,0.0,0.0,0.0,0.0,0.0,0.0,0.0,0.0,0.0,0.0,0.0,0.0,0.0,0.0,0.0,0.0,0.0,0.0,-2.6025,-3.0068,-3.2301,-3.4141,-3.5512,-3.4812,-3.4357,-3.4112,-3.193,-3.0006,-2.837,0.0,0.0,0.0,0.0,0.0,0.0,0.0,0.0,0.0,0.0,0.0,0.0,0.0,0.0,0.0,0.0,0.0,0.0,0.0,0.0,0.0,0.0,0.0,0.0,0.0,0.0,-1.7714,-1.8639,-1.886,0.0,0.0,0.0,0.0,0.0,0.0,0.0,0.0,0.0,0.0,-3.231,-3.4764,-3.5635,-3.7197,-3.819,-3.8171,-3.7492,-3.6687,-3.5892,-3.5669,-3.4747,0.0,0.0,0.0,0.0,0.0,0.0,0.0,0.0,0.0,0.0,0.0,0.0,0.0,0.0,0.0,0.0,0.0,0.0,0.0,0.0,0.0,0.0,0.0,0.0,0.0,0.0,0.0,-2.0418,-1.9528,0.0,0.0,0.0,0.0,0.0,0.0,0.0,0.0,0.0,0.0,0.0,-2.7933,-2.8767,0.0,0.0,0.0,0.0,0.0,0.0,0.0,0.0,0.0,0.0,0.0,0.0,-2.5841,-2.9733,-3.2523,-3.4616,-3.6073,-3.5876,-3.5432,-3.4829,-3.3126,-3.0485,-2.6907,0.0,0.0,0.0,0.0,0.0,0.0,0.0,0.0,0.0,0.0,0.0,0.0,0.0,0.0,0.0,0.0,0.0,0.0,0.0,0.0,0.0,0.0,0.0,0.0,0.0,-1.8431,0.0,0.0,0.0,0.0,0.0,0.0,0.0,0.0,0.0,0.0,0.0,-3.0457,-3.3297,-3.5628,-3.7208,-3.7489,-3.8518,-3.9043,0.0,0.0,0.0,0.0,0.0,0.0,0.0,0.0,0.0,0.0,0.0,0.0,0.0,0.0,-3.5912,-3.0343,-2.7937,-2.7153,-2.8385,0.0,0.0,0.0,0.0,0.0,0.0,0.0,0.0,0.0,0.0,0.0,0.0,0.0,0.0,-2.4016,0.0,-2.2658,0.0,0.0,0.0,0.0,0.0,0.0,0.0,0.0,-2.9015,-3.0768,-3.1952,-3.2524,-3.2416,0.0,-3.1063,-2.8794,0.0,0.0,0.0,0.0,0.0,0.0,0.0,0.0,-2.7193,-3.0754,-3.3516,-3.5525,-3.6738,-3.6542,-3.6167,-3.5614,-3.3847,-3.1201,-2.7673,-2.5661,-2.394,0.0,0.0,0.0,0.0,0.0,0.0,0.0,0.0,0.0,0.0,0.0,0.0,0.0,0.0,0.0,0.0,0.0,0.0,0.0,0.0,0.0,0.0,0.0,-2.0387,0.0,0.0,0.0,0.0,0.0,0.0,0.0,0.0,0.0,-2.9179,-3.1101,-3.357,-3.6372,-3.7979,-3.9098,-3.9669,0.0,0.0,0.0,0.0,0.0,0.0,0.0,-3.8767,-3.9035,-3.8581,-3.8318,-3.8799,-4.0359,-4.101,-3.9271,0.0,0.0,-3.4879,-3.2237,-3.1322,-3.2749,-3.2479,-3.2449,-3.3904,-3.4442,-3.4655,0.0,0.0,0.0,0.0,0.0,0.0,0.0,0.0,-2.7046,-2.723,0.0,-2.6009,0.0,0.0,0.0,0.0,0.0,-2.6948,0.0,0.0,-3.3827,-3.5249,-3.5335,-3.599,-3.599,-3.537,-3.6145,-3.5027,-3.1897,-2.6335,0.0,0.0,0.0,0.0,0.0,0.0,-2.9996,-3.2996,-3.5218,-3.6774,-3.7505,-3.6827,-3.6417,-3.6274,-3.4115,-3.217,-3.0594,-2.9313,-2.7295,-2.4242,-2.2809,0.0,0.0,0.0,0.0,0.0,0.0,0.0,0.0,0.0,0.0,0.0,0.0,0.0,0.0,0.0,0.0,0.0,0.0,0.0,0.0,-2.0812,0.0,0.0,0.0,0.0,0.0,0.0,0.0,0.0,0.0,0.0,-3.1524,-3.4007,-3.669,-3.8451,0.0,0.0,0.0,0.0,-4.2596,-4.3332,-4.2773,-4.2198,-4.213,-4.2149,-4.1888,-4.115,0.0,0.0,-4.1187,-4.2319,-4.2912,-4.1107,-4.1691,-4.1959,-4.1047,-3.853,-3.7255,-3.8487,-3.7394,-3.6896,-3.8093,-3.8879,-3.9443,-2.9927,0.0,0.0,0.0,0.0,-2.9972,-3.1189,-3.3184,-3.2844,-3.2211,-3.1251,-3.0325,0.0,0.0,0.0,0.0,0.0,0.0,-3.2475,-3.3978,-3.5335,-3.6559,-3.7611,-3.7836,-3.7818,-3.7611,-3.7387,-3.6782,-3.5832,-3.3104,-2.9214,-2.4357,0.0,0.0,0.0,0.0,-3.0836,-3.3247,-3.5208,-3.6574,-3.7372,-3.729,-3.6702,-3.5578,-3.4383,-3.3086,-3.1672,-3.0571,-2.924,-2.7655,-2.4961,0.0,0.0,0.0,0.0,0.0,0.0,0.0,0.0,0.0,0.0,0.0,0.0,0.0,0.0,0.0,0.0,0.0,0.0,0.0,-2.1763,-2.188,-2.2803,0.0,0.0,0.0,0.0,0.0,0.0,0.0,0.0,0.0,-3.8002,-3.8887,-4.0171,0.0,0.0,-4.2672,-4.31,-4.3205,-4.3297,-4.3556,-4.3323,0.0,-4.3094,-4.2596,-4.2529,-4.352,-4.4579,-4.5093,-4.4566,-4.4924,-4.5079,-4.4502,-4.4688,-4.4766,-4.4342,-4.1826,-4.0114,-4.0662,-4.0449,-4.0401,-4.1225,-4.1529,-4.159,-3.4446,-3.2839,-3.1595,-3.1823,-3.2934,-3.2676,-3.3795,-3.5803,-3.5168,-3.4889,-3.4669,-3.3939,-3.2555,-3.069,-2.9629,0.0,0.0,0.0,-3.5232,-3.6991,-3.7439,-3.8318,-3.9439,-3.9508,-3.9491,-3.9457,-3.8732,-3.8353,-3.8336,-3.7129,-3.4108,-2.949,0.0,0.0,-2.871,-3.0821,-3.2985,-3.5174,-3.6327,-3.7147,-3.7623,-3.7514,-3.6879,-3.5581,-3.4902,-3.402,-3.2906,-3.1833,-3.084,-2.9899,-2.7497,-2.4968,0.0,0.0,0.0,0.0,0.0,0.0,0.0,0.0,0.0,0.0,0.0,-1.6665,-1.4896,0.0,0.0,0.0,-2.0369,-2.2546,-2.4895,-2.5192,0.0,0.0,0.0,0.0,0.0,0.0,0.0,-3.7652,-3.9761,-4.1417,-4.2407,-4.2845,-4.3329,-4.4021,-4.3847,-4.3887,-4.4523,0.0,-4.4276,-4.4585,-4.4608,-4.4567,-4.4568,-4.4117,-4.4121,-4.5094,-4.5666,-4.5977,-4.5997,-4.5986,-4.5994,-4.5994,-4.5994,-4.5983,-4.5941,-4.4211,-4.2918,-4.3185,-4.2929,-4.2919,-4.3541,-4.3569,-4.351,-3.8508,-3.8234,-3.5033,-3.4213,-3.492,-3.4936,-3.5342,-3.5909,-3.5268,-3.5851,-3.7339,-3.6787,-3.6139,-3.5345,-3.4035,0.0,-3.5594,-3.6335,-3.7784,-3.9784,-3.9784,-4.0181,-4.0871,-4.0871,-4.0871,-4.0853,-4.0146,-3.9784,-3.975,-3.9094,-3.768,-3.5559,-3.3571,-3.2925,-3.356,-3.4364,-3.5924,-3.8117,-3.8117,-3.8123,-3.8111,-3.7641,-3.696,-3.604,-3.5492,-3.4829,-3.4023,-3.2936,-3.1965,-3.1136,-3.0001,-2.7919,-2.4849,0.0,0.0,0.0,0.0,0.0,0.0,0.0,0.0,0.0,0.0,0.0,0.0,0.0,0.0,0.0,-2.412,0.0,-2.8307,-2.9826,0.0,0.0,0.0,-3.4423,-3.6316,-3.8576,-4.0329,-4.1195,0.0,0.0,-4.5007,-4.5689,-4.5891,-4.5111,-4.4353,-4.4469,-4.6093,-4.5594,-4.5372,-4.6015,-4.6172,-4.6171,-4.6017,-4.5947,-4.5881,-4.592,-4.5988,-4.5977,-4.5977,-4.5997,-4.5997,-4.5997,-4.5977,-4.5997,-4.5983,-4.5836,-4.5925,-4.5557,-4.4884,-4.4511,-4.5036,-4.5129,-4.5067,-3.8508,-3.8415,-3.7589,-3.708,-3.6877,-3.7105,-3.7037,-3.6766,-3.7042,-3.6949,-3.6685,-3.7298,-3.7486,-3.7407,-3.7882,-3.8284,-3.8663,-3.9439,-4.0095,-4.0578,-4.0595,-4.0698,-4.0871,-4.0871,-4.0871,-4.0871,-4.0681,-4.0595,-4.0595,-4.0422,-3.9767,-3.8646,-3.8138,-3.6834,-3.4886,-3.6115,-3.7326,-3.8495,-3.8608,-3.85,-3.8111,-3.8135,-3.7226,-3.5261,-3.5207,-3.461,-3.3458,-3.2421,-3.1725,-3.1378,-2.9771,-2.8088,-2.6414,-2.4097,0.0,0.0,0.0,0.0,0.0,0.0,0.0,0.0,0.0,-2.3528,-1.8966,0.0,-2.5195,0.0,-2.7629,-2.965,-3.0819,-3.1928,0.0,0.0,-3.7106,-3.8327,-4.1321,-4.1704,-4.2272,-4.372,-4.4513,-4.5163,-4.5806,-4.6079,-4.6118,-4.591,-4.5715,-4.5767,-4.6173,-4.6081,-4.5991,-4.6206,-4.6243,-4.6211,-4.6209,-4.6147,-4.6079,-4.6076,-4.6036,-4.5977,-4.5977,-4.5977,-4.5977,-4.5977,-4.5977,-4.5997,-4.5986,-4.5994,-4.598,-4.5912,-4.5686,-4.5534,-4.5703,-4.5577,-4.5437,-3.9416,-3.94,-3.9416,-3.9016,-3.8385,-3.8255,-3.7979,-3.7732,-3.7997,-3.7839,-3.7357,-3.8116,-3.85,-3.8622,-3.9323,-3.9754,-4.0014,-4.0443,-4.0745,-4.0871,-4.0871,-4.0871,-4.0871,-4.0871,-4.0871,-4.0871,-4.0871,-4.0871,-4.0871,-4.0871,-4.0664,-4.0233,-4.0215,-3.9388,-3.7818,-3.8232,-3.8836,-3.9595,-3.9385,-3.892,-3.8363,-3.8286,-3.7478,-3.5857,-3.5386,-3.4717,-3.3629,-3.2499,-3.1859,-3.1796,-3.0283,-2.9136,-2.855,-2.66,-2.5159,0.0,0.0,0.0,0.0,0.0,0.0,0.0,0.0,0.0,0.0,0.0,-2.833,-2.9143,-3.1503,-3.3552,-3.4912,-3.6164,-3.7848,-4.02,-4.0815,-4.1837,-4.383,-4.3977,-4.4316,-4.5257,-4.5418,-4.5636,-4.6137,-4.6527,-4.6624,-4.6274,-4.6865,-4.7067,-4.6366,-4.6201,-4.6231,-4.624,-4.6218,-4.62,-4.621,-4.6182,-4.6152,-4.6147,-4.6091,-4.6046,-4.6046,-4.6008,-4.5977,-4.5977,-4.5977,-4.5977,-4.5997,-4.5986,-4.5994,-4.5994,-4.598,-4.5932,-4.5906,-4.5771,-4.5658,-4.0739,-4.0662,-4.0662,-4.0278,-3.9601,-3.9031,-3.8662,-3.8508,-3.8573,-3.8639,-3.8707,-3.9145,-3.9381,-3.9541,-3.9843,-4.0172,-4.0491,-4.0491,-4.0637,-4.0888,-4.0871,-4.0871,-4.0871,-4.0871,-4.0871,-4.0871,-4.0871,-4.0871,-4.0871,-4.0871,-4.0871,-4.0871,-4.0871,-4.0871,-4.0836,-4.0181,-4.0198,-4.0871,-4.0198,-3.9474,-3.8794,-3.8447,-3.783,-3.6952,-3.5811,-3.4865,-3.4097,-3.287,-3.2278,-3.2374,-3.1242,-3.0646,-3.081,-2.9312,-2.8165,0.0,-2.6812,0.0,0.0,0.0,0.0,0.0,0.0,0.0,0.0,-3.0988,-3.1943,-3.3349,-3.5644,-3.768,-3.9265,-4.0896,-4.2251,-4.3188,-4.4117,-4.4718,-4.4858,-4.552,-4.6065,-4.6231,-4.626,-4.6305,-4.6571,-4.7209,-4.7365,-4.6878,-4.7793,-4.8132,-4.6904,-4.6507,-4.6396,-4.6245,-4.6206,-4.6214,-4.6241,-4.6328,-4.6365,-4.6251,-4.6289,-4.6209,-4.6118,-4.618,-4.6153,-4.6085,-4.6249,-4.6366,-4.6191,-4.6191,-4.6171,-4.623,-4.6111,-4.598,-4.5932,-4.5887,-4.5893,-4.1909,-4.1401,-4.1401,-4.0986,-4.0339,-4.0201,-3.9524,-3.8508,-3.8753,-3.9235,-3.9795,-4.0135,-4.0648,-4.1259,-4.183,-4.1903,-4.149,-4.149,-4.1312,-4.0871,-4.0871,-4.0871,-4.0871,-4.0871,-4.0871,-4.0871,-4.0871,-4.0871,-4.0871,-4.0871,-4.0871,-4.0871,-4.0871,-4.0871,-4.0871,0.0,0.0,0.0,-4.0733,-4.0395,-3.9842,-3.9241,-3.8456,-3.7256,-3.5901,0.0,-3.4115,-3.3234,-3.284,-3.2985,-3.2392,0.0,0.0,0.0,0.0,0.0,0.0,0.0,0.0,0.0,0.0,0.0,-3.4434,-3.377,-3.3163,-3.6083,-3.7905,-3.7679,-3.9868,-4.1322,-4.1144,-4.2744,-4.3901,-4.4288,-4.5065,-4.5576,-4.5609,-4.5796,-4.6181,-4.6911,-4.7096,-4.7425,-4.8068,-4.8433,-4.8475,-4.828,-4.8592,-4.867,-4.8327,-4.7664,-4.7015,-4.6365,-4.6382,-4.6323,-4.6296,-4.6868,-4.7031,-4.6482,-4.6781,-4.6845,-4.6391,-4.6773,-4.6803,-4.628,-4.7162,-4.7822,-4.7201,-4.7065,-4.7065,-4.7045,-4.6521,-4.5986,-4.5972,-4.5937,-4.5893,-4.2417,0.0,-4.2094,-4.1878,0.0,-4.1555,-4.0986,-4.0016,-3.9849,-3.9757,-3.985,-4.0539,-4.0695,-4.0383,-4.1246,-4.1619,-4.1572,-4.1747,-4.1886,-4.2026,-4.2009,-4.1802,-4.1423,-4.1423,-4.1233,-4.0888,-4.0871,-4.0871,-4.0871,-4.0871,-4.0871,-4.0871,-4.0871,-4.0871,-4.0871,-4.0871,-4.0871,-4.0871,-4.0871,-4.0822,-4.0635,-4.0106,-3.9177,-3.7877,-3.6897,0.0,0.0,0.0,0.0,0.0,0.0,0.0,0.0,0.0,0.0,-3.3146,-3.3612,-3.3947,-3.4146,-3.5282,-3.6799,-3.8527,-3.9437,-3.902,-3.6936,-3.9456,-4.1162,-4.12,-4.2408,-4.3178,-4.3285,-4.4153,-4.4823,-4.5002,-4.5796,-4.6379,-4.6477,-4.6867,-4.732,-4.7727,-4.7928,-4.8186,-4.8633,-4.9134,-4.9196,-4.8943,-4.9527,-4.9703,-4.8943,-4.8417,-4.7956,-4.7554,-4.7515,-4.7532,-4.7582,-4.7842,-4.8037,-4.7651,-4.7832,-4.7903,-4.7497,-4.778,-4.7856,-4.7464,-4.8059,-4.8405,-4.8075,-4.7939,-4.7958,-4.792,-4.7589,-4.7279,-4.7218,-4.6574,-4.5949,-4.2879,-4.2771,-4.2786,-4.2725,-4.2602,-4.2602,-4.2294,-4.1724,0.0,0.0,0.0,-4.0928,-4.08,-3.9913,-4.0896,-4.1461,-4.1838,-4.2097,-4.2547,-4.3232,-4.3232,-4.2819,-4.2199,-4.2199,-4.1888,-4.135,-4.1147,-4.106,-4.1078,-4.094,-4.0871,-4.0871,-4.0871,-4.0871,-4.0871,-4.0871,-4.0871,-4.0871,-4.0935,-4.1041,-4.1237,-4.0745,-3.9958,-3.8911,-3.8198,-3.7184,-3.5899,-3.5257,-3.5019,-3.5213,-3.4663,-3.4788,-3.5807,-3.5846,-3.6213,-3.7154,-3.8051,-3.8634,-3.8865,-3.9821,-4.0797,-4.1783,-4.3133,-4.2981,-4.0722,-4.1958,-4.3133,-4.3853,-4.391,-4.4218,-4.4887,-4.5255,-4.5466,-4.5611,-4.6492,-4.7116,-4.7272,-4.7863,-4.8338,-4.8623,-4.8742,-4.891,-4.9148,-4.9789,-4.9987,-4.9578,-5.0377,-5.0852,-4.9566,-4.8982,-4.8709,-4.8638,-4.8574,-4.8724,-4.8794,-4.8942,-4.8957,-4.8697,-4.8855,-4.8981,-4.8848,-4.8867,-4.8859,-4.8581,-4.8825,-4.9022,-4.8884,-4.8835,-4.8813,-4.8832,-4.8696,-4.858,-4.8463,-4.7501,-4.6554,-4.3972,-4.3433,-4.3433,-4.311,-4.2602,-4.2602,-4.2556,-4.2355,-4.1093,-4.0789,-4.1251,-4.214,-4.2774,-4.3171,-4.4013,-4.4133,-4.3714,-4.3749,-4.3563,-4.3232,-4.3232,-4.3162,-4.3042,-4.3059,-4.3007,-4.2852,-4.2164,-4.1836,-4.1767,-4.1198,-4.0871,-4.0871,-4.0871,-4.0871,-4.0871,-4.0871,-4.0871,-4.0871,-4.1088,-4.1255,-4.1542,-4.1004,-4.0719,-4.0655,-3.934,-3.8558,-3.8308,-3.8165,-3.8276,-3.8524,-3.8585,-3.87,-3.8838,-3.8612,-3.8526,-3.8512,-3.9556,-4.0277,-4.0323,-4.1964,-4.3366,-4.4264,-4.4611,-4.427,-4.3322,-4.4004,-4.4592,-4.4724,-4.4724,-4.4834,-4.5163,-4.5799,-4.6287,-4.6472,-4.7222,-4.7779,-4.7818,-4.8084,-4.854,-4.9211,-4.9504,-4.9892,-5.0442,-5.0809,-5.0909,-5.0899,-5.1023,-5.1164,-5.0716,-4.9683,-4.8884,-4.8794,-4.8801,-4.8795,-4.9036,-4.9477,-4.9605,-4.8923,-4.9499,-4.9696,-4.9115,-4.9453,-4.9564,-4.888,-4.9822,-5.033,-4.9874,-4.9712,-4.9709,-4.9679,-4.926,-4.8774,-4.8794,-4.8463,-4.8219,-4.4402,-4.4125,-4.4125,-4.3941,-4.3664,-4.3279,-4.3125,-4.3106,-4.2529,-4.1944,-4.1653,-4.2189,-4.2553,-4.2785,-4.3647,-4.4114,-4.4164,-4.4323,-4.442,-4.4406,-4.4406,-4.4165,-4.3853,-4.3768,-4.3561,-4.3164,-4.2819,-4.2406,-4.1992,-4.163,-4.1285,-4.0905,-4.0871,-4.0871,-4.0871,-4.0871,-4.0871,-4.0871,-4.1071,-4.1318,-4.1604,-4.147,-4.1292,-4.1109,-4.0378,-3.9825,-3.9432,-3.9397,-3.9473,-3.9587,-3.9643,-3.986,-4.0172,-4.0107,-4.0093,-4.03,-4.1219,-4.1828,-4.1894,-4.331,-4.4341,-4.4751,-4.4846,-4.4743,-4.4383,-4.4706,-4.4895,-4.4914,-4.5312,-4.5621,-4.5779,-4.6553,-4.714,-4.7191,-4.8041,-4.8603,-4.876,-4.9221,-4.9679,-5.0132,-5.0356,-5.0596,-5.0965,-5.1093,-5.118,-5.1201,-5.1276,-5.13,-5.13,-5.0677,-5.0151,-5.017,-5.0158,-5.0146,-5.016,-5.0459,-5.0563,-5.0243,-5.0516,-5.0606,-5.0266,-5.0554,-5.0468,-5.0233,-5.0813,-5.1018,-5.0633,-5.0586,-5.0598,-5.0573,-5.0348,-5.0037,-4.9998,-5.0017,-4.9668,-4.471,-4.4572,-4.4572,-4.4572,-4.4526,-4.4033,-4.3802,-4.38,-4.3684,-4.3177,-4.2435,-4.2586,-4.2749,-4.2763,-4.3432,-4.3997,-4.4434,-4.4746,-4.5069,-4.5371,-4.5441,-4.5096,-4.4578,-4.4527,-4.4234,-4.3716,-4.3509,-4.3095,-4.2526,-4.2164,-4.1595,-4.0957,-4.0871,-4.0871,-4.0871,-4.0871,-4.0871,-4.0918,-4.118,-4.1391,-4.1604,-4.1849,-4.1801,-4.1431,-4.1377,-4.1074,-4.0485,-4.0449,-4.0471,-4.051,-4.0548,-4.0721,-4.1213,-4.1353,-4.1589,-4.1983,-4.2662,-4.3148,-4.3314,-4.4148,-4.4659,-4.4712,-4.4821,-4.4895,-4.4914,-4.5085,-4.5198,-4.5255,-4.5786,-4.6222,-4.6531,-4.7352,-4.7924,-4.7986,-4.8789,-4.9382,-4.9624,-5.0202,-5.0682,-5.0841,-5.0917,-5.0956,-5.099,-5.1043,-5.1105,-5.1201,-5.1267,-5.13,-5.13,-5.13,-5.13,-5.13,-5.13,-5.1211,-5.1303,-5.1264,-5.1252,-5.1382,-5.1323,-5.1265,-5.1244,-5.1261,-5.1281,-5.1189,-5.1224,-5.1254,-5.1219,-5.1167,-5.1152,-5.1102,-5.1011,-5.1105,-5.1047,-5.1066,-5.0794,-4.5141,-4.4618,-4.4587,-4.4572,-4.4556,-4.4479,-4.4449,-4.4463,-4.3905,-4.393,-4.4322,-4.4573,-4.495,-4.5449,-4.512,-4.5049,-4.5086,-4.5247,-4.5371,-4.5371,-4.5441,-4.5389,-4.5285,-4.5303,-4.5285,-4.5079,-4.4492,-4.4096,-4.3854,-4.2647,-4.163,-4.0957,-4.0871,-4.0905,-4.0888,-4.0888,-4.0871,-4.0935,-4.1335,-4.156,-4.1604,-4.2037,-4.2234,-4.218,-4.2162,-4.2162,-4.1966,-4.2073,-4.2159,-4.2418,-4.2382,-4.242,-4.2517,-4.3011,-4.3222,-4.3065,-4.3545,-4.3974,-4.4154,-4.4393,-4.4551,-4.4693,-4.4859,-4.4952,-4.4971,-4.5634,-4.6089,-4.6165,-4.6203,-4.662,-4.7226,-4.8105,-4.8605,-4.8643,-4.9314,-4.9924,-5.0083,-5.0301,-5.0507,-5.0701,-5.0822,-5.0906,-5.0921,-5.0976,-5.1069,-5.1171,-5.1239,-5.1292,-5.132,-5.1417,-5.1437,-5.1378,-5.1339,-5.1359,-5.1347,-5.13,-5.1308,-5.1328,-5.1328,-5.1316,-5.1317,-5.131,-5.1308,-5.1296,-5.1307,-5.1291,-5.1274,-5.1269,-5.121,-5.1211,-5.1219,-5.1202,-5.1202,-5.1202,-5.0989,-4.5788,-4.5187,-4.5172,-4.4941,-4.4603,-4.4572,-4.4572,-4.4617,-4.4787,-4.4997,-4.5357,-4.5783,-4.6007,-4.5934,-4.5597,-4.5555,-4.5829,-4.5507,-4.5441,-4.5441,-4.5441,-4.5441,-4.5441,-4.5441,-4.5441,-4.5423,-4.5113,-4.4716,-4.4165,-4.3199,-4.2526,-4.2265,-4.1785,-4.1543,-4.1509,-4.1112,-4.0871,-4.0935,-4.138,-4.1604,-4.1648,-4.2061,-4.2287,-4.2287,-4.2287,-4.2287,-4.2287,-4.2287,-4.2351,-4.2472,-4.2472,-4.2534,-4.2711,-4.2921,-4.3196,-4.3426,-4.3795,-4.4036,-4.4116,-4.4266,-4.4458,-4.4578,-4.5183,-4.5552,-4.5691,-4.643,-4.7093,-4.7586,-4.7662,-4.7832,-4.8174,-4.8913,-4.9405,-4.9443,-4.9709,-4.9986,-5.0163,-5.0259,-5.038,-5.0664,-5.0756,-5.0825,-5.089,-5.0947,-5.1043,-5.1128,-5.123,-5.1345,-5.1331,-5.171,-5.2041,-5.2138,-5.2469,-5.2314,-5.1612,-5.13,-5.13,-5.13,-5.13,-5.1308,-5.1308,-5.131,-5.131,-5.1308,-5.1304,-5.1305,-5.1288,-5.1265,-5.121,-5.1201,-5.1219,-5.1202,-5.1202,-5.1202,-5.1202,-4.648,-4.588,-4.568,-4.5203,-4.4587,-4.4572,-4.4572,-4.4648,-4.5216,-4.5478,-4.5778,-4.6464,-4.6697,-4.6479,-4.6212,-4.6124,-4.622,-4.5868,-4.5613,-4.5458,-4.5441,-4.5441,-4.5441,-4.5441,-4.5441,-4.5441,-4.5423,-4.5027,-4.4302,-4.3836,-4.3388,-4.3162,-4.2595,-4.2199,-4.194,-4.1423,-4.1125,-4.1029,-4.1408,-4.1648,-4.1736,-4.2061,-4.2287,-4.2287,-4.2287,-4.2287,-4.2287,-4.2287,-4.2287,-4.2287,-4.2369,-4.2472,-4.2613,-4.275,-4.305,-4.3545,-4.386,-4.4005,-4.4005,-4.4177,-4.4466,-4.4853,-4.5574,-4.6123,-4.6594,-4.7283,-4.8003,-4.8534,-4.8875,-4.8988,-4.9083,-4.9538,-4.986,-4.9879,-4.9879,-4.9986,-5.0182,-5.0207,-5.031,-5.0567,-5.0663,-5.0756,-5.0893,-5.1179,-5.1438,-5.1532,-5.1783,-5.193,-5.2044,-5.2567,-5.2937,-5.2976,-5.3502,-5.321,-5.1982,-5.1729,-5.1612,-5.132,-5.13,-5.13,-5.13,-5.1296,-5.131,-5.1308,-5.1294,-5.1289,-5.1296,-5.1244,-5.1209,-5.1208,-5.1202,-5.1202,-5.1202,-5.1202,-5.1202,-4.7157,-4.6511,-4.5849,-4.5218,-4.4587,-4.4572,-4.4572,-4.4572,-4.4632,-4.5067,-4.5713,-4.6416,-4.7139,-4.7685,-4.725,-4.6749,-4.6281,-4.6433,-4.6182,-4.5561,-4.5475,-4.5441,-4.5441,-4.5441,-4.5441,-4.5441,-4.5423,-4.5061,-4.4354,-4.4251,-4.3922,-4.3283,-4.3214,-4.275,-4.2199,-4.2009,-4.1722,-4.1389,-4.1558,-4.1728,-4.1909,-4.2181,-4.2287,-4.2287,-4.2287,-4.2287,-4.2287,-4.2287,-4.2287,-4.2287,-4.2534,-4.2573,-4.2391,-4.2844,-4.3286,-4.3579,-4.386,-4.4023,-4.4092,-4.4251,-4.4699,-4.551,-4.5904,-4.635,-4.7321,-4.8136,-4.8647,-4.8723,-4.9386,-4.9746,-4.9746,-4.9803,-4.9879,-4.9879,-4.9879,-4.9986,-5.0163,-5.0163,-5.0283,-5.0423,-5.0644,-5.0873,-5.0971,-5.1717,-5.2161,-5.2472,-5.3075,-5.3536,-5.3515,-5.3708,-5.3833,-5.3872,-5.3911,-5.3638,-5.2781,-5.2547,-5.2197,-5.1963,-5.1885,-5.1515,-5.1359,-5.1308,-5.1355,-5.1327,-5.131,-5.1307,-5.1279,-5.1249,-5.1217,-5.1219,-5.1214,-5.1202,-5.1202,-5.1202,-5.1202,-4.7865,-4.7142,-4.6049,-4.5449,-4.5203,-4.4772,-4.4572,-4.4572,-4.4572,-4.4723,-4.5067,-4.5769,-4.6534,-4.7188,-4.7595,-4.7716,-4.7557,-4.7322,-4.6814,-4.6251,-4.6182,-4.5924,-4.5458,-4.5441,-4.5441,-4.5441,-4.5441,-4.5285,-4.5061,-4.501,-4.4872,-4.4578,-4.4113,-4.3716,-4.3423,-4.2975,-4.2725,-4.2636,-4.245,-4.2414,-4.2625,-4.2412,-4.2287,-4.2287,-4.2287,-4.2287,-4.2287,-4.2287,-4.2287,-4.2287,-4.2391,-4.2512,-4.2613,-4.3142,-4.3495,-4.3631,-4.386,-4.4246,-4.4748,-4.4904,-4.5394,-4.6382,-4.7051,-4.757,-4.8215,-4.8951,-4.9462,-4.9519,-4.9671,-4.9879,-4.9879,-4.9879,-4.9879,-4.9879,-4.9879,-4.9933,-5.0005,-5.0012,-5.0089,-5.034,-5.0947,-5.1548,-5.1775,-5.244,-5.3073,-5.3203,-5.3533,-5.3786,-5.3955,-5.4294,-5.473,-5.4827,-5.5178,-5.5275,-5.4418,-5.3736,-5.3307,-5.3171,-5.3034,-5.2995,-5.2898,-5.2314,-5.2233,-5.2129,-5.1913,-5.1628,-5.1699,-5.1644,-5.1549,-5.1463,-5.1458,-5.1583,-5.1202,-5.1435,-5.1377,-4.8219,-4.7496,-4.6619,-4.6095,-4.5849,-4.5187,-4.491,-4.4864,-4.4679,-4.4572,-4.4708,-4.5348,-4.5969,-4.6588,-4.7589,-4.8165,-4.8354,-4.8008,-4.7516,-4.6955,-4.6921,-4.6682,-4.6199,-4.5924,-4.5803,-4.5768,-4.5474,-4.5441,-4.5441,-4.5441,-4.5441,-4.5372,-4.4889,-4.4492,-4.4234,-4.3819,-4.3573,-4.3454,-4.322,-4.3205,-4.3421,-4.3195,-4.3054,-4.3001,-4.2822,-4.2555,-4.2305,-4.2287,-4.2287,-4.2328,-4.2409,-4.2573,-4.2882,-4.3232,-4.364,-4.3962,-4.4286,-4.4785,-4.5528,-4.5677,-4.614,-4.7136,-4.7808,-4.8407,-4.8983,-4.9549,-4.9841,-4.9879,-4.9879,-4.9879,-4.9955,-5.0144,-5.0201,-4.9974,-4.9879,-4.9879,-4.9898,-5.0144,-5.0556,-5.1103,-5.1737,-5.2199,-5.2473,-5.328,-5.379,-5.3994,-5.4252,-5.4529,-5.4702,-5.5122,-5.5606,-5.5665,-5.6035,-5.6074,-5.5626,-5.508,-5.4203,-5.3931,-5.3814,-5.397,-5.397,-5.3405,-5.3034,-5.2914,-5.2656,-5.2303,-5.2106,-5.2055,-5.2012,-5.1969,-5.2258,-5.255,-5.2177,-5.1824,-5.1824,-4.8235,-4.7681,-4.7588,-4.7127,-4.6542,-4.5803,-4.5557,-4.5403,-4.4833,-4.4572,-4.4723,-4.5348,-4.5624,-4.604,-4.7188,-4.8063,-4.8325,-4.8515,-4.8215,-4.7601,-4.7662,-4.7665,-4.7476,-4.6872,-4.6544,-4.6475,-4.582,-4.5422,-4.5441,-4.5441,-4.5441,-4.5371,-4.5389,-4.4992,-4.4337,-4.4337,-4.4075,-4.3837,-4.3833,-4.4014,-4.4306,-4.4369,-4.4392,-4.4375,-4.3839,-4.3179,-4.2448,-4.2341,-4.2287,-4.231,-4.2534,-4.2844,-4.316,-4.3342,-4.3723,-4.4683,-4.5119,-4.5695,-4.6364,-4.6513,-4.6945,-4.7847,-4.814,-4.8698,-4.9409,-4.9787,-4.9879,-4.9879,-4.9974,-4.9993,-5.0126,-5.0732,-5.0884,-5.0126,-5.0126,-5.0201,-5.0258,-5.0732,-5.1573,-5.2303,-5.266,-5.2839,-5.3276,-5.3995,-5.4591,-5.4901,-5.5409,-5.5877,-5.5878,-5.6086,-5.6377,-5.6405,-5.6425,-5.6327,-5.6405,-5.6347,-5.5353,-5.4554,-5.4418,-5.4418,-5.4515,-5.4164,-5.397,-5.3822,-5.3498,-5.3156,-5.3051,-5.3025,-5.3135,-5.3169,-5.3435,-5.339,-5.3075,-5.2722,-5.2535,-4.8481,-4.8235,-4.7788,-4.7496,-4.7142,-4.608,-4.5588,-4.5526,-4.488,-4.4572,-4.4648,-4.4858,-4.52,-4.5841,-4.6742,-4.7539,-4.8239,-4.888,-4.8912,-4.8466,-4.8419,-4.8217,-4.7769,-4.7493,-4.7096,-4.6648,-4.6372,-4.5941,-4.5527,-4.5441,-4.5441,-4.5441,-4.5441,-4.532,-4.5044,-4.5044,-4.5044,-4.5055,-4.4778,-4.4771,-4.5014,-4.4778,-4.4624,-4.4589,-4.4375,-4.4125,-4.3857,-4.2876,-4.2323,-4.2323,-4.2391,-4.2825,-4.357,-4.4072,-4.4707,-4.5512,-4.5938,-4.6475,-4.7181,-4.7348,-4.7731,-4.86,-4.8927,-4.9213,-4.9636,-4.9816,-4.9879,-4.9955,-5.041,-5.0789,-5.094,-5.1528,-5.1642,-5.0903,-5.1282,-5.1547,-5.1585,-5.1831,-5.2125,-5.2465,-5.3103,-5.3519,-5.3838,-5.4614,-5.5306,-5.5459,-5.5865,-5.6154,-5.6219,-5.6308,-5.6388,-5.6474,-5.6483,-5.6483,-5.6483,-5.6483,-5.5996,-5.5431,-5.5275,-5.5139,-5.5158,-5.5061,-5.4885,-5.4691,-5.4367,-5.417,-5.4053,-5.4038,-5.4176,-5.4014,-5.3916,-5.3841,-5.377,-5.3622,-5.3427,-4.8604,-4.8558,-4.8158,-4.7989,-4.7865,-4.6773,-4.6188,-4.588,-4.5249,-4.4818,-4.4694,-4.4933,-4.5274,-4.5841,-4.6742,-4.7539,-4.8256,-4.9135,-4.9409,-4.9263,-4.9269,-4.8993,-4.8528,-4.8234,-4.7734,-4.7079,-4.6751,-4.6355,-4.5889,-4.5526,-4.5441,-4.5441,-4.5441,-4.5423,-4.5441,-4.5423,-4.5511,-4.5716,-4.5548,-4.5545,-4.5758,-4.5614,-4.5481,-4.5463,-4.5213,-4.5071,-4.4963,-4.3804,-4.3161,-4.3161,-4.3161,-4.356,-4.4299,-4.4705,-4.5315,-4.6122,-4.6614,-4.7104,-4.7826,-4.8078,-4.8348,-4.9001,-4.9289,-4.9446,-4.9615,-4.9741,-4.9879,-4.9993,-5.0656,-5.1206,-5.1338,-5.2267,-5.2551,-5.221,-5.2229,-5.257,-5.276,-5.2892,-5.3101,-5.3414,-5.3926,-5.4245,-5.4613,-5.502,-5.5705,-5.5807,-5.5956,-5.6112,-5.6181,-5.6275,-5.6368,-5.6446,-5.6483,-5.6483,-5.6483,-5.6483,-5.6483,-5.6347,-5.623,-5.6093,-5.6035,-5.586,-5.5684,-5.5645,-5.54,-5.5381,-5.5268,-5.5157,-5.5165,-5.4824,-5.463,-5.4942,-5.5085,-5.4547,-5.4295,-4.8604,-4.8604,-4.8604,-4.8558,-4.8466,-4.7773,-4.708,-4.6511,-4.5834,-4.5233,-4.4967,-4.5348,-4.5697,-4.6111,-4.7204,-4.8015,-4.848,-4.9152,-4.9649,-4.9849,-4.9907,-4.9804,-4.9666,-4.9148,-4.851,-4.7769,-4.7165,-4.6751,-4.6458,-4.5906,-4.5458,-4.5441,-4.5441,-4.5441,-4.5441,-4.5441,-4.5511,-4.5786,-4.5985,-4.6262,-4.6501,-4.6735,-4.6873,-4.6819,-4.6212,-4.5873,-4.5749,-4.5142,-4.4678,-4.4607,-4.441,-4.4575,-4.5006,-4.5183,-4.5711,-4.6676,-4.7056,-4.7611,-4.8292,-4.8601,-4.8816,-4.8906,-4.9193,-4.9384,-4.9415,-4.9683,-4.9947,-5.0098,-5.0837,-5.1395,-5.1755,-5.2817,-5.3613,-5.365,-5.3215,-5.3158,-5.365,-5.3764,-5.3992,-5.4541,-5.4863,-5.4933,-5.5015,-5.5301,-5.5531,-5.5745,-5.5921,-5.6036,-5.6168,-5.6251,-5.6338,-5.6417,-5.6455,-5.6483,-5.6483,-5.6483,-5.6483,-5.6483,-5.6483,-5.6483,-5.6483,-5.6347,-5.6269,-5.6249,-5.623,-5.6316,-5.6285,-5.6017,-5.5948,-5.5824,-5.5957,-5.637,-5.6123,-5.5477,-5.5169,-4.8604,-4.8604,-4.8604,-4.8604,-4.8512,-4.7896,-4.7219,-4.6557,-4.5895,-4.554,-4.5473,-4.5624,-4.6056,-4.6604,-4.7473,-4.808,-4.8526,-4.9152,-4.9666,-4.9935,-5.0011,-5.0011,-4.9993,-4.9786,-4.9269,-4.8562,-4.82,-4.7665,-4.6682,-4.6424,-4.601,-4.5441,-4.5492,-4.5458,-4.5441,-4.5441,-4.5563,-4.5786,-4.6038,-4.6332,-4.6572,-4.6842,-4.698,-4.6962,-4.6766,-4.6659,-4.6659,-4.648,-4.5749,-4.4696,-4.4607,-4.4892,-4.5584,-4.587,-4.6344,-4.7102,-4.7727,-4.8107,-4.8384,-4.8695,-4.8855,-4.889,-4.9146,-4.9244,-4.9276,-4.9555,-5.0033,-5.0591,-5.1499,-5.2343,-5.3006,-5.3916,-5.4484,-5.456,-5.4238,-5.42,-5.4446,-5.4598,-5.4693,-5.4882,-5.4901,-5.4931,-5.5,-5.5176,-5.5364,-5.5573,-5.5767,-5.5956,-5.6097,-5.6201,-5.6263,-5.6349,-5.6417,-5.6455,-5.6483,-5.6483,-5.6483,-5.6483,-5.6483,-5.6483,-5.6483,-5.6444,-5.6425,-5.6425,-5.6386,-5.6414,-5.6433,-5.6313,-5.6446,-5.6475,-5.6473,-5.6484,-5.6484,-5.6099,-5.6016,-4.8604,-4.8604,-4.8604,-4.8604,-4.8573,-4.8189,-4.7635,-4.6973,-4.6296,-4.6065,-4.6113,-4.6152,-4.6604,-4.7288,-4.8032,-4.856,-4.8872,-4.9273,-4.9666,-4.9935,-5.0011,-5.0011,-4.9993,-4.9993,-4.9769,-4.9321,-4.8976,-4.8355,-4.7631,-4.7234,-4.6648,-4.6096,-4.5924,-4.5768,-4.5441,-4.5423,-4.5511,-4.5786,-4.597,-4.6168,-4.6572,-4.6731,-4.6888,-4.6934,-4.6998,-4.6998,-4.698,-4.698,-4.6516,-4.5802,-4.5641,-4.5838,-4.623,-4.6462,-4.6791,-4.732,-4.777,-4.8075,-4.8288,-4.8514,-4.8731,-4.889,-4.9079,-4.9179,-4.9319,-4.9758,-5.0485,-5.0892,-5.2124,-5.3072,-5.3688,-5.4427,-5.4844,-5.4863,-5.4901,-5.4901,-5.4901,-5.4863,-5.4901,-5.4901,-5.4901,-5.4901,-5.4901,-5.5066,-5.5281,-5.548,-5.5684,-5.5884,-5.6052,-5.6132,-5.6214,-5.6286,-5.6359,-5.6417,-5.6483,-5.6483,-5.6483,-5.6483,-5.6483,-5.6483,-5.6483,-5.6483,-5.6483,-5.6483,-5.6483,-5.6483,-5.6483,-5.6483,-5.6488,-5.6491,-5.6493,-5.6497,-5.6483,-5.6497,-5.6484,-4.8604,-4.8604,-4.8604,-4.8604,-4.8604,-4.8589,-4.8081,-4.7419,-4.6788,-4.6593,-4.6665,-4.6775,-4.7237,-4.8032,-4.8593,-4.9124,-4.9411,-4.9488,-4.9683,-4.9877,-5.0011,-5.0011,-5.0011,-5.0011,-4.9959,-4.9804,-4.9235,-4.8907,-4.851,-4.8045,-4.7458,-4.6889,-4.6717,-4.6286,-4.5837,-4.563,-4.5667,-4.5752,-4.5837,-4.6087,-4.6429,-4.6572,-4.6731,-4.6888,-4.698,-4.698,-4.6998,-4.6998,-4.689,-4.6962,-4.6998,-4.6873,-4.6944,-4.6962,-4.7007,-4.7053,-4.7363,-4.7705,-4.7951,-4.8231,-4.8532,-4.8785,-4.9105,-4.9276,-4.9515,-5.0284,-5.1054,-5.1367,-5.27,-5.3516,-5.3992,-5.4541,-5.4825,-5.4901,-5.4901,-5.4901,-5.4901,-5.4901,-5.4901,-5.4901,-5.4901,-5.4901,-5.496,-5.5038,-5.521,-5.5364,-5.5554,-5.5788,-5.5956,-5.6071,-5.6154,-5.6255,-5.6308,-5.6378,-5.6426,-5.6483,-5.6483,-5.6483,-5.6483,-5.6483,-5.6483,-5.6483,-5.6483,-5.6483,-5.6483,-5.6483,-5.6483,-5.6492,-5.6492,-5.6496,-5.6489,-5.6481,-5.6499,-5.6518,-5.6513,-4.8604,-4.8604,-4.8604,-4.8604,-4.8604,-4.8589,-4.7942,-4.696,-4.6696,-4.6698,-4.6756,-4.6807,-4.7572,-4.8736,-4.894,-4.9185,-4.9471,-4.9488,-4.9683,-4.9935,-5.0011,-5.0011,-5.0011,-5.0011,-5.0011,-4.9942,-4.9855,-4.9424,-4.8924,-4.8683,-4.82,-4.7579,-4.7441,-4.7113,-4.6458,-4.632,-4.6152,-4.5874,-4.5821,-4.5972,-4.6235,-4.6477,-4.6619,-4.6731,-4.6888,-4.698,-4.6998,-4.6998,-4.6998,-4.6998,-4.6998,-4.6998,-4.6998,-4.6998,-4.6998,-4.707,-4.7294,-4.7493,-4.7663,-4.8075,-4.8439,-4.8661,-4.9341,-4.9926,-4.9982,-5.0878,-5.1809,-5.2433,-5.317,-5.3872,-5.4454,-5.4769,-5.4901,-5.4901,-5.4901,-5.4901,-5.4901,-5.4901,-5.4901,-5.4901,-5.4901,-5.4901,-5.4901,-5.4931,-5.5066,-5.5236,-5.5437,-5.564,-5.5808,-5.5973,-5.6083,-5.6149,-5.6275,-5.6328,-5.6388,-5.6455,-5.6483,-5.6483,-5.6483,-5.6483,-5.6483,-5.6483,-5.6483,-5.6483,-5.6483,-5.6483,-5.6483,-5.6483,-5.6492,-5.6496,-5.6485,-5.6484,-5.6493,-5.6523,-5.6549,-4.8604,-4.8604,-4.8604,-4.8604,-4.8604,-4.8589,-4.8449,-4.7947,-4.6978,-4.7296,-4.7907,-4.7306,-4.7638,-4.894,-4.9001,-4.9124,-4.935,-4.9547,-4.9725,-4.9935,-5.0011,-5.0011,-5.0011,-5.0011,-5.0011,-5.0011,-4.9993,-4.9717,-4.9459,-4.9286,-4.8976,-4.8286,-4.8252,-4.782,-4.7234,-4.7113,-4.6754,-4.629,-4.6152,-4.6152,-4.6058,-4.6284,-4.659,-4.6749,-4.6952,-4.6998,-4.6998,-4.6998,-4.6998,-4.6998,-4.6998,-4.6998,-4.6998,-4.6998,-4.6998,-4.7043,-4.7116,-4.7363,-4.7536,-4.7788,-4.8279,-4.8935,-4.9603,-5.0157,-5.0766,-5.1633,-5.2367,-5.3076,-5.3615,-5.4245,-5.4814,-5.4901,-5.4901,-5.4901,-5.4901,-5.4901,-5.4901,-5.4901,-5.4901,-5.4901,-5.4901,-5.4901,-5.4901,-5.4901,-5.5,-5.5203,-5.5236,-5.5437,-5.564,-5.5808,-5.5938,-5.6052,-5.6181,-5.6275,-5.6378,-5.6426,-5.6483,-5.6483,-5.6483,-5.6483,-5.6483,-5.6483,-5.6483,-5.6483,-5.6483,-5.6483,-5.6483,-5.6483,-5.6492,-5.6488,-5.6498,-5.6489,-5.6504,-5.6503,-5.6517,-4.8604,-4.862,-4.8769,-4.8769,-4.8852,-4.9,-4.9345,-4.9504,-4.7809,-4.8041,-4.923,-4.7776,-4.7852,-4.8798,-4.9018,-4.9063,-4.9307,-4.9607,-4.986,-4.9993,-5.0011,-5.0011,-5.0011,-5.0011,-5.0011,-5.0011,-5.0011,-4.9942,-4.9942,-4.9959,-4.9562,-4.9079,-4.901,-4.8596,-4.8045,-4.7855,-4.751,-4.6926,-4.6805,-4.6514,-4.6152,-4.6267,-4.6628,-4.6795,-4.6888,-4.6934,-4.6998,-4.6998,-4.6998,-4.6998,-4.6998,-4.6998,-4.6998,-4.6998,-4.6998,-4.6998,-4.7025,-4.716,-4.7392,-4.7674,-4.8314,-4.9556,-5.0059,-5.0563,-5.1528,-5.2398,-5.2989,-5.3474,-5.3978,-5.4566,-5.4822,-5.4901,-5.4901,-5.4901,-5.4901,-5.4901,-5.4901,-5.4901,-5.4901,-5.4901,-5.4901,-5.4901,-5.4901,-5.4901,-5.5028,-5.5121,-5.5176,-5.5255,-5.5456,-5.5662,-5.5808,-5.5956,-5.6097,-5.6251,-5.6338,-5.6426,-5.6483,-5.6483,-5.6483,-5.6483,-5.6483,-5.6483,-5.6483,-5.6483,-5.6483,-5.6483,-5.6483,-5.6483,-5.6492,-5.65,-5.6496,-5.6491,-5.6489,-5.6497,-5.6503,-4.8604,-4.8687,-4.9405,-4.971,-4.9789,-5.0384,-5.037,-4.9918,-4.8955,-4.8719,-4.8993,-4.815,-4.8113,-4.8861,-4.9018,-4.9185,-4.9428,-4.9742,-4.9935,-5.0011,-5.0011,-5.0011,-5.0011,-5.0011,-5.0011,-5.0011,-5.0011,-5.0011,-5.0011,-4.9976,-4.9873,-4.9786,-4.9735,-4.9338,-4.8821,-4.8596,-4.8269,-4.7648,-4.7527,-4.7185,-4.6723,-4.6673,-4.6818,-4.6797,-4.6802,-4.6778,-4.6934,-4.6998,-4.6998,-4.6998,-4.6998,-4.6998,-4.7069,-4.7069,-4.7051,-4.7015,-4.7087,-4.7231,-4.7357,-4.8021,-4.8641,-4.9492,-5.0618,-5.1687,-5.2418,-5.3088,-5.3553,-5.3899,-5.4213,-5.4629,-5.4648,-5.4791,-5.4901,-5.4901,-5.4901,-5.4901,-5.4901,-5.4901,-5.4901,-5.4901,-5.4901,-5.4901,-5.4901,-5.4901,-5.496,-5.5028,-5.5085,-5.5121,-5.5229,-5.5508,-5.5788,-5.5902,-5.604,-5.6168,-5.6297,-5.6407,-5.6483,-5.6483,-5.6483,-5.6483,-5.6483,-5.6483,-5.6483,-5.6483,-5.6483,-5.6483,-5.6483,-5.6483,-5.6492,-5.6492,-5.6488,-5.6484,-5.6484,-5.6481,-5.6484,-4.8604,-4.8687,-4.9566,-4.9868,-5.0026,-5.0767,-5.1173,-5.0919,-4.9619,-4.9358,-4.951,-4.871,-4.8306,-4.8861,-4.9018,-4.9185,-4.9488,-4.9624,-4.9818,-4.9935,-5.0011,-5.0011,-5.0011,-5.0011,-5.0011,-5.0011,-5.0011,-5.0011,-5.0011,-5.0011,-5.0011,-4.9993,-5.0011,-4.9786,-4.951,-4.9424,-4.8976,-4.8459,-4.8252,-4.7924,-4.72,-4.7124,-4.7033,-4.71,-4.6802,-4.6749,-4.6934,-4.6998,-4.6998,-4.6998,-4.6998,-4.7229,-4.7479,-4.7568,-4.7426,-4.7194,-4.739,-4.7604,-4.7729,-4.8504,-4.9325,-5.0232,-5.1304,-5.2146,-5.2834,-5.3438,-5.3851,-5.4108,-5.4401,-5.4578,-5.4629,-5.4791,-5.4871,-5.4901,-5.4901,-5.4901,-5.4901,-5.4901,-5.4901,-5.4901,-5.4901,-5.4901,-5.4901,-5.4901,-5.4901,-5.496,-5.5,-5.5057,-5.5066,-5.5339,-5.5684,-5.5827,-5.5937,-5.6126,-5.6244,-5.6338,-5.6446,-5.6455,-5.6483,-5.6483,-5.6483,-5.6483,-5.6483,-5.6483,-5.6483,-5.6483,-5.6483,-5.6483,-5.6483,-5.6483,-5.65,-5.6488,-5.6491,-5.6494,-5.6495,-4.8604,-4.8702,-4.955,-5.0042,-5.0245,-5.0995,-5.1842,-5.2009,-5.0336,-5.0055,-5.0787,-4.917,-4.845,-4.8923,-4.9124,-4.9307,-4.9547,-4.9607,-4.9801,-4.9935,-5.0011,-5.0011,-5.0011,-5.0011,-5.0011,-5.0011,-5.0011,-5.0011,-5.0011,-5.0011,-5.0011,-5.0011,-5.0011,-5.0011,-4.9942,-4.9873,-4.9528,-4.9286,-4.9028,-4.8665,-4.7997,-4.7434,-4.7352,-4.7706,-4.7272,-4.7186,-4.75,-4.7611,-4.7658,-4.764,-4.764,-4.7783,-4.8282,-4.8407,-4.8122,-4.7693,-4.8086,-4.8318,-4.8586,-4.9121,-5.0002,-5.0805,-5.15,-5.234,-5.3023,-5.3565,-5.387,-5.4055,-5.4352,-5.4552,-5.4584,-5.4761,-5.4871,-5.4901,-5.4901,-5.4901,-5.4901,-5.4901,-5.4901,-5.4901,-5.4901,-5.4901,-5.4901,-5.4901,-5.4901,-5.4901,-5.496,-5.496,-5.5,-5.5229,-5.5485,-5.5686,-5.5865,-5.6063,-5.6207,-5.6267,-5.6349,-5.6407,-5.6455,-5.6483,-5.6483,-5.6483,-5.6483,-5.6483,-5.6483,-5.6483,-5.6483,-5.6483,-5.6483,-5.6483,-5.6483,-5.6492,-5.6496,-5.6485,-5.6493,-4.8604,-4.8702,-4.955,-5.0322,-5.0995,-5.1769,-5.2607,-5.301,-5.1513,-5.1006,-5.1133,-4.9649,-4.8861,-4.9046,-4.9307,-4.9471,-4.9649,-4.9784,-4.9877,-5.0011,-5.0011,-5.0011,-5.0011,-5.0011,-5.0011,-5.0011,-5.0011,-5.0011,-5.0011,-5.0011,-5.0011,-5.0011,-5.0011,-5.0011,-5.0011,-5.0011,-4.9959,-4.9855,-4.9821,-4.9441,-4.87,-4.8014,-4.7904,-4.8067,-4.8102,-4.8249,-4.8427,-4.8603,-4.8752,-4.8853,-4.8942,-4.9049,-4.9192,-4.9192,-4.9174,-4.9085,-4.9139,-4.9192,-4.9335,-4.9924,-5.0533,-5.1272,-5.1982,-5.2754,-5.3281,-5.36,-5.3794,-5.3851,-5.4198,-5.4405,-5.4472,-5.4717,-5.4841,-5.4901,-5.4871,-5.4901,-5.4901,-5.4901,-5.4901,-5.4901,-5.4901,-5.4901,-5.4901,-5.4901,-5.4901,-5.4901,-5.4901,-5.4901,-5.4971,-5.5203,-5.5437,-5.5665,-5.5847,-5.6052,-5.6154,-5.6232,-5.6297,-5.6349,-5.6417,-5.6483,-5.6483,-5.6483,-5.6483,-5.6483,-5.6483,-5.6483,-5.6483,-5.6483,-5.6483,-5.6483,-5.6483,-5.6483,-5.6492,-5.6491,-5.6484,-4.8604,-4.8702,-4.9566,-5.0384,-5.1145,-5.1931,-5.2747,-5.3028,-5.1911,-5.1234,-5.093,-4.9723,-4.9107,-4.9168,-4.929,-4.9428,-4.9607,-4.9784,-4.9935,-5.0011,-5.0011,-5.0011,-5.0011,-5.0011,-5.0011,-5.0011,-5.0011,-5.0011,-5.0011,-5.0011,-5.0011,-5.0011,-5.0011,-5.0011,-5.0011,-5.0011,-4.9993,-4.9976,-4.9959,-4.9838,-4.939,-4.8786,-4.845,-4.8707,-4.8486,-4.8592,-4.8915,-4.8976,-4.9172,-4.9221,-4.9317,-4.9567,-4.987,-5.0031,-5.012,-5.0655,-5.0655,-5.0459,-5.0174,-5.0762,-5.1129,-5.1515,-5.2272,-5.2987,-5.3481,-5.3678,-5.3813,-5.3813,-5.4055,-5.4198,-5.4303,-5.4552,-5.4698,-5.4761,-5.4822,-5.4871,-5.4901,-5.4901,-5.4901,-5.4901,-5.4901,-5.4901,-5.4901,-5.4901,-5.4901,-5.4901,-5.4901,-5.4901,-5.5028,-5.5255,-5.5485,-5.5745,-5.5903,-5.604,-5.6097,-5.6181,-5.6244,-5.6308,-5.6417,-5.6483,-5.6483,-5.6483,-5.6483,-5.6483,-5.6483,-5.6483,-5.6483,-5.6483,-5.6483,-5.6483,-5.6483,-5.6483,-5.6483,-5.6492,-5.6498,-4.8604,-4.8702,-4.9325,-5.0167,-5.1145,-5.1753,-5.2607,-5.3247,-5.1877,-5.1234,-5.0828,-4.982,-4.9229,-4.929,-4.935,-4.9471,-4.9624,-4.9725,-4.986,-4.9935,-5.0011,-5.0011,-5.0011,-5.0011,-5.0011,-5.0011,-5.0011,-5.0011,-5.0011,-5.0011,-5.0011,-5.0011,-5.0011,-5.0011,-5.0011,-5.0011,-5.0011,-5.0011,-5.0011,-4.9976,-4.9838,-4.9424,-4.9296,-4.9184,-4.9003,-4.8853,-4.9204,-4.9531,-4.9699,-4.9817,-5.0018,-5.0388,-5.0727,-5.0834,-5.0994,-5.1369,-5.144,-5.128,-5.1066,-5.128,-5.1637,-5.192,-5.2379,-5.3066,-5.3639,-5.3813,-5.3813,-5.3813,-5.3981,-5.4091,-5.4163,-5.4368,-5.4552,-5.4648,-5.473,-5.4822,-5.4882,-5.4901,-5.4901,-5.4901,-5.4901,-5.4901,-5.4901,-5.4901,-5.4901,-5.4901,-5.4901,-5.4901,-5.5057,-5.5229,-5.5364,-5.5596,-5.5808,-5.5921,-5.599,-5.6067,-5.6168,-5.6275,-5.6378,-5.6426,-5.6426,-5.6455,-5.6483,-5.6483,-5.6483,-5.6483,-5.6483,-5.6483,-5.6483,-5.6483,-5.6483,-5.6483,-5.6483,-5.6483,-5.6488,-4.8604,-4.862,-4.8687,-4.9614,-5.107,-5.1129,-5.2043,-5.3129,-5.1794,-5.1166,-5.0875,-4.9853,-4.9333,-4.959,-4.9649,-4.9725,-4.9935,-4.9952,-5.0011,-4.9993,-5.0011,-5.0011,-5.0011,-5.0011,-5.0011,-5.0011,-5.0011,-5.0011,-5.0011,-5.0011,-5.0011,-5.0011,-5.0011,-5.0011,-5.0011,-5.0011,-5.0011,-5.0011,-5.0011,-5.0011,-5.0011,-4.9855,-4.9838,-4.9953,-5.0072,-5.0223,-5.0335,-5.0576,-5.082,-5.0923,-5.1073,-5.1191,-5.1351,-5.1422,-5.1565,-5.1637,-5.169,-5.1583,-5.1547,-5.1547,-5.1705,-5.192,-5.2379,-5.3066,-5.3639,-5.3774,-5.3813,-5.3813,-5.3944,-5.4055,-5.4127,-5.4268,-5.442,-5.4519,-5.4616,-5.4711,-5.4822,-5.4901,-5.4901,-5.4901,-5.4901,-5.4901,-5.4901,-5.4901,-5.4901,-5.4901,-5.4901,-5.4901,-5.4971,-5.5121,-5.5203,-5.5364,-5.5662,-5.5788,-5.5827,-5.5956,-5.6112,-5.6194,-5.6275,-5.6328,-5.6349,-5.6388,-5.6483,-5.6483,-5.6483,-5.6483,-5.6483,-5.6483,-5.6483,-5.6483,-5.6483,-5.6483,-5.6483,-5.6483,-5.6488,-4.8604,-4.8604,-4.8604,-4.9309,-5.04,-5.0919,-5.149,-5.1896,-5.1444,-5.0769,-5.0175,-4.9501,-4.9411,-4.9649,-4.9725,-4.9708,-4.9842,-4.9952,-5.0011,-5.0011,-5.0011,-5.0011,-5.0011,-5.0011,-5.0011,-5.0011,-5.0011,-5.0011,-5.0011,-5.0011,-5.0011,-5.0011,-5.0011,-5.0011,-5.0011,-5.0011,-5.0011,-5.0011,-5.0011,-5.0011,-5.0011,-5.0011,-5.0011,-4.9993,-5.0051,-5.0263,-5.038,-5.0766,-5.107,-5.1298,-5.1538,-5.164,-5.169,-5.169,-5.169,-5.169,-5.169,-5.169,-5.169,-5.174,-5.179,-5.2078,-5.2499,-5.3005,-5.3481,-5.3639,-5.3774,-5.3851,-5.3888,-5.3944,-5.3944,-5.4091,-5.4233,-5.4352,-5.4434,-5.4616,-5.4711,-5.481,-5.4871,-5.4841,-5.4871,-5.4901,-5.4901,-5.4901,-5.4901,-5.4901,-5.4901,-5.4901,-5.4971,-5.5028,-5.5094,-5.5255,-5.5508,-5.5705,-5.5747,-5.5921,-5.6087,-5.6141,-5.6194,-5.6244,-5.6297,-5.6417,-5.6483,-5.6483,-5.6483,-5.6483,-5.6483,-5.6483,-5.6483,-5.6483,-5.6483,-5.6483,-5.6483,-5.6483,-5.6488,-4.8604,-4.8604,-4.8604,-4.9081,-4.9915,-5.0237,-5.0603,-5.0735,-5.056,-5.0185,-4.9505,-4.935,-4.9471,-4.9725,-4.9801,-4.9784,-4.986,-4.9935,-4.9993,-5.0011,-5.0011,-5.0011,-5.0011,-5.0011,-5.0011,-5.0011,-5.0011,-5.0011,-5.0011,-5.0011,-5.0011,-5.0011,-5.0011,-5.0011,-5.0011,-5.0011,-5.0011,-5.0011,-5.0011,-5.0011,-5.0011,-5.0011,-5.0011,-5.0011,-4.9993,-5.0109,-5.0263,-5.0509,-5.0838,-5.1105,-5.1367,-5.1571,-5.164,-5.169,-5.169,-5.169,-5.169,-5.169,-5.169,-5.174,-5.1871,-5.2155,-5.2361,-5.2831,-5.3217,-5.3521,-5.36,-5.3813,-5.3813,-5.3813,-5.3813,-5.3944,-5.4091,-5.4179,-5.4284,-5.442,-5.4552,-5.4667,-5.473,-5.4791,-5.4822,-5.4901,-5.4901,-5.4901,-5.4901,-5.4901,-5.4901,-5.4901,-5.4931,-5.4971,-5.5028,-5.5203,-5.5413,-5.5573,-5.5724,-5.5884,-5.6043,-5.6087,-5.616,-5.6219,-5.6286,-5.6407,-5.6483,-5.6483,-5.6483,-5.6483,-5.6483,-5.6483,-5.6483,-5.6483,-5.6483,-5.6483,-5.6483,-5.6483,-5.6483,-4.8543,-4.8604,-4.8543,-4.9004,-4.9568,-4.9094,-4.9281,-4.9709,-4.9354,-4.9265,-4.9462,-4.9488,-4.9607,-4.986,-4.9935,-4.9935,-4.9935,-4.9993,-5.0011,-5.0011,-5.0011,-5.0011,-5.0011,-5.0011,-5.0011,-5.0011,-5.0011,-5.0011,-5.0011,-5.0011,-5.0011,-5.0011,-5.0011,-5.0011,-5.0011,-5.0011,-5.0011,-5.0011,-5.0011,-5.0011,-5.0011,-5.0011,-5.0011,-5.0011,-5.0011,-5.0051,-5.0109,-5.0341,-5.0602,-5.0874,-5.1228,-5.1487,-5.169,-5.169,-5.169,-5.169,-5.169,-5.169,-5.169,-5.169,-5.1871,-5.2108,-5.2268,-5.259,-5.3091,-5.3359,-5.3521,-5.3756,-5.3813,-5.3813,-5.3794,-5.3832,-5.3944,-5.4018,-5.4108,-5.4249,-5.4386,-5.4538,-5.4603,-5.468,-5.4791,-5.492,-5.4901,-5.4901,-5.4901,-5.4901,-5.4901,-5.4901,-5.4901,-5.4931,-5.4971,-5.5094,-5.5288,-5.5437,-5.5618,-5.5847,-5.6012,-5.6043,-5.6102,-5.6201,-5.6275,-5.6378,-5.6446,-5.6483,-5.6483,-5.6483,-5.6483,-5.6483,-5.6483,-5.6483,-5.6483,-5.6483,-5.6483,-5.6483,-5.6483,-4.7281,-4.7265,-4.7281,-4.7426,-4.7839,-4.8576,-4.8501,-4.7917,-4.8158,-4.8651,-4.9202,-4.9411,-4.9607,-4.9801,-4.9935,-5.0011,-5.0011,-5.0011,-5.0011,-5.0011,-5.0011,-5.0011,-5.0011,-5.0011,-5.0011,-5.0011,-5.0011,-5.0011,-5.0011,-5.0011,-5.0011,-5.0011,-5.0011,-5.0011,-5.0011,-5.0011,-5.0011,-5.0011,-5.0011,-5.0011,-5.0011,-5.0011,-5.0011,-5.0011,-5.0011,-5.0011,-4.9993,-5.0246,-5.0492,-5.0803,-5.1105,-5.1436,-5.164,-5.169,-5.169,-5.169,-5.169,-5.169,-5.169,-5.169,-5.1758,-5.1902,-5.2126,-5.2408,-5.2893,-5.3175,-5.3462,-5.3678,-5.3774,-5.3813,-5.3813,-5.3794,-5.387,-5.3907,-5.3981,-5.4091,-5.4233,-5.4371,-5.4472,-5.4584,-5.4711,-5.4822,-5.4871,-5.4901,-5.4901,-5.4901,-5.4901,-5.4901,-5.4901,-5.4901,-5.4931,-5.5,-5.5121,-5.5314,-5.5508,-5.5767,-5.5959,-5.601,-5.6087,-5.6201,-5.6294,-5.6368,-5.6446,-5.6483,-5.6483,-5.6483,-5.6483,-5.6483,-5.6483,-5.6483,-5.6483,-5.6483,-5.6483,-5.6483,-5.6483,-4.6603,-4.6603,-4.6603,-4.6449,-4.6484,-4.7588,-4.7612,-4.7226,-4.7736,-4.848,-4.9212,-4.9471,-4.9666,-4.9784,-4.9935,-5.0011,-5.0011,-5.0011,-5.0011,-5.0011,-5.0011,-5.0011,-5.0011,-5.0011,-5.0011,-5.0011,-5.0011,-5.0011,-5.0011,-5.0011,-5.0011,-5.0011,-5.0011,-5.0011,-5.0011,-5.0011,-5.0011,-5.0011,-5.0011,-5.0011,-5.0011,-5.0011,-5.0011,-5.0011,-5.0011,-5.0011,-5.0051,-5.0263,-5.0509,-5.082,-5.1105,-5.1436,-5.1589,-5.169,-5.169,-5.169,-5.169,-5.169,-5.169,-5.169,-5.169,-5.174,-5.1951,-5.2173,-5.2563,-5.2875,-5.3217,-5.3521,-5.3717,-5.3813,-5.3813,-5.3813,-5.3813,-5.3832,-5.387,-5.3981,-5.4055,-5.4198,-5.4337,-5.4453,-5.4597,-5.4711,-5.4871,-5.4871,-5.4901,-5.4901,-5.4901,-5.4901,-5.4901,-5.4901,-5.4901,-5.496,-5.5085,-5.5281,-5.548,-5.5684,-5.5866,-5.5995,-5.6071,-5.6187,-5.6239,-5.6297,-5.6407,-5.6483,-5.6483,-5.6483,-5.6483,-5.6483,-5.6483,-5.6483,-5.6483,-5.6483,-5.6483,-5.6483,-5.6483,-4.6511,-4.6542,-4.6542,-4.6126,-4.5758,-4.6413,-4.7107,-4.7869,-4.7998,-4.8589,-4.9488,-4.959,-4.9725,-4.9952,-5.0011,-5.0011,-5.0011,-5.0011,-5.0011,-5.0011,-5.0011,-5.0011,-5.0011,-5.0011,-5.0011,-5.0011,-5.0011,-5.0011,-5.0011,-5.0011,-5.0011,-5.0011,-5.0011,-5.0011,-5.0011,-5.0011,-5.0011,-5.0011,-5.0011,-5.0011,-5.0011,-5.0011,-5.0011,-5.0011,-5.0011,-5.0011,-5.0109,-5.0263,-5.0509,-5.082,-5.1105,-5.1418,-5.1589,-5.169,-5.169,-5.169,-5.169,-5.169,-5.169,-5.169,-5.169,-5.169,-5.174,-5.1902,-5.225,-5.2698,-5.3066,-5.34,-5.3639,-5.3717,-5.3813,-5.3813,-5.3813,-5.3813,-5.3813,-5.3832,-5.387,-5.3981,-5.4163,-5.4318,-5.45,-5.468,-5.4841,-5.4901,-5.4901,-5.4901,-5.4901,-5.4901,-5.4901,-5.4901,-5.4901,-5.4931,-5.5057,-5.5255,-5.5456,-5.5618,-5.5808,-5.5959,-5.604,-5.6126,-5.6194,-5.6244,-5.6338,-5.6417,-5.6483,-5.6483,-5.6483,-5.6483,-5.6483,-5.6483,-5.6483,-5.6483,-5.6483,-5.6483,-5.6483,-4.5141,-4.5172,-4.5157,-4.5033,-4.5032,-4.5719,-4.6695,-4.7836,-4.7933,-4.848,-4.9307,-4.9471,-4.9666,-4.9784,-4.9935,-4.9993,-5.0011,-5.0011,-5.0011,-5.0011,-5.0011,-5.0011,-5.0011,-5.0011,-5.0011,-5.0011,-5.0011,-5.0011,-5.0011,-5.0011,-5.0011,-5.0011,-5.0011,-5.0011,-5.0011,-5.0011,-5.0011,-5.0011,-5.0011,-5.0011,-5.0011,-5.0011,-5.0011,-5.0011,-5.0011,-5.0011,-5.0051,-5.032,-5.0564,-5.082,-5.1123,-5.1454,-5.164,-5.169,-5.169,-5.169,-5.169,-5.169,-5.169,-5.169,-5.169,-5.169,-5.169,-5.1902,-5.2173,-5.2563,-5.2937,-5.3235,-5.36,-5.3756,-5.3813,-5.3813,-5.3813,-5.3813,-5.3813,-5.3813,-5.3832,-5.387,-5.4055,-5.4233,-5.4401,-5.4648,-5.4822,-5.4901,-5.4901,-5.4901,-5.4901,-5.4901,-5.4901,-5.4901,-5.4901,-5.4931,-5.4971,-5.5149,-5.5339,-5.5531,-5.5747,-5.5922,-5.599,-5.6067,-5.6141,-5.6207,-5.6297,-5.6378,-5.6455,-5.6483,-5.6483,-5.6483,-5.6483,-5.6483,-5.6483,-5.6483,-5.6483,-5.6483,-5.6483,-4.4572,-4.4572,-4.4572,-4.4799,-4.5067,-4.5494,-4.6394,-4.7406,-4.7803,-4.8416,-4.9152,-4.9471,-4.9649,-4.9725,-4.9918,-5.0011,-5.0011,-5.0011,-5.0011,-5.0011,-5.0011,-5.0011,-5.0011,-5.0011,-5.0011,-5.0011,-5.0011,-5.0011,-5.0011,-5.0011,-5.0011,-5.0011,-5.0011,-5.0011,-5.0011,-5.0011,-5.0011,-5.0011,-5.0011,-5.0011,-5.0011,-5.0011,-5.0011,-5.0011,-5.0011,-5.0011,-5.0051,-5.0302,-5.062,-5.0874,-5.1158,-5.1487,-5.169,-5.169,-5.169,-5.169,-5.169,-5.169,-5.169,-5.169,-5.169,-5.169,-5.169,-5.1772,-5.2096,-5.2472,-5.2761,-5.3109,-5.3521,-5.3813,-5.3813,-5.3813,-5.3813,-5.3813,-5.3813,-5.3813,-5.3813,-5.3813,-5.3944,-5.4127,-5.4352,-5.4616,-5.4742,-5.4822,-5.4901,-5.4901,-5.4901,-5.4901,-5.4901,-5.4901,-5.4901,-5.4901,-5.496,-5.5009,-5.521,-5.5437,-5.5621,-5.5788,-5.5885,-5.5973,-5.6052,-5.6187,-5.6275,-5.6368,-5.6455,-5.6483,-5.6483,-5.6483,-5.6483,-5.6483,-5.6483,-5.6483,-5.6483,-5.6483,-5.6483,-4.4572,-4.4572,-4.4572,-4.4918,-4.5567,-4.5567,-4.604,-4.688,-4.7589,-4.84,-4.8995,-4.9411,-4.9573,-4.9708,-4.9918,-4.9993,-5.0011,-5.0011,-5.0011,-5.0011,-5.0011,-5.0011,-5.0011,-5.0011,-5.0011,-5.0011,-5.0011,-5.0011,-5.0011,-5.0011,-5.0011,-5.0011,-5.0011,-5.0011,-5.0011,-5.0011,-5.0011,-5.0011,-5.0011,-5.0011,-5.0011,-5.0011,-5.0011,-5.0011,-5.0011,-4.9993,-5.0092,-5.0397,-5.0803,-5.0964,-5.1245,-5.1589,-5.169,-5.169,-5.169,-5.169,-5.169,-5.169,-5.169,-5.169,-5.169,-5.169,-5.169,-5.174,-5.1969,-5.2426,-5.2806,-5.3023,-5.34,-5.3717,-5.3813,-5.3813,-5.3813,-5.3813,-5.3813,-5.3813,-5.3813,-5.3794,-5.3907,-5.4091,-5.4337,-5.4552,-5.468,-5.4791,-5.4901,-5.4901,-5.4901,-5.4901,-5.4901,-5.4901,-5.4901,-5.4901,-5.4931,-5.4971,-5.5149,-5.5339,-5.5461,-5.5621,-5.5747,-5.5903,-5.6024,-5.616,-5.6283,-5.6358,-5.6426,-5.6474,-5.6483,-5.6483,-5.6483,-5.6483,-5.6483,-5.6483,-5.6483,-5.6483,-5.6483,-4.4572,-4.4572,-4.4572,-4.4723,-4.4874,-4.4858,-4.564,-4.6811,-4.7017,-4.7589,-4.8319,-4.8668,-4.9118,-4.9708,-4.9918,-5.0011,-5.0011,-5.0011,-5.0011,-5.0011,-5.0011,-5.0011,-5.0011,-5.0011,-5.0011,-5.0011,-5.0011,-5.0011,-5.0011,-5.0011,-5.0011,-5.0011,-5.0011,-5.0011,-5.0011,-5.0011,-5.0011,-5.0011,-5.0011,-5.0011,-5.0011,-5.0011,-5.0011,-5.0011,-5.0011,-5.0011,-5.0109,-5.032,-5.062,-5.0803,-5.1176,-5.1487,-5.169,-5.169,-5.169,-5.169,-5.169,-5.169,-5.169,-5.169,-5.169,-5.169,-5.169,-5.169,-5.192,-5.249,-5.285,-5.3023,-5.3277,-5.36,-5.3813,-5.3813,-5.3813,-5.3813,-5.3813,-5.3813,-5.3813,-5.3832,-5.3907,-5.4091,-5.4303,-5.4472,-5.4616,-5.4742,-5.4871,-5.4901,-5.4901,-5.4901,-5.4901,-5.4901,-5.4901,-5.4901,-5.4901,-5.4971,-5.5094,-5.5203,-5.5339,-5.5508,-5.5684,-5.5827,-5.5973,-5.6132,-5.6251,-5.6328,-5.6388,-5.6455,-5.6483,-5.6483,-5.6483,-5.6483,-5.6483,-5.6483,-5.6483,-5.6483,-5.6483,-4.4572,-4.4572,-4.4572,-4.4572,-4.4572,-4.4572,-4.5052,-4.5769,-4.6237,-4.6831,-4.7688,-4.8446,-4.9195,-4.9725,-4.9935,-5.0011,-5.0011,-5.0011,-5.0011,-5.0011,-5.0011,-5.0011,-5.0011,-5.0011,-5.0011,-5.0011,-5.0011,-5.0011,-5.0011,-5.0011,-5.0011,-5.0011,-5.0011,-5.0011,-5.0011,-5.0011,-5.0011,-5.0011,-5.0011,-5.0011,-5.0011,-5.0011,-5.0011,-5.0011,-5.0011,-5.0011,-5.0109,-5.0263,-5.0509,-5.0874,-5.1263,-5.1487,-5.169,-5.169,-5.169,-5.169,-5.169,-5.169,-5.169,-5.169,-5.169,-5.169,-5.169,-5.169,-5.179,-5.2239,-5.2608,-5.2831,-5.3422,-5.3774,-5.3813,-5.3813,-5.3813,-5.3813,-5.3813,-5.3813,-5.3813,-5.3794,-5.3832,-5.3907,-5.4163,-5.4424,-5.4571,-5.4761,-5.4841,-5.4901,-5.4901,-5.4901,-5.4901,-5.4901,-5.4901,-5.4901,-5.4901,-5.4901,-5.499,-5.5085,-5.5149,-5.5383,-5.5573,-5.5728,-5.5865,-5.6083,-5.6239,-5.6297,-5.6359,-5.6455,-5.6483,-5.6483,-5.6483,-5.6483,-5.6483,-5.6483,-5.6483,-5.6483,-5.6483,-4.4572,-4.4572,-4.4572,-4.4572,-4.4572,-4.4572,-4.4783,-4.5067,-4.5608,-4.647,-4.7556,-4.8776,-4.9394,-4.9725,-4.9935,-4.9935,-5.0011,-5.0011,-5.0011,-5.0011,-5.0011,-5.0011,-5.0011,-5.0011,-5.0011,-5.0011,-5.0011,-5.0011,-5.0011,-5.0011,-5.0011,-5.0011,-5.0011,-5.0011,-5.0011,-5.0011,-5.0011,-5.0011,-5.0011,-5.0011,-5.0011,-5.0011,-5.0011,-5.0011,-5.0011,-5.0011,-5.0051,-5.0206,-5.0453,-5.0928,-5.1315,-5.1589,-5.169,-5.169,-5.169,-5.169,-5.169,-5.169,-5.169,-5.169,-5.169,-5.169,-5.169,-5.174,-5.1772,-5.2048,-5.2408,-5.2857,-5.3422,-5.3774,-5.3774,-5.3813,-5.3813,-5.3813,-5.3813,-5.3813,-5.3813,-5.3813,-5.3813,-5.3851,-5.4073,-5.4356,-5.4524,-5.4717,-5.4841,-5.4871,-5.4901,-5.4901,-5.4901,-5.4901,-5.4901,-5.4901,-5.4901,-5.4901,-5.4931,-5.499,-5.5057,-5.5203,-5.5413,-5.5558,-5.5749,-5.5952,-5.6141,-5.6255,-5.6349,-5.6417,-5.6483,-5.6483,-5.6483,-5.6483,-5.6483,-5.6483,-5.6483,-5.6483,-5.6483,-4.4572,-4.4572,-4.4572,-4.4572,-4.4572,-4.4572,-4.5274,-4.6182,-4.5897,-4.6916,-4.84,-4.8589,-4.8934,-4.9725,-4.9935,-5.0011,-5.0011,-5.0011,-5.0011,-5.0011,-5.0011,-5.0011,-5.0011,-5.0011,-5.0011,-5.0011,-5.0011,-5.0011,-5.0011,-5.0011,-5.0011,-5.0011,-5.0011,-5.0011,-5.0011,-5.0011,-5.0011,-5.0011,-5.0011,-5.0011,-5.0011,-5.0011,-5.0011,-5.0011,-5.0011,-5.0011,-4.9993,-5.0051,-5.0359,-5.082,-5.1297,-5.1589,-5.169,-5.169,-5.169,-5.169,-5.169,-5.169,-5.169,-5.169,-5.169,-5.169,-5.169,-5.169,-5.1822,-5.203,-5.2408,-5.2743,-5.3258,-5.36,-5.3678,-5.3774,-5.3813,-5.3813,-5.3813,-5.3813,-5.3813,-5.3813,-5.3813,-5.3926,-5.4146,-5.4321,-5.4424,-5.4654,-5.4871,-5.4901,-5.4901,-5.4901,-5.4901,-5.4901,-5.4901,-5.4901,-5.4901,-5.4901,-5.4901,-5.4901,-5.4971,-5.5094,-5.5255,-5.5461,-5.5645,-5.5827,-5.6001,-5.6194,-5.6297,-5.6359,-5.6417,-5.6483,-5.6483,-5.6483,-5.6483,-5.6483,-5.6483,-5.6483,-5.6483]}]]